GFSGBSN_250_spd_000.txt.gz
Wind_Speed
32 34 35 37 39 39 40 41 43 43 43 42 41 40 38 36 33 33 34 33 31 30 29 31 32 31 27 22 24 18 16 17 15 10 7 10 13 16 17 22 17 10 6 11 9 10 13
34 37 39 41 42 44 45 46 47 48 48 48 48 47 46 46 45 43 41 38 36 35 34 32 32 31 30 28 30 23 21 19 18 17 10 5 8 11 14 16 20 13 3 4 10 13 17
36 39 40 42 44 45 46 47 49 50 50 52 54 54 54 52 51 50 50 48 46 43 41 38 38 35 31 32 30 29 28 24 21 20 18 9 6 6 7 10 14 17 11 4 6 12 14
39 42 44 45 47 48 49 50 51 53 54 56 57 57 58 58 56 56 58 57 54 50 49 48 44 43 37 35 32 34 33 30 27 25 24 19 11 8 4 3 7 11 12 10 6 7 11
32 34 37 39 40 41 42 45 47 50 52 55 57 59 60 63 63 61 61 63 62 59 56 57 53 50 45 42 39 36 36 38 33 29 28 26 21 14 10 5 1 3 7 10 13 11 13
23 24 24 25 26 28 30 32 34 37 39 40 43 46 48 53 57 63 65 65 66 65 62 60 58 55 53 51 49 43 40 37 37 37 34 33 29 22 17 13 8 3 3 6 8 8 13
23 26 28 30 31 32 34 37 40 42 41 42 44 45 45 46 46 51 52 59 65 67 71 67 65 65 57 57 58 53 48 43 39 37 37 38 36 33 22 18 16 10 8 7 8 3 5
28 31 33 33 32 32 35 39 40 39 40 40 43 46 46 45 45 40 47 50 55 57 65 69 68 71 67 63 65 60 57 51 46 44 41 39 41 42 31 24 24 18 15 12 11 11 9
32 33 35 36 37 42 44 41 40 40 43 44 46 50 49 48 50 50 46 42 45 50 57 64 65 69 71 70 67 67 63 61 56 50 47 44 47 46 38 33 31 27 23 19 15 14 15
37 39 40 41 42 45 46 43 44 45 46 45 46 47 51 50 48 46 50 51 44 40 44 56 57 59 65 71 73 70 70 68 63 59 55 52 51 50 44 39 38 35 33 27 20 20 18
41 41 41 44 48 49 49 50 47 50 50 55 58 56 55 54 49 48 54 53 53 54 45 45 49 55 58 64 71 74 75 74 72 67 62 59 57 55 49 47 44 45 40 33 29 27 20
46 44 48 51 51 50 51 51 53 54 57 59 61 60 64 62 60 57 57 53 53 58 53 54 50 48 54 60 65 71 77 78 78 76 69 67 64 62 55 55 52 50 43 38 34 33 24
51 52 54 56 59 58 58 57 58 60 60 59 59 62 64 68 66 62 61 61 59 56 53 61 62 55 50 51 62 67 73 81 82 81 77 76 69 68 62 57 58 56 45 39 35 35 30
61 60 62 64 65 67 67 68 65 64 67 70 71 70 71 74 75 72 66 65 65 60 59 63 62 62 59 49 48 57 67 74 84 86 84 82 76 74 68 61 62 62 54 45 42 38 38
65 67 68 71 72 71 72 72 73 72 78 79 78 76 77 79 84 83 78 67 68 69 66 67 70 66 63 57 53 50 59 72 76 85 89 87 83 84 78 74 70 65 62 52 51 46 44
72 71 74 75 75 79 80 81 80 80 83 86 88 88 90 90 89 90 85 76 76 76 75 76 70 72 69 67 63 58 50 59 71 78 87 90 89 88 87 84 78 71 67 67 56 51 45
79 77 80 79 81 82 82 80 82 87 94 97 97 97 101 105 101 100 94 87 88 84 83 81 79 74 73 72 68 66 60 57 60 74 81 89 94 94 95 88 82 78 76 70 63 58 51
86 87 83 83 88 89 91 93 96 102 103 103 106 107 110 114 116 112 106 104 98 95 91 84 82 82 79 76 71 73 68 66 58 70 80 83 91 97 94 93 92 89 85 81 74 59 55
93 91 92 96 98 99 102 105 105 108 112 116 117 113 113 120 117 118 114 110 105 99 100 89 87 83 81 76 79 75 72 70 66 65 74 82 83 93 99 99 98 95 87 82 76 70 62
97 100 104 105 107 108 112 116 119 123 124 127 129 125 119 118 121 120 119 110 111 106 103 91 87 85 84 80 74 76 74 75 71 70 68 76 82 87 95 100 99 99 93 88 86 78 68
106 112 114 117 120 120 120 119 123 126 125 130 135 131 131 128 125 119 121 115 105 107 106 96 89 87 82 82 78 75 77 78 75 70 65 68 80 83 91 98 104 102 97 96 92 82 78
121 122 125 124 126 127 128 124 129 131 134 137 138 135 134 129 129 126 124 116 113 105 103 95 90 89 86 83 80 77 78 79 77 73 67 62 74 80 87 94 106 107 103 99 95 92 85
124 127 130 128 127 128 132 130 125 121 113 105 104 101 102 107 114 113 119 116 118 112 102 98 93 87 83 82 80 79 74 79 79 71 68 63 65 75 80 93 100 109 105 103 97 96 92
127 125 125 127 125 117 105 98 92 90 85 80 79 78 77 81 82 88 95 108 115 116 109 104 99 93 86 84 82 84 78 78 77 73 71 62 61 66 76 86 97 95 103 104 103 98 94
122 119 117 109 100 90 85 81 77 71 67 64 63 63 63 65 67 70 76 82 103 105 113 109 105 100 91 88 83 82 80 79 75 73 69 64 61 61 66 80 84 87 98 107 107 101 96
116 104 95 90 83 75 71 68 62 59 55 54 53 53 53 57 59 60 63 68 75 81 90 100 103 104 97 93 88 86 82 74 75 73 72 62 59 60 62 70 75 88 88 94 104 102 95
97 88 80 73 68 65 62 56 52 49 46 45 43 41 44 50 53 53 57 58 63 71 78 79 83 98 101 98 89 85 82 77 74 69 69 63 60 56 59 65 71 76 82 87 97 93 98
79 72 67 64 61 57 54 51 48 44 40 40 36 35 38 43 43 48 48 53 58 62 66 71 80 92 97 96 88 83 81 74 71 68 65 62 57 57 56 57 62 64 71 82 85 90 97
68 64 60 57 53 51 47 44 40 37 34 33 30 29 33 34 35 39 43 44 50 53 54 60 72 84 94 93 88 81 77 74 69 68 64 60 58 54 55 55 49 52 61 66 72 82 92

GFSGBSN_250_spd_003.txt.gz
Wind_Speed
31 33 34 36 37 38 39 39 40 40 41 41 41 40 39 39 38 36 35 33 31 31 30 26 23 22 22 24 28 19 22 22 18 14 10 11 8 8 12 13 14 13 4 11 15 15 14
30 32 34 36 37 39 40 40 42 44 45 44 44 45 46 46 45 45 45 42 40 36 35 32 29 25 24 24 26 26 26 27 25 21 17 11 12 8 8 10 14 16 9 2 11 13 15
34 35 36 38 39 41 42 43 43 44 46 46 46 46 48 49 49 50 50 48 47 46 43 40 38 34 31 29 27 28 30 27 29 28 22 18 13 11 7 6 9 12 12 6 4 10 13
37 38 39 40 41 43 45 47 47 49 51 51 52 52 53 53 53 53 54 55 53 52 51 49 46 45 41 37 33 31 30 32 29 31 29 23 19 16 12 7 5 8 10 11 5 4 10
37 37 37 36 35 35 37 39 40 41 43 44 47 49 51 52 53 55 58 58 59 58 55 55 54 51 48 45 44 39 36 35 32 34 34 32 26 21 17 12 7 4 4 8 9 5 3
31 28 27 28 28 29 30 32 33 34 35 35 36 36 39 43 43 44 46 48 53 59 62 61 61 57 58 55 53 48 45 40 38 35 37 38 35 28 24 20 14 8 3 2 8 7 7
22 22 25 28 29 30 31 33 36 38 37 37 40 40 39 41 38 39 39 40 40 48 52 53 58 62 61 60 58 53 52 50 45 42 38 41 40 36 31 24 21 16 10 8 6 8 6
26 28 30 33 35 37 39 38 39 39 41 43 39 38 36 40 41 41 40 43 38 36 41 43 51 55 58 65 64 59 58 56 54 51 44 41 41 46 36 30 29 23 18 14 12 11 11
31 34 35 37 39 40 40 42 43 44 44 42 43 44 43 42 42 43 44 42 42 38 35 35 38 46 51 56 62 64 64 61 60 57 53 47 48 53 40 34 34 32 27 23 19 15 14
37 37 39 39 40 41 45 47 48 49 50 49 48 50 50 46 47 51 51 47 46 44 40 48 44 36 40 48 54 58 66 66 64 63 61 55 55 56 50 41 37 39 35 31 26 20 19
43 43 42 44 46 49 48 49 52 54 54 55 57 57 58 56 49 52 54 53 53 49 49 43 46 51 40 40 41 51 58 65 67 68 64 64 61 60 57 49 46 44 45 38 33 29 28
45 45 46 50 49 50 52 55 56 59 60 62 62 61 65 62 62 56 55 54 54 54 47 47 47 49 52 52 41 42 52 58 62 67 70 70 68 64 61 61 54 53 51 43 37 36 33
49 51 53 53 55 57 59 61 63 64 65 68 67 68 70 71 69 67 63 60 58 53 55 54 53 53 55 56 56 47 40 50 58 61 68 76 73 71 69 66 64 60 54 49 42 35 36
58 61 63 64 65 65 67 69 71 71 71 71 74 73 73 74 77 76 74 74 65 60 60 62 60 58 57 59 59 56 55 44 48 60 64 72 76 77 76 70 69 68 64 53 50 44 43
64 66 69 72 70 71 73 74 73 74 75 76 77 76 78 80 82 84 82 77 70 72 72 69 69 69 64 64 61 59 63 64 56 52 61 66 73 83 81 79 78 69 69 58 59 53 48
69 73 73 75 78 80 81 83 83 87 84 81 79 80 82 83 88 90 87 79 79 81 81 82 77 74 73 70 69 67 65 68 67 53 53 65 72 77 86 88 82 78 72 72 61 57 52
78 80 82 85 85 88 90 91 92 92 93 91 88 88 91 91 91 92 89 87 92 93 94 88 83 84 84 83 79 76 73 74 73 72 66 54 68 75 84 85 85 84 79 78 71 68 60
84 85 88 90 92 95 99 101 101 98 96 97 99 99 100 101 102 102 101 101 102 101 103 98 93 87 91 92 89 85 82 81 80 76 74 69 60 73 75 85 93 92 89 88 84 72 64
88 92 96 99 102 105 105 108 109 109 111 113 110 111 116 110 109 113 111 108 111 107 106 105 100 99 99 97 94 87 87 90 86 79 78 76 67 63 75 79 91 93 92 89 85 81 74
100 101 104 108 111 116 120 121 123 122 121 121 123 122 127 129 125 127 127 123 120 117 115 115 108 107 107 103 95 92 90 92 90 83 81 78 75 65 67 74 83 99 98 97 95 89 82
105 109 114 119 125 128 132 136 138 139 140 142 144 142 147 146 144 147 142 140 138 131 128 126 120 114 114 113 104 95 94 94 94 87 84 81 78 71 60 67 76 85 98 100 101 95 91
114 121 129 133 140 146 149 149 149 144 145 143 143 147 148 147 149 149 151 146 142 142 142 141 138 128 121 119 108 97 99 97 95 92 85 81 79 74 64 63 72 81 87 101 103 100 96
129 136 143 148 154 155 150 149 145 140 140 140 136 133 133 135 130 130 136 132 137 137 137 133 137 139 133 127 122 113 106 99 94 92 84 80 77 77 64 64 69 80 76 86 100 104 99
140 147 154 157 154 153 137 125 113 106 96 93 93 94 94 91 91 91 92 91 91 88 102 122 125 128 129 127 119 109 100 93 88 83 80 74 72 70 67 69 67 57 76 85 97 106 107
151 153 153 146 128 113 98 88 83 78 73 71 70 68 66 68 69 70 71 73 74 75 79 90 97 110 122 115 108 102 92 89 82 84 82 78 74 74 73 67 56 61 78 79 85 95 102
139 127 114 103 89 84 78 72 68 64 61 60 58 55 55 57 57 57 57 59 61 63 69 71 77 90 101 106 111 107 101 89 86 84 78 74 73 71 70 61 54 55 72 70 80 83 95
106 94 89 84 78 71 67 62 58 54 51 49 48 46 46 48 45 48 49 50 51 53 57 63 65 77 85 96 103 96 92 79 79 78 75 68 67 67 65 59 55 66 56 65 76 74 88
88 85 80 72 66 62 57 53 50 48 46 46 43 40 42 40 36 39 41 44 45 47 52 55 62 67 77 92 92 94 89 82 80 75 72 61 59 60 63 63 58 50 55 63 70 67 74
73 68 64 59 54 50 47 45 43 41 39 37 35 34 32 31 31 33 35 38 42 45 48 51 53 58 68 82 90 94 88 82 79 76 71 67 61 57 63 64 52 49 55 63 65 63 66

GFSGBSN_250_spd_006.txt.gz
Wind_Speed
32 33 34 36 38 39 40 41 41 41 41 42 41 42 41 41 40 38 36 35 33 32 30 28 27 25 25 19 22 17 25 23 19 17 16 10 10 10 14 11 13 11 8 9 16 16 16
34 35 36 37 38 39 40 41 42 43 44 44 44 45 46 45 45 45 44 41 40 39 38 36 33 31 29 26 23 23 19 25 24 22 21 18 12 10 11 13 11 13 12 7 6 12 16
32 33 35 36 38 38 39 41 42 42 43 44 45 45 45 45 46 46 45 46 45 44 44 43 42 40 38 33 31 28 28 23 26 25 23 21 18 12 11 10 11 12 13 11 6 7 8
39 40 41 42 43 43 44 44 45 46 48 48 49 49 49 49 49 50 50 49 48 47 46 46 46 46 46 43 39 34 33 31 27 29 27 26 22 19 14 12 9 8 8 10 8 5 7
43 43 43 44 45 45 44 43 43 43 44 44 42 42 43 42 40 40 41 42 42 42 44 47 48 47 47 48 48 45 42 40 36 32 31 30 27 24 22 16 13 8 5 5 7 5 3
38 37 37 36 35 33 32 33 32 31 32 33 32 32 33 33 35 36 36 36 35 37 40 40 43 46 53 52 50 51 50 47 45 39 37 35 34 28 29 24 15 15 8 2 2 5 5
32 31 30 30 30 30 30 32 31 32 33 34 35 35 35 38 37 36 36 35 38 39 38 35 36 39 42 48 56 55 53 54 50 48 44 42 37 33 33 28 22 21 16 10 7 4 6
33 34 33 33 33 33 33 34 36 37 36 38 40 40 40 38 37 39 39 38 38 37 32 25 27 28 32 36 43 51 53 56 56 56 53 47 41 45 39 32 28 28 22 19 13 13 10
35 36 36 36 36 37 38 40 40 40 41 42 44 47 46 43 46 46 44 44 40 37 32 31 35 37 25 25 31 38 47 49 54 56 56 54 52 51 48 35 32 33 29 25 21 17 15
42 40 41 43 44 43 42 44 44 43 44 45 47 48 50 49 49 49 50 51 49 45 39 40 35 40 37 33 32 29 33 40 46 52 59 57 59 54 54 47 39 36 38 32 29 22 22
44 46 44 46 48 49 49 49 49 50 50 49 50 51 55 53 52 55 55 58 56 53 47 46 40 41 41 40 34 34 30 31 35 44 47 64 62 60 56 54 49 43 46 39 35 30 30
47 46 46 48 48 50 52 53 54 54 53 55 58 56 57 58 62 55 58 60 60 60 50 55 49 50 48 43 38 35 37 29 30 33 41 49 64 63 63 60 59 55 50 48 40 37 32
55 53 54 55 58 58 57 58 60 62 63 64 65 63 63 63 64 64 64 62 61 56 60 62 62 57 56 53 47 40 43 42 42 26 29 42 49 64 67 65 63 61 58 52 47 38 33
63 63 64 66 65 64 65 66 66 67 70 70 70 68 71 75 75 71 72 70 64 59 61 64 70 64 65 64 61 57 48 45 43 45 44 27 35 51 65 72 70 69 66 59 52 47 45
71 71 73 74 76 77 76 76 75 75 76 77 78 78 80 78 80 82 82 74 67 70 72 73 73 69 65 66 67 63 55 52 49 47 49 37 31 38 46 68 78 69 72 63 63 58 54
73 75 77 80 80 81 82 84 85 85 86 86 88 88 90 88 87 89 86 76 76 75 78 82 78 75 74 71 71 72 62 58 58 52 53 53 44 44 42 49 64 77 73 74 68 64 57
79 81 84 88 88 89 89 91 91 90 91 94 95 94 99 96 97 98 94 85 85 82 83 85 82 78 78 79 80 76 71 69 64 64 61 61 62 56 44 40 49 70 81 77 76 74 68
80 85 89 90 91 93 95 95 95 95 99 101 103 102 108 105 104 102 98 95 96 92 92 93 94 90 86 86 84 83 78 78 78 72 69 66 67 66 59 46 53 55 66 83 83 76 72
85 89 92 95 98 101 104 105 107 108 111 112 111 109 116 117 112 115 112 108 109 107 105 107 107 103 98 96 96 89 88 83 85 80 77 72 71 69 66 51 48 43 52 69 84 83 82
94 98 101 103 109 113 116 118 120 121 122 122 121 120 124 129 126 128 128 123 124 119 117 118 121 115 111 106 104 98 95 93 95 91 86 84 77 71 67 64 68 61 57 61 74 87 83
104 110 110 114 118 121 126 130 133 133 133 134 135 133 136 132 138 143 141 135 135 134 137 136 131 126 125 119 113 107 105 102 99 93 90 89 83 78 69 72 75 66 59 58 66 76 89
109 113 119 124 128 134 137 139 142 142 143 145 147 148 150 149 149 151 149 144 142 146 148 147 141 137 138 126 126 122 115 112 107 99 97 94 90 86 82 76 77 72 66 50 56 62 80
119 124 129 133 138 141 144 147 149 149 148 144 139 134 123 117 110 108 109 109 113 114 120 128 137 144 143 140 133 126 123 117 109 107 105 103 97 95 87 81 81 77 47 61 60 65 72
125 131 138 142 145 147 144 136 128 119 109 105 99 93 87 86 84 83 86 87 91 90 85 101 114 118 130 130 134 133 130 121 118 113 110 109 100 97 89 85 85 54 67 67 62 62 69
137 141 140 131 122 112 105 100 94 91 86 81 76 71 70 70 68 70 71 72 71 74 80 82 81 89 108 114 122 128 131 130 124 119 117 112 101 96 92 84 71 68 66 65 64 55 62
129 115 106 98 91 85 81 79 78 74 69 65 62 59 58 59 57 56 56 57 59 58 62 65 73 79 71 81 99 111 121 123 119 117 116 113 104 89 81 76 65 56 66 61 67 57 68
102 93 86 80 77 75 72 69 66 61 58 55 52 49 48 50 43 48 48 49 49 51 53 54 57 63 73 74 75 79 93 103 116 113 111 107 97 83 69 73 65 71 64 63 70 57 59
87 81 77 73 67 62 58 54 52 50 48 45 44 42 42 42 37 42 42 41 42 43 45 50 52 58 61 65 70 70 81 93 100 105 106 101 86 76 77 70 69 70 53 56 51 59 54
77 71 64 59 53 49 45 44 42 41 38 36 35 34 35 34 33 35 35 36 37 38 41 45 49 48 53 59 64 65 72 81 93 95 84 86 81 74 70 64 70 66 64 66 67 59 54

GFSGBSN_250_spd_009.txt.gz
Wind_Speed
31 32 33 34 35 36 37 38 38 39 41 42 42 42 42 41 39 37 36 35 35 33 32 31 28 26 24 22 22 20 20 16 16 13 14 11 10 10 10 11 13 14 13 8 15 20 23
35 35 36 37 37 38 39 40 42 42 43 44 44 44 45 45 44 43 42 41 40 39 39 39 36 34 31 30 27 26 22 22 18 17 16 17 13 9 11 10 13 15 15 11 5 11 20
36 37 38 38 39 41 42 42 43 44 45 46 46 47 47 47 46 44 43 43 41 39 39 41 42 41 41 38 35 33 31 28 26 22 19 19 19 13 11 11 11 13 16 15 10 4 7
37 38 40 41 41 42 43 45 45 46 47 48 49 48 49 49 49 49 46 45 43 41 40 42 43 43 43 43 42 41 40 37 32 30 26 23 22 21 14 11 11 10 11 13 10 7 2
44 45 46 47 48 49 49 49 48 49 49 48 47 46 43 42 40 39 36 34 34 33 32 33 36 40 44 45 45 45 46 45 41 37 33 29 27 24 23 18 13 12 10 9 9 6 3
47 48 49 51 51 51 50 49 48 48 44 40 36 33 32 32 32 33 32 29 29 28 28 30 30 30 36 40 43 46 48 49 48 45 41 38 34 27 28 25 16 17 14 11 6 5 1
50 51 51 51 50 48 46 43 41 39 35 34 32 30 32 33 32 34 33 32 31 27 29 30 27 27 31 32 34 36 43 48 50 50 47 46 41 37 35 31 22 22 21 17 11 6 2
49 48 47 45 45 43 40 40 38 37 37 36 36 37 37 37 39 38 37 36 35 32 33 28 25 28 27 22 26 30 35 38 42 53 51 49 48 46 43 35 30 25 25 22 18 14 7
50 48 46 45 45 43 44 43 41 41 41 41 42 41 40 40 42 40 37 38 34 32 31 36 28 33 26 30 28 25 27 31 33 42 52 53 54 50 48 42 36 32 32 27 24 22 16
50 50 49 48 49 47 46 46 47 47 47 47 45 47 47 45 45 44 42 44 36 37 27 43 33 39 40 34 38 25 26 26 26 30 37 49 57 54 52 47 44 39 39 35 30 26 22
54 53 54 54 54 54 53 52 53 54 55 55 53 52 53 50 49 46 46 51 45 44 29 41 42 43 46 42 42 38 30 27 24 23 26 35 44 57 56 53 50 49 45 42 37 30 27
61 60 59 59 57 57 57 58 55 54 55 55 55 55 56 54 60 52 55 55 52 46 34 44 42 46 49 50 47 44 40 35 30 24 22 28 29 42 58 60 55 55 51 48 45 35 27
62 63 65 65 65 65 64 62 61 61 61 63 63 62 61 65 64 64 65 64 61 50 49 53 55 50 51 51 54 50 48 43 41 36 31 31 25 25 36 58 63 57 55 53 49 41 32
69 69 70 71 73 73 74 72 70 72 71 71 72 71 74 73 75 70 72 71 64 60 63 70 67 58 52 56 56 55 52 50 51 45 45 37 33 34 28 37 56 62 60 55 54 50 48
74 75 76 77 79 81 82 82 81 81 81 79 81 81 81 83 83 81 78 74 70 72 72 76 78 69 62 57 59 63 56 55 56 54 51 46 42 41 36 31 37 46 54 61 65 61 56
79 79 81 82 82 83 84 85 86 86 87 88 86 87 91 90 90 90 87 80 82 84 81 82 78 80 76 71 69 67 67 59 60 60 57 53 50 47 44 38 31 25 34 58 63 63 57
84 84 84 85 86 88 89 90 91 91 94 94 94 93 100 102 100 99 94 90 89 88 92 90 89 84 84 81 81 77 68 65 64 65 63 62 56 53 47 43 43 45 35 37 59 66 66
87 89 92 95 96 97 97 97 98 97 97 101 100 98 108 110 106 102 98 98 96 94 97 98 97 94 92 88 87 84 77 68 70 73 67 65 66 58 53 53 47 45 41 40 49 49 67
83 86 90 95 98 101 104 104 104 103 104 106 107 105 110 114 111 112 108 106 107 102 102 106 106 108 104 100 99 93 88 77 77 78 73 72 67 69 58 54 51 49 51 54 43 49 57
87 90 93 96 98 104 108 110 110 112 114 115 118 118 119 122 122 124 122 115 116 115 112 112 116 117 114 111 111 102 98 92 90 83 82 83 75 68 66 62 69 58 57 54 54 46 43
89 95 98 101 104 108 111 115 119 120 122 123 125 124 127 128 129 129 127 122 124 123 124 123 124 120 120 117 113 107 109 103 99 93 95 94 86 78 73 71 76 65 62 60 54 45 46
94 100 105 111 115 118 120 123 125 127 129 130 131 132 135 135 139 138 137 136 133 132 134 136 137 132 130 124 123 121 118 112 110 106 103 101 93 88 84 78 77 77 68 62 61 56 50
104 110 115 119 122 124 126 129 132 135 136 138 138 138 139 143 145 145 146 146 141 139 140 139 146 136 135 135 135 128 126 123 115 115 115 110 102 96 86 85 85 89 64 69 67 64 60
118 123 126 126 125 121 115 112 111 109 105 105 104 101 99 101 100 105 108 105 105 112 116 124 133 138 139 146 145 139 134 129 125 123 126 118 111 104 95 92 98 72 76 76 76 69 63
112 106 101 98 96 92 87 83 80 78 76 76 77 75 75 78 78 79 80 81 82 81 83 92 98 102 112 124 129 137 138 141 138 131 126 117 118 111 105 99 91 85 76 83 85 72 76
96 91 84 80 75 72 68 65 63 61 60 59 58 56 57 61 60 61 65 66 68 68 68 69 75 78 91 92 100 111 117 131 126 124 129 124 124 120 111 105 94 78 87 93 86 81 79
83 78 73 69 66 62 60 58 56 54 52 50 48 45 46 48 42 48 50 53 55 56 58 58 64 62 69 73 80 88 102 101 109 113 122 130 131 122 111 104 95 91 94 92 89 85 79
72 69 66 61 56 53 50 46 43 42 41 39 38 35 36 34 30 40 40 41 42 43 44 50 52 52 57 58 62 74 80 83 90 96 109 117 116 109 107 105 100 97 96 93 88 81 76
66 61 56 51 48 44 40 37 34 31 29 28 28 28 29 26 30 27 30 32 33 36 38 38 41 43 44 47 52 61 68 68 75 83 98 103 106 106 99 105 104 98 87 86 88 79 74

GFSGBSN_250_spd_012.txt.gz
Wind_Speed
31 32 32 33 34 35 36 37 37 37 38 39 38 38 38 39 39 39 38 36 34 33 32 31 29 29 28 24 21 22 21 18 18 16 11 10 12 11 12 9 7 8 9 12 15 17 27
34 34 35 36 37 38 39 40 40 40 40 41 43 43 42 42 41 40 40 39 39 39 38 38 38 36 33 33 30 29 27 26 22 20 19 14 13 13 14 14 11 11 10 10 15 13 14
38 38 39 41 42 43 44 44 44 45 45 45 46 45 45 45 45 44 43 43 42 40 40 39 38 36 39 38 38 36 35 32 30 26 24 21 18 17 15 14 14 12 12 10 11 13 4
39 41 43 43 43 43 45 46 47 48 47 46 47 49 49 48 47 46 46 45 44 43 43 45 44 42 43 42 40 41 42 40 39 36 31 28 25 21 19 18 15 13 12 10 7 6 6
44 45 46 46 47 47 48 49 51 52 53 53 54 53 53 52 51 50 46 43 39 35 32 33 34 34 36 38 43 44 45 44 44 43 41 36 31 28 24 22 20 14 15 12 9 7 6
49 50 51 51 52 53 55 55 56 56 56 57 56 56 53 51 46 42 38 34 32 30 27 28 27 28 28 31 32 37 39 46 47 48 46 44 40 36 31 30 21 19 18 15 12 8 9
48 50 51 54 56 57 58 59 60 59 58 56 52 49 46 43 39 37 35 34 34 30 29 28 27 24 23 24 26 27 31 33 38 48 48 47 45 45 40 35 26 23 23 21 14 11 5
54 55 56 57 58 59 60 59 58 56 52 51 49 47 44 41 42 39 36 37 34 28 32 29 29 27 21 22 23 23 20 21 32 34 43 51 50 49 45 42 35 30 27 26 20 15 12
56 57 58 59 59 59 58 58 57 57 54 52 50 49 48 46 44 42 41 41 38 35 35 38 28 33 21 27 24 21 25 20 24 24 29 41 52 50 49 47 43 38 36 31 26 20 13
60 60 61 61 61 60 58 56 56 58 56 55 54 52 52 52 50 46 44 46 36 35 29 41 30 32 31 30 33 30 30 25 21 21 21 29 39 49 53 50 48 43 45 38 31 24 22
65 66 65 64 64 64 63 62 61 61 61 60 58 58 58 59 57 52 53 54 46 43 30 40 36 38 39 36 41 34 32 32 29 16 19 26 25 35 46 55 52 56 48 44 40 30 27
69 71 71 71 69 67 67 69 67 67 67 67 65 65 64 66 65 61 61 57 53 50 37 43 42 45 45 43 42 36 35 35 33 28 28 27 19 24 34 44 52 62 53 52 48 38 25
71 72 75 77 77 74 73 72 71 74 73 71 70 70 69 71 66 65 63 59 59 52 51 53 50 50 51 47 46 42 37 34 35 34 37 34 29 27 28 32 40 54 59 55 51 45 34
75 75 76 79 80 82 82 79 78 78 80 78 79 77 78 76 76 69 71 67 61 57 61 61 59 58 56 59 57 51 45 37 39 38 43 39 38 41 33 26 28 38 53 57 54 53 53
80 81 83 83 84 86 87 87 84 82 83 83 83 85 87 88 84 80 80 76 71 73 71 74 72 69 64 66 65 62 52 49 50 45 41 42 42 48 35 40 30 36 30 50 59 58 53
81 83 84 84 87 90 89 90 91 88 88 87 89 91 97 96 92 91 90 84 82 83 83 82 82 80 74 71 68 67 63 53 55 55 52 46 45 46 47 42 32 32 36 35 44 57 58
75 74 76 77 79 81 90 91 93 92 93 92 93 94 101 102 99 96 93 92 93 95 94 89 87 86 84 83 76 74 70 69 64 63 63 57 51 52 46 37 45 44 39 33 35 43 54
72 74 76 78 81 82 83 85 90 93 94 97 98 99 106 103 107 103 98 98 100 100 102 98 95 92 93 93 83 79 73 73 76 71 69 67 64 59 50 48 47 40 38 35 31 30 32
74 77 81 84 87 88 88 89 90 93 97 98 99 102 109 112 112 113 110 108 106 104 106 110 105 100 98 98 92 85 78 79 82 81 75 75 67 63 60 54 46 39 43 45 34 39 32
83 86 89 92 94 95 96 98 98 98 100 99 102 104 109 112 114 118 119 119 117 114 112 111 112 109 104 101 98 92 85 82 86 86 81 81 74 67 61 55 59 54 53 47 41 31 35
92 97 100 103 104 105 107 107 106 105 105 105 107 109 111 116 113 112 116 120 119 120 119 119 115 116 110 104 104 100 95 92 93 93 90 87 77 75 66 68 69 62 59 55 46 40 32
102 106 110 113 115 115 116 118 118 117 116 115 115 114 114 116 118 117 120 120 121 123 123 125 123 121 118 112 110 107 104 103 104 101 99 94 86 82 72 75 74 70 65 57 52 51 43
100 101 103 104 104 103 103 103 102 101 100 99 101 107 114 122 125 123 125 122 125 126 126 127 128 129 127 126 122 116 110 107 109 111 110 105 94 91 82 83 81 86 61 64 62 58 55
95 91 87 83 81 78 76 75 74 74 73 75 78 80 84 91 96 103 111 115 124 129 128 128 132 135 131 130 128 120 119 114 112 116 117 113 109 105 93 93 98 70 74 72 71 68 64
91 84 76 71 67 64 62 60 58 57 57 58 60 64 69 74 74 76 83 89 97 107 115 123 130 133 132 134 134 130 125 123 121 121 121 117 118 110 104 102 95 88 79 79 80 75 73
82 72 63 59 57 54 53 52 50 49 48 48 49 47 53 59 58 64 67 70 72 78 84 92 101 107 115 125 125 130 128 125 128 129 126 124 121 119 114 109 104 90 88 86 89 88 79
71 63 60 55 51 48 45 44 41 39 38 39 39 40 43 41 40 49 52 57 59 63 67 71 78 81 84 90 96 104 117 138 143 137 131 131 127 128 123 117 108 98 97 96 97 91 80
66 61 55 51 48 44 41 38 37 34 30 28 28 30 31 29 36 36 38 40 44 48 53 58 64 66 69 74 79 87 90 100 110 128 142 144 139 134 126 128 117 104 102 103 101 95 82
65 57 53 50 46 42 37 34 31 29 25 22 20 20 20 24 25 27 28 31 34 39 40 43 46 51 56 58 60 65 73 79 88 97 116 129 134 134 134 129 128 115 108 104 104 98 88

GFSGBSN_250_spd_015.txt.gz
Wind_Speed
33 34 34 34 34 35 36 36 37 37 37 38 38 39 39 38 38 38 38 39 40 40 40 38 33 29 29 28 28 28 23 22 21 18 15 16 13 13 13 13 14 14 16 17 17 18 19
36 37 38 38 39 40 41 41 42 42 43 43 43 44 43 42 43 44 42 41 41 41 39 39 38 35 33 32 34 35 33 30 27 26 24 20 18 19 18 15 17 17 15 13 15 13 17
40 40 41 42 43 43 44 44 45 47 48 48 48 48 47 46 47 45 43 42 42 42 42 42 42 41 40 38 37 38 37 37 36 32 31 27 25 22 22 18 19 17 17 12 11 15 17
43 44 45 45 46 47 48 49 49 50 50 49 49 49 50 49 48 46 45 45 46 45 46 46 44 44 44 43 43 42 41 41 42 40 37 34 31 27 27 22 22 20 15 13 10 13 16
45 46 47 47 48 50 52 52 52 51 51 51 52 53 53 53 54 53 52 51 50 49 49 49 49 48 46 44 45 48 48 47 45 44 44 41 38 37 30 30 26 21 18 14 10 10 15
48 50 52 53 55 57 56 56 57 56 57 57 58 58 57 57 57 56 53 53 52 48 45 44 44 42 41 41 39 38 42 43 48 50 48 45 45 43 40 36 33 23 21 19 12 13 8
53 51 53 53 54 55 55 55 55 57 60 61 61 61 62 60 59 58 53 48 44 42 43 40 40 37 35 36 36 36 36 37 39 40 44 49 47 50 46 43 33 31 25 23 17 16 9
53 56 58 59 60 60 60 61 61 62 63 63 63 63 61 61 59 57 51 45 44 42 43 41 42 40 34 34 32 33 33 32 29 30 35 40 49 51 47 46 42 38 33 30 22 18 14
57 59 60 60 60 61 61 62 62 61 61 62 62 62 63 61 57 55 52 49 45 43 42 44 41 42 34 35 38 34 33 30 26 22 20 28 36 43 51 50 47 45 44 37 30 20 21
63 64 66 67 68 68 68 68 68 67 66 66 65 62 63 64 62 59 56 54 50 47 44 50 43 43 43 40 43 38 38 29 29 26 21 25 23 32 39 48 52 48 53 42 36 27 25
66 67 69 70 72 74 75 75 75 74 70 68 68 66 66 66 66 62 60 59 57 54 49 49 47 46 45 45 47 41 40 33 36 32 26 26 23 24 27 40 45 58 50 47 42 35 27
72 72 73 74 74 75 75 75 76 77 75 75 73 70 70 72 71 67 65 64 63 61 50 52 51 47 48 47 49 47 39 35 37 34 35 34 25 23 25 23 32 47 50 49 48 41 30
77 78 80 81 82 83 82 80 80 81 80 78 79 78 77 76 76 73 76 72 71 66 59 58 56 56 55 56 52 48 42 39 39 38 39 38 34 28 25 25 27 27 34 46 48 42 41
83 83 84 86 89 90 91 90 88 88 84 81 82 85 86 78 81 82 82 81 76 70 68 65 64 64 63 61 59 52 45 40 39 39 42 36 34 39 38 33 26 25 22 21 39 51 51
70 71 75 79 82 84 84 84 86 89 90 91 92 93 93 87 86 87 88 86 78 78 74 72 72 70 67 68 65 60 53 49 49 48 45 40 36 40 35 41 32 31 18 28 20 32 45
74 77 81 82 81 80 79 81 82 85 87 88 90 95 97 96 92 91 92 90 89 86 82 79 82 76 72 71 70 68 64 59 56 54 56 49 47 43 38 34 26 29 37 26 21 20 22
73 75 76 77 78 81 82 84 85 86 87 86 86 88 89 92 98 98 96 94 94 95 94 91 88 85 82 79 77 75 72 66 62 59 58 56 54 51 47 35 35 34 33 30 27 20 19
72 75 79 84 87 89 90 91 92 93 94 93 93 93 91 91 93 99 97 98 97 98 98 96 94 91 89 86 82 81 79 79 70 67 66 62 55 55 51 48 46 40 33 28 18 28 24
82 88 93 97 98 100 102 103 102 102 101 99 98 98 96 95 96 96 102 103 103 103 104 102 100 99 97 96 94 88 86 86 80 74 71 67 61 58 62 59 53 45 40 32 27 32 21
94 95 98 105 109 112 113 113 111 110 108 105 101 98 98 96 101 99 99 103 107 107 109 108 107 105 102 101 100 100 95 92 89 83 80 76 70 64 61 67 62 53 47 41 35 26 31
99 97 96 98 102 106 109 109 109 109 108 107 107 107 104 104 101 102 102 102 106 110 111 111 110 107 108 107 106 103 100 96 94 91 88 84 77 74 68 66 69 61 53 46 35 35 29
107 104 96 92 91 90 89 86 86 86 90 92 93 93 98 107 108 107 105 105 106 108 111 113 111 112 113 111 113 110 106 101 99 97 97 91 86 81 73 72 74 66 58 50 46 45 43
104 92 84 80 75 71 68 65 62 62 64 66 71 76 81 82 91 104 110 111 111 111 111 112 112 113 113 112 114 115 114 110 106 104 102 98 94 88 80 80 79 72 54 57 55 52 51
94 84 76 70 65 61 57 54 52 50 51 52 57 60 64 69 72 80 89 103 115 117 116 115 113 112 115 113 114 115 116 116 115 111 108 103 99 94 84 87 86 63 71 71 66 60 56
86 75 67 59 54 52 48 46 45 44 43 44 45 48 53 57 59 65 70 78 92 106 116 121 120 117 115 116 113 113 113 113 112 111 111 107 108 99 95 91 81 77 81 81 76 67 62
79 70 61 56 51 47 43 40 37 34 32 33 33 37 40 41 46 52 56 63 71 81 92 105 111 116 119 119 118 117 113 113 111 111 111 114 110 108 101 95 89 83 83 83 83 76 66
76 66 59 53 51 48 44 41 38 36 33 31 30 28 28 31 37 40 44 49 56 64 71 80 90 99 111 122 124 121 117 116 113 113 112 114 114 111 105 101 94 91 89 86 89 72 73
75 65 59 56 51 47 41 37 35 33 31 29 27 23 22 23 23 27 32 38 44 50 56 64 69 76 85 97 109 116 123 125 122 118 119 120 118 116 108 103 98 94 92 93 87 81 77
69 63 57 54 49 44 38 34 32 30 27 25 23 20 16 15 15 18 22 28 34 39 45 53 57 61 68 74 82 88 100 115 127 126 123 121 117 115 112 107 100 98 97 97 90 87 83

GFSGBSN_250_spd_021.txt.gz
Wind_Speed
36 38 39 40 41 41 41 42 42 42 42 41 40 39 37 36 35 34 34 36 36 35 34 32 32 28 29 32 33 30 27 24 22 22 20 18 18 18 17 16 14 17 18 18 18 17 18
40 42 44 45 45 46 46 46 46 46 45 45 45 44 43 43 42 41 41 43 42 41 41 38 38 36 35 39 37 33 28 29 28 27 28 25 21 23 23 22 21 20 21 21 19 17 18
43 44 46 47 47 47 48 49 50 50 50 51 51 50 49 49 49 47 47 48 48 47 46 45 44 43 40 41 37 34 30 30 31 31 33 31 29 30 27 26 27 24 24 25 24 20 19
45 46 48 50 52 52 52 53 54 55 55 55 54 54 54 53 52 51 51 52 52 52 49 47 46 43 39 40 35 37 35 31 33 34 36 37 35 35 37 32 31 28 26 28 26 23 17
47 48 48 49 51 52 54 55 55 56 55 54 55 55 52 52 54 53 52 51 53 50 50 49 46 43 40 45 40 43 40 40 39 37 38 40 40 38 38 40 36 34 28 27 27 25 17
51 54 56 57 59 60 59 59 60 61 61 62 63 64 63 61 61 60 60 60 58 56 55 53 51 48 46 48 45 46 44 45 42 42 41 42 45 45 43 43 44 38 32 28 27 24 20
58 59 60 59 60 63 65 65 66 67 66 65 63 65 67 63 63 64 62 60 59 58 59 57 56 51 52 50 47 45 42 40 39 39 38 41 48 50 48 48 43 41 37 34 33 27 21
56 58 60 61 64 64 64 65 66 68 68 67 65 65 67 64 64 61 63 60 60 59 60 59 57 58 54 50 50 47 42 42 39 38 40 44 42 42 43 48 49 44 42 41 37 33 23
63 65 67 69 68 69 71 71 72 74 76 76 72 72 73 74 70 66 67 67 65 65 64 66 64 62 56 51 51 50 45 45 43 40 42 43 39 40 41 42 46 51 50 46 41 37 31
64 66 67 68 70 72 75 76 77 79 81 81 80 77 76 77 76 72 71 70 69 65 63 64 63 61 58 52 49 51 48 47 45 44 42 40 40 38 38 40 40 45 52 48 41 40 37
69 71 72 75 77 79 81 82 83 84 85 86 83 81 80 81 84 82 77 74 73 72 70 67 67 64 63 58 51 55 55 48 48 49 42 43 40 33 34 35 37 44 42 44 46 40 37
75 76 78 80 82 84 86 88 89 90 91 93 92 91 90 88 87 87 85 81 78 78 73 72 69 68 66 62 58 61 58 54 53 50 44 44 41 33 38 32 30 30 38 39 42 45 37
66 68 70 72 74 77 80 82 84 85 86 87 88 89 89 89 92 93 92 90 86 81 76 75 70 69 68 67 63 64 62 59 56 55 48 50 47 44 41 39 33 29 27 29 37 43 55
63 65 67 70 73 75 77 79 81 82 82 84 88 88 88 87 86 88 89 92 92 89 85 80 76 73 72 71 68 68 68 65 63 59 56 53 51 48 46 43 36 27 16 22 28 39 46
57 60 65 70 75 79 83 87 90 92 93 92 94 94 91 89 89 90 92 91 89 89 87 86 84 80 78 76 75 74 71 69 71 67 63 59 54 52 47 49 38 34 25 25 24 27 37
63 69 74 80 86 91 96 100 104 106 107 104 102 102 100 99 98 95 95 97 97 88 84 84 86 86 83 80 80 80 77 73 73 70 65 60 56 55 54 50 40 35 33 22 15 18 26
74 81 88 93 97 98 103 107 111 114 114 113 111 110 110 107 106 104 103 103 102 98 94 92 89 87 89 86 86 85 82 78 78 75 70 63 58 60 59 47 41 39 35 35 30 22 23
86 91 94 99 100 102 105 108 109 109 106 104 103 104 105 105 109 110 109 108 104 104 101 98 94 91 93 92 90 90 89 86 82 80 76 70 63 62 61 56 52 47 41 37 33 34 31
89 94 96 97 102 102 101 98 95 92 89 86 81 76 80 88 96 102 108 112 110 106 101 99 97 94 93 98 96 94 93 91 89 85 82 78 70 67 68 61 55 47 41 37 36 36 33
96 98 97 97 95 91 83 79 74 71 69 66 64 63 60 62 69 80 95 102 109 111 107 101 96 95 94 98 101 98 96 96 95 91 87 82 78 72 70 67 64 55 49 45 37 31 34
99 99 97 91 85 79 72 67 64 57 56 55 52 51 48 49 54 61 71 83 100 104 107 107 101 96 98 98 102 102 101 97 98 97 94 89 84 78 75 74 67 61 55 51 43 37 31
100 99 92 85 78 71 64 60 57 52 49 47 46 44 44 41 43 50 58 65 77 93 100 106 105 101 98 101 101 102 102 102 98 98 98 95 90 86 80 80 75 67 60 55 51 44 40
103 98 90 84 73 67 60 56 51 46 41 39 39 35 37 37 36 42 49 54 61 74 89 98 101 101 100 100 103 102 102 102 104 101 99 98 95 91 86 83 81 73 65 60 59 55 50
103 96 87 79 72 65 59 54 47 44 40 37 34 30 28 31 34 34 39 44 53 60 72 85 93 97 100 100 98 101 102 102 102 105 104 98 99 96 91 87 85 75 74 69 63 57 55
102 95 87 74 67 61 57 51 46 43 40 35 32 28 25 25 28 31 31 37 43 50 59 70 81 89 93 98 99 99 103 101 100 102 104 103 101 101 97 91 84 82 79 75 70 61 58
101 89 84 73 63 57 53 49 47 44 39 33 29 25 23 22 22 25 27 29 35 43 49 57 68 76 86 91 98 102 100 100 101 99 101 104 104 103 100 95 89 85 85 80 75 67 62
101 85 78 66 58 53 49 48 48 45 39 34 30 26 22 20 17 17 20 24 28 34 41 47 57 66 75 84 89 97 102 99 99 98 99 100 103 100 102 101 95 90 88 84 81 75 73
98 84 74 60 53 48 46 47 46 46 41 36 31 29 25 21 17 12 10 14 18 24 30 39 47 56 64 73 80 89 96 101 97 96 96 96 98 100 103 101 99 93 93 88 86 85 80
93 80 67 56 49 46 43 45 44 44 42 39 34 31 27 23 19 12 5 5 9 15 21 30 39 46 53 62 71 79 87 94 100 99 93 92 90 99 99 96 98 101 97 94 92 89 83

GFSGBSN_250_spd_024.txt.gz
Wind_Speed
35 36 38 39 41 42 43 44 45 46 46 45 44 43 43 41 39 37 36 34 33 31 31 31 30 28 27 30 28 26 27 25 23 24 21 19 18 15 17 17 15 13 13 16 17 18 18
38 40 42 44 45 46 47 49 49 49 49 48 47 46 46 45 42 42 41 40 38 36 36 35 35 32 30 36 34 31 31 32 30 27 26 24 21 21 24 20 20 20 18 18 18 17 19
42 44 46 48 50 51 52 53 53 52 52 51 51 50 50 50 49 49 48 47 45 44 44 42 41 38 35 43 41 36 37 36 32 31 30 27 26 28 29 25 28 26 23 22 22 21 19
46 47 50 51 53 55 56 56 56 56 57 57 57 56 55 55 55 54 53 52 51 49 48 48 47 46 42 46 46 42 43 38 35 33 33 33 31 32 34 34 33 32 29 26 23 21 20
45 50 52 54 56 57 58 58 58 58 57 58 60 60 59 59 58 57 55 54 52 51 50 51 50 47 45 45 48 43 41 39 37 37 35 35 34 35 37 38 35 36 34 29 29 23 18
51 53 55 56 58 60 62 63 64 64 63 65 65 65 63 62 60 61 60 59 59 59 59 59 56 53 50 45 49 44 42 42 41 39 42 42 40 39 39 39 41 39 35 33 32 28 20
56 58 61 64 66 68 70 72 72 71 69 69 71 73 74 70 70 69 69 67 66 64 63 60 60 57 55 53 52 49 44 45 43 45 46 43 44 45 42 45 43 38 37 36 36 34 27
60 62 63 64 67 69 70 72 74 74 75 73 72 73 74 74 73 73 71 69 68 65 64 64 63 61 56 53 52 53 48 49 45 45 39 43 46 41 41 44 45 43 45 43 40 36 32
62 64 67 70 73 75 77 79 80 80 80 81 81 79 81 79 76 75 73 71 71 69 65 70 66 64 58 54 51 51 49 50 49 42 44 46 35 38 41 43 43 44 47 50 47 39 36
64 66 68 70 73 75 78 80 82 84 85 84 84 83 85 87 86 83 81 80 79 74 74 73 73 68 65 61 58 59 58 54 52 48 49 45 39 42 42 42 41 40 43 42 46 43 38
70 72 75 77 79 82 84 86 88 90 92 94 93 92 92 91 91 91 88 86 85 82 82 75 76 74 71 65 62 59 62 55 51 52 46 50 45 42 42 39 36 38 32 34 40 46 44
63 64 66 69 72 74 76 78 82 85 88 91 93 95 97 99 98 98 97 93 90 88 85 80 77 78 76 73 66 64 63 57 55 52 45 50 47 41 40 38 38 33 31 31 36 44 42
57 58 60 63 66 71 75 80 84 88 91 95 96 95 95 94 95 95 97 97 97 95 89 86 81 81 80 78 73 72 69 64 59 56 51 54 50 47 45 41 40 33 29 31 35 40 48
53 59 62 66 70 75 79 85 89 94 96 98 100 100 100 99 99 99 97 96 94 93 97 90 87 85 87 85 81 78 75 70 65 63 62 60 56 53 51 47 46 36 31 26 31 35 46
61 66 69 71 76 82 86 92 98 103 106 107 105 105 103 102 102 102 101 97 99 97 85 88 92 93 93 90 87 83 80 76 71 69 67 64 58 58 54 52 47 40 32 37 27 28 32
70 73 77 81 85 89 94 97 101 106 112 110 108 110 113 109 107 106 105 105 103 98 93 94 92 91 95 95 91 88 86 78 74 75 72 65 66 62 61 59 48 39 41 28 20 24 26
75 78 82 84 89 94 97 101 101 103 104 101 98 95 95 92 96 102 110 109 105 99 95 96 98 93 90 96 98 94 90 83 81 77 68 70 70 66 66 56 50 47 40 36 35 28 30
76 79 81 85 89 95 99 100 99 95 90 85 79 75 73 70 70 76 88 107 110 106 103 98 94 97 96 92 99 101 95 91 84 76 77 78 76 70 66 65 58 55 52 49 39 36 37
75 81 86 91 93 95 90 87 82 75 69 67 66 62 59 58 56 59 65 80 95 104 108 106 101 94 95 96 96 98 98 95 91 86 84 79 76 77 73 70 63 55 53 47 46 42 34
81 88 93 95 91 86 80 74 66 62 59 59 56 53 51 50 49 48 53 61 75 88 101 108 106 102 97 100 100 96 96 98 96 91 86 83 85 79 73 72 68 61 56 50 49 49 42
89 94 97 94 87 80 74 67 63 60 57 52 49 46 44 42 41 40 44 51 60 72 83 99 105 107 107 103 101 103 98 95 95 95 93 89 86 83 83 76 69 62 60 55 52 53 51
95 100 102 94 85 80 70 64 63 60 54 49 42 39 36 33 34 34 34 42 51 58 70 85 98 104 109 111 105 100 100 101 97 94 95 93 90 86 82 79 76 69 63 59 58 55 54
99 102 105 95 83 78 69 63 57 53 50 46 41 35 31 29 28 29 31 33 41 50 59 71 85 96 103 109 110 102 100 102 101 99 98 98 93 88 87 87 82 75 65 64 63 60 56
102 105 105 95 83 74 66 59 54 52 50 45 38 34 28 25 25 24 26 28 33 42 50 60 72 85 94 101 106 105 101 96 98 101 98 101 97 95 93 88 86 76 76 71 70 68 63
104 108 106 95 84 70 62 55 54 51 48 43 37 31 27 24 22 21 23 24 27 34 44 52 61 73 82 93 98 103 106 100 95 96 98 101 102 99 95 87 88 85 81 76 76 72 66
105 110 107 93 83 66 58 54 49 46 45 41 35 31 27 26 25 20 18 20 23 28 36 44 50 60 70 83 93 99 102 105 103 95 95 99 104 101 98 91 90 89 86 81 78 77 74
105 110 105 88 76 61 55 49 45 43 44 42 37 34 31 30 27 21 13 12 15 22 28 36 42 51 58 71 82 91 97 97 101 99 93 96 100 102 101 97 93 92 88 84 85 87 81
106 108 102 82 70 58 50 40 41 41 40 38 37 37 33 30 27 20 14 9 6 15 22 29 36 43 51 58 70 81 88 93 96 100 96 91 96 99 103 100 96 92 89 89 91 86 83
105 106 98 79 65 53 43 35 38 36 35 36 37 37 36 32 26 21 18 13 3 8 16 21 28 36 43 50 60 70 81 86 94 99 98 92 92 96 98 98 96 94 94 92 91 89 88

GFSGBSN_250_spd_030.txt.gz
Wind_Speed
36 37 39 41 42 44 46 47 49 50 51 52 52 52 51 50 49 48 47 46 44 41 39 36 35 36 35 36 36 33 32 29 27 25 21 17 16 16 15 14 9 9 22 29 25 14 31
38 40 42 44 46 48 49 51 53 54 55 55 55 54 54 54 54 54 53 51 49 46 44 41 38 37 37 40 40 37 37 36 33 30 28 24 21 18 20 22 15 13 15 21 34 24 18
41 43 44 45 47 49 51 54 56 57 58 58 59 59 59 59 59 59 58 56 54 52 49 46 43 41 41 39 43 41 39 41 39 36 34 30 26 24 25 25 21 21 19 17 19 17 16
43 44 46 47 49 51 53 55 58 59 61 62 63 64 64 65 65 64 63 61 58 56 53 51 47 45 47 41 46 46 43 43 43 41 39 37 33 31 29 30 27 28 25 23 21 17 18
46 47 48 50 52 54 57 59 61 62 64 65 65 67 68 68 68 68 66 65 63 60 57 56 53 51 51 48 50 48 49 47 45 45 44 43 40 38 35 32 34 32 31 28 24 24 21
53 55 57 59 61 63 65 66 69 71 72 73 73 73 73 73 73 71 72 73 72 68 65 63 59 58 57 56 53 54 54 50 49 48 46 46 46 42 39 36 41 40 38 32 28 27 25
57 59 61 64 66 67 69 71 73 75 78 80 81 82 83 83 81 80 80 79 76 74 72 71 65 65 61 64 59 59 58 54 53 52 51 52 48 45 47 44 44 41 41 35 31 28 28
58 61 64 66 69 72 74 76 78 81 83 85 85 86 86 86 88 87 86 87 86 83 76 77 72 69 68 68 64 62 59 56 53 53 55 51 46 52 49 44 42 43 42 41 37 33 31
61 63 66 67 70 73 76 79 81 84 87 89 90 91 93 92 93 94 92 91 91 88 82 82 83 76 80 72 69 66 64 63 59 58 56 54 56 53 47 46 45 44 45 48 46 44 42
58 59 60 63 67 71 74 78 82 87 90 92 95 98 99 101 99 100 100 100 98 92 85 79 91 85 85 78 73 74 68 69 66 62 64 59 60 57 52 50 51 49 51 52 48 49 47
43 47 51 55 60 64 68 71 75 81 84 88 93 98 103 106 108 109 106 105 101 97 92 96 93 92 87 81 78 79 76 77 70 68 67 58 60 58 55 58 57 55 53 51 48 47 49
53 55 59 61 62 67 72 76 82 88 92 95 99 103 105 105 104 103 103 102 100 102 96 116 99 95 93 87 83 83 81 76 77 73 67 66 62 58 56 60 58 57 50 44 42 44 41
61 59 59 57 60 61 65 73 79 86 95 103 110 110 109 108 107 104 100 95 91 93 106 121 97 92 93 90 89 87 85 77 72 68 61 63 57 54 54 52 55 52 47 43 42 40 40
50 51 54 59 67 66 70 71 76 82 90 99 101 100 101 100 97 95 93 93 89 97 115 98 87 80 95 99 98 95 92 84 79 71 75 69 65 57 55 52 53 47 47 45 46 48 47
57 60 61 67 70 72 79 79 80 85 92 94 93 91 89 85 84 83 83 85 78 86 96 100 90 84 92 106 106 106 93 85 82 80 73 73 64 68 62 61 58 52 45 51 51 48 45
67 68 70 73 75 78 82 82 85 88 85 83 79 75 75 73 71 71 70 70 71 77 87 89 91 94 89 97 99 109 102 91 90 88 86 78 80 72 70 68 61 53 56 55 47 44 41
71 73 77 80 79 83 88 88 87 83 75 69 68 65 61 61 59 60 63 59 58 65 75 78 87 91 92 88 96 96 101 103 106 103 93 88 84 79 77 65 57 53 51 45 49 45 43
75 78 82 80 86 91 93 94 88 78 70 64 57 55 53 52 52 51 46 50 53 55 62 71 82 94 88 93 93 96 101 103 106 97 90 88 85 84 77 68 66 59 56 52 45 42 41
79 82 83 85 91 95 94 97 88 77 68 60 55 50 47 44 42 43 42 37 43 49 52 62 75 94 89 94 104 102 102 103 96 101 98 95 85 81 82 76 67 59 58 55 55 55 46
81 84 86 90 95 97 97 97 88 78 65 59 55 52 51 44 38 34 31 30 34 41 47 57 70 81 93 101 106 104 106 100 94 100 97 91 88 83 76 66 66 68 65 62 59 53 51
84 86 92 93 97 100 99 95 85 75 65 61 55 52 48 44 41 34 29 24 27 33 41 52 65 74 89 100 103 104 109 95 93 94 92 95 95 88 82 79 77 75 72 68 60 59 54
87 89 95 96 100 101 100 93 80 71 64 60 54 51 48 42 36 32 29 26 22 28 35 45 58 68 82 93 100 110 108 94 95 90 93 94 93 91 86 86 87 81 76 70 68 65 63
88 92 96 97 101 101 100 91 75 66 60 55 55 49 47 39 32 29 26 25 19 22 28 38 48 59 72 84 91 104 101 97 96 88 93 94 100 94 86 90 87 83 75 71 70 69 66
88 95 94 99 102 101 99 84 73 61 56 52 49 49 47 39 32 29 26 20 17 18 22 32 40 53 65 73 83 90 97 98 94 91 92 94 92 91 93 97 97 82 79 76 70 70 69
90 95 97 101 102 101 94 76 68 55 50 47 46 47 45 39 36 31 26 19 13 13 18 27 34 44 53 64 73 83 89 91 95 95 94 93 91 93 100 99 92 86 79 78 75 74 77
91 96 99 102 101 100 87 70 58 51 43 44 45 45 42 40 39 35 31 22 14 8 13 20 28 36 45 56 66 73 86 91 102 104 98 94 94 95 103 103 94 89 87 89 86 87 89
91 95 99 101 100 97 79 64 49 44 39 43 43 43 40 39 40 37 32 24 17 7 7 15 22 29 38 48 58 65 79 91 102 109 103 97 94 99 100 100 99 99 97 99 96 96 87
91 93 96 99 98 87 67 54 43 37 38 42 42 40 39 40 41 38 35 26 19 12 2 8 16 23 32 42 51 61 74 90 103 110 106 102 100 99 100 102 106 105 105 101 100 94 87
90 92 94 94 90 75 56 43 35 30 38 41 41 37 35 33 40 40 37 33 26 19 12 4 8 15 23 34 41 50 64 81 100 110 112 107 103 104 106 103 106 105 110 104 98 92 88

GFSGBSN_250_spd_033.txt.gz
Wind_Speed
38 40 42 44 45 47 48 50 51 52 53 54 55 55 56 56 55 55 53 51 48 46 43 39 36 35 34 38 34 36 34 32 30 27 24 21 20 18 16 16 16 16 32 44 51 53 50
39 41 43 45 46 48 49 51 52 54 55 56 57 58 59 59 60 59 58 55 52 51 48 45 41 40 39 41 39 39 40 39 36 35 33 29 25 21 19 20 17 14 16 26 35 38 29
40 42 44 46 49 51 53 54 56 57 59 60 62 63 64 64 64 63 61 60 57 56 54 51 47 45 46 41 43 44 44 44 43 40 39 36 31 26 24 24 19 18 16 16 21 30 32
42 43 46 48 50 52 54 55 57 59 60 61 63 64 65 66 66 66 65 65 63 61 60 57 53 50 53 45 47 49 46 46 48 46 43 40 37 33 30 29 23 22 21 21 20 23 29
47 48 50 52 54 56 58 59 61 62 64 65 67 68 69 70 71 71 70 70 69 67 65 62 59 57 58 54 52 50 51 51 50 50 49 46 41 40 35 32 28 25 28 26 23 24 25
49 52 54 57 60 62 64 67 69 71 72 74 76 76 77 78 77 77 77 76 75 74 71 68 62 60 60 61 58 55 54 55 54 53 51 51 48 44 39 34 34 38 33 29 28 29 28
54 56 58 61 62 64 67 69 72 74 77 79 80 82 83 85 86 86 86 86 84 80 77 75 70 68 67 67 63 60 60 58 57 55 52 54 52 47 50 47 45 40 35 31 32 31 32
55 58 60 63 66 69 72 75 79 81 83 85 87 89 91 92 92 92 91 92 93 90 83 85 81 74 78 76 69 67 66 62 60 61 60 55 49 58 54 50 47 42 39 36 36 33 32
55 58 60 63 66 69 73 76 79 81 84 88 91 93 97 97 99 99 98 99 98 95 90 92 91 87 87 81 76 74 72 70 64 65 60 58 64 60 56 53 49 45 42 43 43 42 37
51 53 55 56 58 61 64 68 71 75 79 84 88 93 98 102 103 105 104 104 102 98 96 100 96 97 92 91 79 81 77 77 71 65 67 66 66 61 59 54 49 46 48 48 47 45 42
56 60 62 64 66 67 68 71 74 80 85 89 94 99 103 102 104 103 102 101 99 96 102 112 100 97 95 91 85 89 87 83 76 74 74 63 68 63 59 56 55 53 54 52 49 44 46
44 45 45 48 50 53 58 63 69 78 83 87 90 99 104 109 106 103 99 97 94 90 95 105 99 100 99 97 95 93 91 87 88 84 77 74 76 71 64 63 55 61 56 54 49 45 42
55 53 51 55 53 55 59 61 68 71 79 87 95 99 106 109 110 107 104 103 98 91 93 105 91 90 97 106 105 103 97 91 87 83 74 77 74 69 67 63 60 58 55 54 51 46 42
65 59 65 63 62 60 65 68 69 73 78 82 88 93 95 96 92 86 87 86 81 82 87 88 88 95 91 96 110 106 99 94 88 82 85 81 78 70 70 65 63 62 61 55 54 52 54
65 67 71 67 65 66 69 71 74 78 80 81 82 76 76 74 71 71 72 72 71 73 77 76 81 89 93 93 95 103 105 98 91 88 80 80 75 82 79 74 70 64 54 57 59 60 59
69 71 72 69 72 74 75 74 76 83 81 77 70 60 58 58 58 60 61 65 64 62 64 67 78 86 91 92 93 95 99 102 98 102 103 90 94 86 82 83 74 61 63 60 55 56 54
73 73 70 74 77 77 80 83 83 84 82 75 64 57 50 50 47 48 52 56 58 57 52 58 66 79 90 87 96 98 94 97 105 107 101 96 90 86 88 78 65 66 62 59 59 58 54
74 70 74 77 79 84 88 87 89 87 83 74 65 56 47 45 46 45 47 47 45 49 52 50 57 72 83 89 95 97 96 100 104 107 102 98 89 95 81 68 71 70 63 63 56 55 53
73 75 79 84 85 89 91 92 96 91 83 72 63 53 46 45 40 41 42 41 37 38 44 48 48 61 75 81 93 96 98 98 100 99 101 102 91 90 86 85 76 66 62 60 59 63 57
74 78 83 87 88 93 93 94 98 92 82 69 56 49 49 46 43 36 36 34 33 30 35 43 45 54 67 79 89 95 97 100 95 97 97 97 95 87 84 75 71 66 62 63 61 58 59
77 81 85 87 94 96 94 96 99 92 76 63 52 52 46 46 44 36 34 31 25 25 29 38 43 49 61 75 84 97 96 101 98 96 95 89 88 86 82 78 77 75 72 68 58 60 56
78 84 87 90 95 96 95 97 96 88 69 54 49 49 49 43 39 36 33 28 26 21 23 33 37 45 55 63 74 92 99 101 101 97 93 86 90 88 86 85 83 82 77 70 67 66 64
78 85 88 93 94 95 96 96 93 77 60 50 48 48 44 38 37 34 30 27 23 19 20 27 33 41 47 59 68 84 96 101 99 96 90 89 89 85 89 90 91 84 74 71 69 69 66
80 87 90 95 93 94 96 94 82 64 48 44 43 41 38 35 35 35 32 26 21 15 16 22 28 35 42 55 60 76 92 98 95 94 88 91 90 85 96 94 88 78 76 71 70 71 70
82 84 92 92 91 94 93 88 71 53 41 40 38 34 35 34 34 34 32 27 21 15 10 16 23 28 36 44 55 68 87 93 92 94 88 89 86 89 99 95 81 84 87 81 79 82 80
77 85 90 88 89 90 89 77 55 39 37 37 32 33 36 36 37 37 33 29 24 15 6 9 15 21 30 42 53 64 78 88 92 92 92 93 90 94 93 91 91 96 89 84 84 85 81
79 85 83 85 85 85 77 59 40 32 32 30 33 35 37 38 39 40 39 33 24 16 8 3 8 15 26 37 47 55 67 84 88 94 93 97 94 95 93 95 95 95 92 89 92 92 86
79 80 79 80 80 80 66 44 30 27 27 29 32 33 33 36 41 42 43 40 34 25 14 5 4 10 20 30 41 51 62 75 85 90 95 100 99 96 94 94 99 102 99 97 93 92 91
78 74 75 76 79 70 51 35 26 22 23 27 28 29 29 35 38 40 42 44 41 34 23 12 5 8 15 23 33 40 50 65 77 88 97 100 105 100 100 105 103 104 103 101 98 98 95

GFSGBSN_250_spd_036.txt.gz
Wind_Speed
35 38 40 41 44 45 47 48 50 51 53 54 55 56 56 56 56 56 55 53 52 51 48 46 42 40 40 38 33 38 35 35 33 30 28 27 28 26 27 27 33 38 42 47 50 54 54
37 40 43 45 47 49 51 53 54 55 57 57 58 58 59 60 59 59 59 58 57 56 54 51 48 46 45 43 37 41 42 41 41 38 36 34 31 26 24 26 27 23 23 23 40 51 54
36 39 41 44 47 49 52 54 56 57 59 60 60 61 62 62 63 63 63 62 61 60 58 56 53 51 53 46 43 48 44 46 46 45 44 41 34 32 30 29 27 24 20 19 21 33 41
40 42 44 46 48 50 52 55 57 59 61 63 64 64 65 66 66 66 67 66 65 64 62 60 57 56 60 53 50 53 47 46 50 50 49 47 42 39 35 33 25 22 23 22 18 16 23
45 46 48 51 53 56 58 60 63 64 66 68 69 70 71 72 72 72 72 70 69 68 66 64 62 60 64 61 55 53 55 52 52 54 54 51 48 47 41 38 33 25 30 27 22 20 20
47 49 51 54 57 59 62 64 67 69 71 74 76 78 80 81 80 81 80 79 77 75 76 72 68 65 65 68 64 61 62 59 57 56 54 54 51 50 45 41 38 40 36 31 27 26 23
49 51 54 57 60 63 65 67 69 72 75 78 80 82 84 86 86 87 89 89 88 84 87 81 77 74 74 74 70 66 65 65 60 58 58 58 56 49 56 52 52 47 40 35 31 28 28
45 48 50 54 58 62 65 69 73 76 79 82 85 87 90 91 92 92 94 94 92 90 94 94 88 83 85 75 73 75 70 67 67 63 66 59 51 61 61 56 53 48 44 40 35 31 32
41 44 47 52 58 63 67 72 75 78 79 81 84 87 91 96 98 100 100 100 98 97 96 100 95 92 92 89 81 86 80 77 72 71 66 64 66 68 65 62 55 50 46 47 45 42 38
42 43 44 45 49 52 57 60 64 68 72 78 84 92 94 99 98 98 99 99 99 101 100 100 101 99 96 94 93 97 92 85 77 73 71 69 72 69 66 62 56 51 53 52 52 48 43
41 42 46 47 51 58 58 58 58 64 65 67 78 84 91 90 93 94 98 98 98 96 96 94 101 106 103 97 96 101 100 95 86 82 78 65 73 72 67 62 62 60 58 55 58 53 54
48 49 50 56 63 65 64 64 61 61 60 67 72 77 88 91 94 97 95 93 91 86 85 86 92 97 102 104 102 105 102 96 94 88 81 79 83 78 71 75 68 70 65 63 63 57 52
49 49 56 58 64 60 60 59 61 63 65 66 69 75 84 90 93 94 94 95 94 90 87 85 85 90 97 99 104 109 106 100 99 95 84 83 82 77 77 77 72 72 68 65 63 55 44
48 50 52 58 65 62 63 61 66 68 67 70 70 76 82 83 82 81 78 77 80 80 79 77 79 86 94 95 103 103 106 106 102 99 99 92 90 81 81 79 76 73 69 62 58 55 51
51 53 57 58 67 66 67 68 71 73 75 75 76 75 76 68 68 67 68 69 72 72 70 70 71 71 80 96 99 102 102 110 109 106 99 97 91 92 87 83 81 77 66 68 65 61 56
54 56 62 66 70 68 72 75 74 85 81 79 82 76 68 60 56 55 55 60 64 65 65 63 61 66 75 89 95 103 103 106 110 112 103 99 95 93 91 91 87 73 74 70 63 62 55
58 61 63 67 75 73 76 77 80 87 84 84 81 72 62 54 50 49 49 52 56 59 57 56 55 56 67 78 89 103 105 103 108 109 105 103 95 90 99 95 82 80 75 72 73 67 58
56 64 66 73 80 75 80 79 87 83 86 86 80 69 56 51 51 49 44 44 44 46 48 50 51 48 57 72 88 97 107 106 107 106 107 107 97 102 92 80 86 88 83 80 71 61 58
59 67 68 76 77 76 78 85 89 84 85 84 76 68 54 52 50 48 46 43 38 38 37 40 45 44 48 67 81 90 102 104 105 104 106 108 103 102 91 92 94 90 79 74 71 71 65
67 71 77 80 73 79 77 87 85 84 86 80 70 59 56 48 45 44 43 42 40 30 33 34 36 41 43 59 71 81 95 101 105 105 104 104 100 101 95 90 85 78 76 71 70 69 67
71 76 80 78 77 78 81 83 85 84 82 75 63 54 48 47 45 41 39 38 35 30 27 30 30 37 38 54 65 78 88 99 103 105 105 97 98 103 96 90 85 78 74 73 68 65 64
79 82 80 77 77 76 79 79 81 84 74 62 52 46 44 42 40 40 38 35 31 29 25 23 28 31 36 49 60 72 83 95 99 104 102 95 98 95 92 92 87 80 76 70 67 67 71
79 82 79 77 73 75 75 76 80 74 62 50 43 40 37 37 38 38 37 34 32 26 20 19 23 27 32 44 55 68 77 89 97 99 100 98 93 90 95 95 90 85 82 75 71 75 76
85 78 78 76 74 71 71 74 71 60 47 36 35 35 36 37 40 41 39 33 29 25 17 14 17 23 29 41 51 61 72 84 92 94 99 98 93 90 94 97 94 89 85 81 82 85 84
76 76 70 68 66 67 71 69 60 45 33 28 30 30 35 40 43 43 40 36 30 23 15 7 11 18 24 34 44 58 70 78 89 88 94 99 96 94 95 95 94 91 87 86 84 85 84
69 66 62 60 62 67 69 61 49 33 25 24 27 31 37 40 43 45 44 39 32 24 16 6 4 13 22 34 46 57 67 72 85 85 91 97 95 94 93 96 95 95 93 92 86 85 86
60 57 55 59 63 67 63 52 39 24 21 21 23 34 36 40 42 45 46 43 35 24 15 9 3 11 22 34 44 55 63 72 82 84 92 96 97 100 95 96 94 95 97 92 92 89 86
51 54 57 61 64 63 54 41 28 17 17 19 25 31 32 38 38 44 48 46 40 26 17 11 8 5 15 25 36 54 61 68 74 81 89 94 94 95 93 95 93 94 97 96 95 91 88
52 54 57 63 62 56 46 32 20 13 13 16 23 26 27 34 39 38 45 45 39 32 19 14 11 10 12 18 28 39 46 56 65 79 90 95 96 96 97 95 92 94 96 96 90 88 87

GFSGBSN_250_spd_039.txt.gz
Wind_Speed
31 33 35 36 39 41 43 45 47 49 50 51 53 54 54 55 54 54 54 55 55 53 52 51 49 49 47 42 36 40 37 37 36 33 30 30 34 41 46 47 48 49 46 47 44 36 39
32 35 37 40 42 45 47 50 52 53 55 56 57 58 58 58 58 58 58 57 57 57 56 55 55 54 54 48 42 46 45 42 42 40 38 36 31 28 28 38 44 43 46 47 47 48 44
34 36 37 40 42 45 48 50 52 55 57 59 60 62 63 63 64 63 63 61 61 61 60 59 58 58 63 51 50 52 47 48 46 45 45 41 35 32 31 36 28 27 29 33 38 41 45
40 42 44 46 48 50 51 54 56 58 59 61 62 64 65 66 67 67 67 67 67 66 64 63 63 63 67 60 55 52 53 53 54 52 51 47 42 40 36 37 30 28 29 33 31 29 26
41 43 45 48 50 52 55 58 60 63 65 67 69 70 72 73 73 74 73 72 72 72 68 67 67 68 69 67 61 60 61 59 57 57 58 52 49 49 43 40 36 32 36 37 30 27 22
42 45 47 49 51 53 56 58 60 62 65 68 71 74 75 77 80 81 82 81 81 81 77 73 71 73 72 70 70 66 67 64 62 61 57 54 54 54 50 46 43 45 47 42 33 27 25
36 39 40 43 45 48 51 55 57 59 64 69 73 77 79 80 82 84 86 87 89 90 86 84 80 80 77 75 76 73 73 70 67 62 60 61 57 52 57 59 56 53 48 43 38 28 27
31 33 35 39 43 46 47 48 52 55 57 61 68 73 78 81 84 86 90 92 92 93 94 91 90 89 87 81 84 79 76 76 71 67 69 65 53 61 64 60 59 55 53 49 45 34 32
38 40 41 41 44 47 49 49 50 55 59 61 66 70 73 73 77 84 89 93 95 97 99 98 96 94 94 91 92 89 85 81 78 75 72 67 66 66 67 64 63 58 56 56 55 46 41
36 39 43 47 49 52 51 54 57 60 63 65 67 71 70 73 77 81 85 89 91 97 98 102 103 100 97 96 97 98 95 89 87 82 80 73 72 70 70 64 64 61 63 64 62 51 47
39 41 43 45 48 49 54 55 55 57 62 65 66 71 72 73 78 82 86 87 89 91 92 93 100 103 103 103 100 102 101 100 96 91 87 73 76 72 70 67 68 67 66 66 68 58 56
45 43 44 47 48 52 56 60 62 66 70 67 70 71 68 71 74 79 85 89 90 87 84 77 88 92 102 104 105 108 106 105 102 99 93 84 87 78 73 78 73 77 73 70 70 67 55
49 50 51 51 50 53 58 62 64 69 75 75 75 72 73 73 73 76 82 85 86 85 83 79 79 86 93 95 102 110 111 108 109 105 102 96 90 85 83 81 78 78 76 72 70 61 45
53 54 54 55 54 56 58 63 71 76 83 82 76 73 75 74 73 75 74 72 73 72 74 72 73 78 89 95 100 107 111 112 114 110 106 102 101 88 84 81 77 76 76 69 65 60 49
54 56 56 56 55 60 61 64 73 80 74 75 70 74 77 74 73 69 64 60 60 62 63 65 67 70 77 88 101 108 113 115 112 115 111 105 99 99 97 87 83 78 72 73 71 66 61
56 57 56 57 58 60 64 70 77 80 79 69 70 73 75 75 70 61 56 53 50 53 57 60 62 64 67 74 86 103 112 112 111 112 115 109 100 101 96 98 97 83 81 77 68 65 60
56 56 59 61 64 69 74 78 77 78 75 71 73 72 74 70 61 53 50 50 49 50 53 57 59 59 62 67 74 81 99 109 110 110 113 112 104 104 104 106 93 87 78 76 78 72 63
56 58 60 65 66 69 75 81 78 73 71 72 72 73 70 61 55 51 46 43 43 44 48 51 54 55 57 59 65 78 98 109 110 111 112 111 108 111 109 99 95 94 88 84 74 64 62
60 64 65 69 72 74 79 75 74 68 67 70 76 69 59 53 52 49 46 43 41 40 41 43 45 47 51 54 58 72 88 100 106 111 113 111 109 114 111 105 99 98 90 80 74 74 66
70 73 72 72 72 73 71 69 64 64 68 71 66 58 49 47 45 43 47 44 44 39 38 36 39 39 44 50 53 67 78 87 98 104 109 110 110 113 110 105 101 96 91 84 77 76 69
78 79 74 73 72 65 64 60 60 63 66 62 53 45 43 42 42 40 41 42 43 41 35 30 34 34 37 45 48 61 71 76 90 100 103 108 108 109 108 106 97 91 90 86 79 71 67
81 75 71 66 61 58 54 56 61 63 56 49 41 40 37 36 39 40 40 42 41 38 34 30 29 29 33 37 44 56 62 70 85 93 99 104 108 105 102 104 97 95 95 88 83 77 75
72 65 58 53 49 49 52 57 60 55 46 39 36 33 33 38 44 47 49 48 44 37 32 25 24 23 27 31 40 50 58 66 76 85 96 104 105 102 100 105 104 103 95 89 85 80 78
55 50 45 47 47 51 56 59 54 45 38 33 32 34 36 40 46 51 56 54 47 38 30 24 19 17 20 25 33 45 53 60 71 75 88 100 103 103 104 103 107 104 97 93 86 80 78
47 47 49 49 53 55 56 55 46 35 29 29 28 30 32 41 49 54 53 55 51 40 31 22 15 10 15 22 32 41 52 60 62 70 89 102 104 108 108 105 106 106 101 95 87 83 79
48 50 53 55 57 57 53 46 36 25 25 27 28 30 33 42 47 52 53 56 52 46 31 21 10 6 14 23 32 41 51 53 56 68 87 101 103 106 107 105 104 105 100 94 91 87 81
54 55 57 58 58 53 45 38 28 20 19 25 27 31 36 41 48 53 54 58 55 47 31 19 10 2 11 21 30 42 49 51 55 68 88 101 101 107 107 103 100 101 100 96 96 88 85
58 58 61 60 52 49 39 30 22 17 17 22 23 28 32 38 46 53 54 58 54 46 33 18 7 3 11 17 27 36 38 43 53 68 87 99 101 106 105 100 96 97 98 96 92 88 85
61 61 60 54 51 43 35 27 20 17 19 20 23 24 28 34 36 46 51 56 58 51 38 21 9 5 13 18 23 26 29 38 51 68 84 94 98 105 104 101 96 92 93 93 92 89 86

GFSGBSN_250_spd_042.txt.gz
Wind_Speed
28 30 32 34 35 37 39 41 43 45 46 47 48 50 51 53 54 55 54 55 53 53 53 51 50 51 49 42 41 40 38 37 33 33 32 33 42 50 52 51 48 46 45 44 42 38 36
30 32 34 36 38 40 42 44 46 48 49 51 52 53 55 55 55 55 55 55 54 54 54 55 55 56 54 48 46 46 45 42 39 38 37 35 32 31 36 47 49 48 49 49 48 46 44
36 38 40 41 42 43 46 47 49 50 52 54 56 57 59 59 60 60 60 60 59 59 57 58 60 59 59 55 51 51 50 49 47 44 43 40 37 33 31 34 33 38 44 49 51 50 47
39 41 43 45 46 49 51 53 55 56 57 58 60 61 62 63 63 64 64 65 65 65 63 63 64 64 63 61 58 56 54 55 54 52 47 44 44 40 37 37 30 29 31 38 42 46 48
40 42 43 45 48 49 51 53 55 58 60 62 65 66 67 69 71 71 71 72 72 71 69 68 68 69 69 68 64 61 59 60 58 57 54 49 46 47 43 42 35 31 34 37 34 37 39
33 34 36 42 45 49 51 54 57 60 61 63 66 67 67 70 72 74 76 79 80 81 78 76 75 74 74 73 70 67 67 67 64 60 57 52 51 50 48 47 44 40 45 43 38 36 34
35 38 39 41 40 41 43 45 47 50 52 54 57 60 62 64 67 72 78 81 83 85 84 85 85 84 82 80 77 74 74 74 70 65 60 61 58 52 55 56 56 48 47 45 39 35 37
34 37 38 39 40 44 48 49 51 54 53 54 58 54 53 58 59 61 64 67 75 84 88 90 91 92 90 89 86 83 81 79 76 71 68 63 58 68 61 58 57 54 52 51 46 38 37
36 38 40 41 42 45 48 50 52 55 57 57 58 60 58 61 63 65 63 64 67 73 84 91 95 97 99 97 95 93 89 86 82 78 74 68 70 70 68 64 61 58 56 58 57 46 43
39 40 43 45 46 46 48 51 54 57 59 59 62 64 66 68 70 72 73 76 79 80 77 85 93 97 104 105 102 99 96 95 91 85 81 74 76 72 72 67 64 61 60 66 66 54 48
46 48 48 47 49 51 51 54 56 57 60 61 63 66 66 69 73 75 80 83 84 88 81 78 85 94 101 104 103 104 102 101 98 95 89 81 80 76 74 72 70 68 67 68 71 60 53
55 53 50 51 52 54 56 56 58 58 60 61 63 66 69 71 75 79 83 84 82 83 80 78 81 83 93 98 104 104 105 106 104 102 98 91 87 81 76 79 77 83 72 71 74 66 52
59 54 51 53 54 57 57 57 56 58 60 62 61 67 71 77 79 84 87 86 85 85 82 79 81 83 85 87 94 106 106 107 110 108 106 100 94 89 84 86 84 83 78 76 75 63 44
56 54 55 55 56 57 55 56 59 61 64 67 69 73 74 78 79 84 82 84 81 77 79 78 77 78 82 85 89 95 104 108 109 112 112 108 103 100 92 88 87 84 82 76 70 61 48
53 51 51 52 55 53 56 61 65 68 70 74 76 77 79 78 78 76 74 73 73 72 70 70 68 67 71 77 84 92 97 104 113 113 116 114 107 110 102 97 98 89 84 78 76 66 57
51 54 57 58 57 61 64 66 71 74 75 77 76 79 77 74 69 69 69 67 61 60 60 59 61 61 65 72 79 87 92 100 109 115 117 119 114 114 108 105 102 96 86 86 75 69 59
62 66 66 67 66 71 72 75 75 75 74 74 71 69 66 63 66 63 59 53 50 49 51 52 55 57 60 65 74 81 85 93 106 111 115 118 119 118 114 111 106 102 91 82 77 75 62
73 75 73 74 75 76 74 69 64 67 67 66 64 58 60 61 58 50 43 41 42 44 44 45 48 52 55 61 68 74 81 86 100 108 111 110 113 119 115 112 110 106 97 90 81 68 65
82 76 72 68 66 64 58 55 55 55 54 55 56 57 54 47 41 36 33 33 36 38 41 42 45 47 51 58 63 68 72 77 86 101 103 105 108 116 117 118 114 109 104 93 82 79 72
77 67 59 54 49 47 46 47 47 49 52 53 53 45 36 32 29 33 39 39 42 41 40 40 40 42 46 51 56 61 63 64 79 85 97 104 105 112 119 119 116 109 106 99 90 82 74
60 57 51 49 46 46 48 51 52 53 53 48 40 31 29 26 26 34 42 44 47 44 39 37 34 35 38 43 48 54 54 58 68 79 92 100 105 112 122 118 116 111 106 99 92 81 76
56 55 55 53 52 53 53 55 55 52 46 39 30 28 28 26 31 34 39 46 53 50 40 36 32 30 31 35 40 44 49 51 63 77 85 87 104 110 121 117 115 112 107 100 93 87 81
61 60 57 56 56 57 56 54 50 45 39 34 29 31 30 30 32 38 42 50 55 50 39 32 27 24 23 27 33 35 41 45 59 69 75 80 100 110 119 119 118 114 106 100 94 90 86
64 60 60 60 60 58 52 49 46 38 32 31 31 30 30 32 36 42 46 52 59 52 34 27 21 18 17 19 26 30 34 44 52 60 68 80 96 114 122 117 116 109 107 101 96 92 88
63 63 63 63 60 52 50 46 38 32 27 26 31 33 33 36 41 43 49 52 57 49 34 23 21 15 12 12 17 25 33 40 46 55 63 70 90 116 120 114 112 111 109 104 98 93 91
66 65 65 63 54 52 46 42 36 28 24 24 30 31 33 35 42 46 50 51 58 48 33 23 20 15 8 7 11 19 30 37 43 50 58 72 96 116 116 114 113 109 105 103 95 93 93
69 67 66 62 53 50 45 39 35 27 23 25 30 33 35 38 42 47 51 51 55 46 30 26 21 13 6 2 7 14 22 30 37 45 52 75 103 115 115 110 108 104 102 100 100 96 93
71 67 67 60 52 49 44 38 34 25 21 26 31 32 34 35 39 42 48 52 55 51 36 29 21 14 7 4 7 11 17 24 35 48 61 81 100 109 112 108 106 103 99 101 99 95 94
70 68 68 58 52 48 43 38 31 24 22 26 30 33 35 35 33 41 44 46 51 50 43 31 22 16 12 10 11 13 17 25 33 50 66 81 95 108 110 108 103 102 98 96 97 94 94

GFSGBSN_250_spd_045.txt.gz
Wind_Speed
26 27 29 30 31 33 35 37 39 40 41 43 45 47 48 50 52 52 53 53 54 53 53 52 52 50 46 42 41 39 39 38 34 32 32 34 44 49 49 48 45 43 40 41 38 37 35
31 33 34 35 37 38 39 41 42 44 45 47 48 49 51 52 53 53 55 54 54 54 54 54 53 51 51 48 47 44 44 43 40 38 36 35 34 34 41 46 49 50 49 47 45 44 41
38 39 41 42 44 46 47 48 49 49 50 51 52 53 54 55 55 56 58 58 57 57 56 55 54 53 53 52 51 50 48 49 47 44 43 40 38 37 35 35 38 45 53 51 49 47 46
39 40 42 43 45 47 49 51 53 55 57 59 59 59 61 61 61 60 61 61 60 60 60 60 60 59 57 56 55 54 53 52 53 51 49 46 42 40 38 37 32 32 37 44 49 50 50
35 38 40 44 46 47 48 50 52 55 57 60 62 63 66 69 69 68 68 68 67 66 65 65 64 65 64 64 62 60 59 57 56 56 53 51 49 46 45 42 37 34 34 36 39 45 49
32 34 37 40 43 46 47 46 48 52 53 57 61 63 64 67 69 71 71 73 73 73 74 73 72 71 69 69 68 68 67 64 61 58 57 54 54 51 49 47 44 44 43 39 38 38 38
33 34 35 38 39 42 45 49 53 55 56 56 57 58 58 60 63 68 71 73 74 74 75 77 78 78 78 77 76 74 72 71 69 64 61 61 58 56 61 56 55 49 48 43 37 33 29
38 38 41 43 44 44 45 47 49 52 54 56 60 63 66 67 65 65 69 69 69 68 70 76 78 80 81 83 84 83 81 78 75 73 69 64 61 68 64 59 58 55 50 51 43 38 33
48 48 48 47 49 51 52 52 54 56 57 57 59 62 64 65 66 67 67 69 68 68 68 65 71 77 78 83 86 88 88 87 84 80 77 72 71 71 70 64 61 59 58 58 54 46 41
54 53 52 54 55 55 54 55 56 58 60 60 62 64 65 66 65 65 67 70 72 75 73 74 75 79 83 84 85 88 92 93 93 90 85 79 79 75 73 69 67 62 65 67 63 54 48
56 58 60 62 58 56 56 57 58 59 62 61 63 67 66 66 67 67 67 70 75 78 79 81 80 84 88 93 90 91 92 93 99 98 94 89 87 82 77 76 74 72 69 70 68 61 54
63 66 66 58 52 50 52 54 57 58 61 63 61 64 65 65 67 70 72 75 80 81 82 84 86 88 91 94 93 101 96 93 99 104 102 99 95 88 81 85 79 81 76 77 74 67 52
61 61 57 52 54 56 57 59 59 60 61 60 58 62 64 66 66 70 72 73 75 79 85 84 88 90 92 96 99 100 99 100 104 105 108 105 102 97 92 89 86 85 82 81 78 68 51
67 63 62 61 58 59 64 65 66 66 66 65 62 65 67 68 70 72 74 75 76 78 82 85 87 88 91 92 92 96 96 98 103 108 109 111 109 104 101 95 94 91 89 84 78 69 58
69 71 76 71 67 70 73 73 72 73 73 73 73 73 75 77 77 75 77 77 77 78 78 78 78 78 79 80 80 83 86 88 93 101 106 111 113 112 109 104 101 97 87 82 84 77 66
85 72 65 59 58 56 58 61 62 61 63 66 69 68 67 66 66 65 65 65 64 67 70 71 73 70 70 70 71 74 79 84 91 95 99 111 113 118 113 112 108 104 93 93 87 80 68
85 61 52 49 48 47 47 45 47 45 43 42 43 44 46 48 48 51 53 58 62 61 61 61 62 63 62 63 66 69 69 78 86 95 98 105 114 118 120 118 116 110 109 96 88 81 72
73 55 54 57 52 49 48 47 47 47 43 42 45 46 48 49 49 48 47 47 48 49 50 52 53 54 57 59 63 66 69 72 80 88 99 104 112 117 122 123 121 119 112 100 95 81 76
68 56 59 57 56 53 51 50 51 52 51 48 46 44 42 39 36 35 35 37 39 42 47 49 50 51 55 59 63 65 65 69 74 82 92 103 107 114 123 125 125 123 116 109 96 88 82
74 54 60 61 57 56 56 55 53 51 46 42 38 34 30 26 26 30 33 36 40 44 46 49 50 50 53 57 58 59 61 64 69 76 86 96 103 110 123 127 129 125 121 115 103 95 83
84 59 65 65 59 61 61 56 48 43 40 37 31 24 21 23 26 31 36 39 41 44 47 50 49 49 49 49 51 52 55 59 64 73 79 87 94 104 117 126 129 123 120 116 103 94 86
77 64 68 65 64 65 59 50 46 40 34 30 24 20 21 27 28 33 37 41 43 46 48 52 48 42 39 39 41 47 50 53 57 63 70 79 85 98 110 123 123 119 121 115 104 96 88
74 67 71 67 69 67 57 49 45 38 32 29 24 25 28 29 32 38 42 43 43 43 49 45 38 34 32 33 36 40 40 44 48 53 61 69 80 90 102 119 119 117 117 113 105 101 93
78 71 73 70 73 67 53 48 44 37 32 28 25 27 31 34 38 41 46 47 46 44 39 33 27 24 23 24 25 27 29 32 39 42 50 65 75 81 95 112 108 106 116 115 108 100 97
83 72 75 72 74 65 52 48 44 37 30 27 28 30 34 38 40 44 46 50 50 46 33 26 20 16 13 8 7 12 18 23 31 38 47 60 68 76 87 101 104 107 116 112 109 103 100
90 74 75 75 73 62 55 47 43 36 31 27 28 30 34 37 41 44 47 50 52 48 32 24 20 13 10 5 2 5 10 13 24 33 41 50 60 69 80 91 100 95 107 109 109 106 102
94 76 76 75 72 60 55 47 43 37 31 29 27 31 34 37 41 42 46 48 50 44 35 28 21 18 13 8 8 8 9 12 22 32 39 46 54 66 75 88 95 95 105 109 113 106 103
85 78 77 76 70 59 53 47 42 36 31 30 29 30 30 32 35 39 44 46 47 48 39 29 20 19 15 13 14 14 13 12 17 27 38 47 55 63 75 89 96 96 105 110 107 108 104
83 79 78 77 67 59 52 47 43 38 30 28 29 29 29 29 35 38 40 42 42 44 41 32 26 20 21 22 24 22 20 22 24 31 39 45 55 64 76 93 95 95 102 106 107 108 106

GFSGBSN_250_spd_048.txt.gz
Wind_Speed
29 30 31 32 33 33 34 36 37 39 40 42 43 45 47 48 48 49 49 48 48 47 47 46 44 44 42 41 40 39 39 38 35 35 36 42 48 50 49 46 44 41 40 38 35 33 33
36 38 38 40 41 42 42 42 43 43 44 44 45 46 47 47 49 51 51 52 52 52 52 51 50 49 49 48 46 45 44 44 41 41 38 37 41 42 49 50 50 48 47 46 41 40 38
39 41 43 45 46 48 49 50 51 52 52 53 52 53 53 52 52 53 54 54 55 55 55 55 55 53 53 53 51 49 48 50 48 46 46 41 38 38 41 43 50 54 53 51 48 44 43
35 38 41 45 47 49 51 53 55 57 59 60 60 60 62 61 60 58 58 57 57 58 58 59 58 58 57 55 54 53 51 52 53 51 49 48 44 41 40 39 38 42 51 55 54 52 49
27 30 33 36 41 46 50 53 56 58 60 61 62 61 64 66 68 66 66 65 64 63 62 62 62 62 61 60 59 57 56 54 54 56 54 53 51 48 46 43 39 40 44 48 53 54 53
32 35 37 39 41 42 43 46 50 56 59 61 63 63 64 66 68 69 69 70 71 71 71 69 69 67 66 65 65 63 62 60 57 56 57 57 57 55 54 50 46 44 47 46 49 52 55
41 44 45 46 47 48 51 52 52 53 54 59 64 65 65 65 66 69 70 71 71 73 74 74 75 75 74 73 71 70 68 67 65 62 60 60 58 60 63 58 53 48 46 46 41 37 38
47 49 51 54 55 55 53 56 58 60 60 60 61 64 64 66 70 72 72 70 69 70 73 75 76 76 77 78 78 78 76 73 71 69 68 64 62 66 66 63 59 54 50 51 48 40 34
53 54 57 58 56 55 57 58 61 63 63 66 66 68 68 67 69 70 72 75 77 76 74 73 74 74 75 77 80 81 82 83 80 76 74 71 70 69 68 68 66 62 56 58 56 47 40
57 58 63 61 63 61 59 58 56 58 62 63 66 71 70 69 71 72 73 74 74 74 78 78 80 79 79 79 76 79 84 86 87 86 84 79 76 76 73 70 70 68 65 63 61 55 48
66 65 68 67 64 65 63 62 60 55 55 57 61 67 71 72 72 73 74 76 76 76 78 74 78 83 83 83 84 84 83 85 88 89 89 89 86 82 79 77 75 74 74 71 67 61 54
71 74 76 71 61 59 60 64 64 64 62 59 58 62 63 66 69 73 76 77 79 78 78 78 80 84 86 87 88 88 87 86 86 89 91 94 92 90 87 84 82 80 79 77 75 68 57
75 81 86 68 55 50 47 50 56 62 66 67 67 68 69 68 68 70 71 72 74 76 77 79 83 86 89 90 92 93 95 93 93 92 91 94 94 97 96 92 89 87 83 81 81 74 56
84 84 82 56 43 43 43 43 41 42 45 50 60 66 70 74 74 74 73 71 72 73 74 76 79 83 87 93 95 96 98 101 101 98 96 96 95 99 98 99 97 93 89 86 83 78 62
87 91 73 52 42 46 46 44 42 41 40 36 36 39 46 54 61 66 72 74 76 77 78 80 82 84 87 91 94 99 102 105 105 105 107 101 104 98 99 101 104 100 96 84 87 86 74
90 91 72 49 45 50 51 48 44 42 41 39 39 39 40 40 42 47 53 58 65 69 72 75 77 79 84 89 94 96 99 98 100 103 107 105 111 107 100 104 104 109 99 100 95 89 80
96 87 87 58 51 54 51 47 47 45 43 43 43 43 42 42 41 42 43 46 49 56 60 63 67 69 74 77 81 85 87 91 96 99 100 98 104 105 106 108 106 111 117 110 98 91 84
96 94 93 65 59 59 53 53 51 46 39 39 39 39 38 38 37 38 42 46 49 52 56 60 63 65 67 69 71 75 77 80 84 89 94 95 100 108 110 108 115 110 118 113 106 95 87
99 94 99 71 65 61 58 55 49 41 38 35 35 35 35 33 34 35 36 39 42 45 49 55 58 61 64 64 63 65 68 70 75 78 81 87 93 100 106 113 120 120 120 122 114 103 93
100 100 99 82 69 63 63 56 45 38 36 34 30 28 27 28 29 28 30 33 37 43 49 54 59 62 64 62 62 62 67 68 67 70 75 78 85 94 103 112 122 120 123 125 119 108 100
101 101 103 90 75 69 67 57 46 39 35 31 28 25 25 24 27 28 30 34 39 43 48 54 58 58 56 53 54 56 59 63 63 63 69 73 78 90 102 110 108 115 124 125 119 110 101
101 105 101 97 79 74 69 57 48 38 34 30 26 25 24 26 27 29 33 36 39 42 49 48 49 47 45 43 42 46 48 49 52 56 60 66 73 83 94 107 105 110 120 126 121 113 107
100 104 101 106 81 76 70 57 48 38 34 30 26 25 27 28 28 30 33 35 37 44 48 38 37 34 32 31 32 34 38 42 44 47 52 57 67 73 84 98 106 109 112 121 120 115 110
100 105 103 101 82 78 70 56 48 40 34 30 28 27 29 29 30 33 32 35 37 40 37 28 27 25 24 24 26 29 31 34 35 40 46 51 61 65 73 92 97 95 105 116 119 117 113
101 105 103 101 82 79 67 58 47 40 33 29 26 27 29 29 31 32 34 36 38 35 30 20 18 16 15 16 17 21 24 25 29 32 38 45 55 60 69 88 85 97 100 111 118 114 114
100 103 106 96 81 79 66 58 46 38 33 30 27 29 29 30 32 32 36 36 40 37 34 27 24 15 11 11 10 13 15 17 20 26 30 38 46 55 68 70 71 88 93 100 114 115 115
102 104 104 94 85 78 65 57 46 38 33 29 28 30 29 30 34 36 38 36 36 40 32 33 22 12 7 7 8 8 9 13 15 19 23 30 40 49 53 57 66 77 89 94 104 110 113
103 102 102 92 84 73 63 54 47 38 34 31 29 29 27 29 33 34 36 34 33 36 41 33 23 13 7 3 2 7 8 8 11 13 19 26 33 42 50 59 66 75 82 90 98 106 115
102 101 100 89 81 66 60 53 45 40 34 33 30 26 26 27 28 30 34 34 28 28 34 30 30 16 12 9 6 8 14 11 16 17 21 28 33 38 44 52 61 69 71 86 98 108 116

GFSGBSN_250_spd_051.txt.gz
Wind_Speed
33 34 35 36 37 38 39 39 40 41 42 43 44 44 45 47 47 47 47 47 47 49 48 47 46 45 44 43 43 41 38 36 39 37 44 47 49 50 47 45 45 43 41 38 35 32 29
39 40 42 43 44 45 46 47 48 48 48 47 48 48 48 49 49 50 51 51 51 52 52 51 49 47 46 44 45 45 43 42 40 42 40 43 46 49 52 51 49 47 46 44 40 36 34
36 38 40 42 44 46 49 51 54 55 56 56 56 56 55 54 53 53 53 53 54 55 55 55 54 53 52 51 49 49 48 47 45 45 46 43 44 47 49 51 55 54 51 49 45 43 39
35 38 40 42 44 46 49 52 55 57 58 60 62 63 64 63 62 61 59 58 58 57 58 58 59 58 57 56 55 55 53 53 51 50 49 49 47 46 47 46 51 55 57 56 50 46 43
35 38 40 42 44 46 49 51 53 56 59 62 65 65 67 67 68 68 67 66 65 64 62 61 61 62 61 61 59 59 58 56 56 56 54 54 53 52 49 47 44 46 55 58 55 52 48
36 40 44 47 52 56 56 58 60 60 62 62 65 66 68 70 71 70 70 70 72 71 70 69 68 66 64 64 64 63 62 61 59 57 57 57 57 57 54 52 50 47 52 55 56 56 53
42 45 45 45 50 49 53 57 63 69 70 70 70 69 69 71 73 72 72 72 73 73 74 75 74 73 73 70 68 67 66 66 64 62 60 61 61 60 63 59 56 50 50 51 48 47 45
51 53 57 57 57 60 62 60 58 61 66 73 77 76 76 75 74 75 76 75 74 74 75 76 76 77 78 78 76 74 72 69 68 68 67 62 62 66 67 64 61 56 54 52 49 44 40
57 59 63 65 63 66 70 69 63 61 60 64 71 77 79 79 79 80 78 78 79 78 77 76 75 75 79 80 80 81 80 77 75 72 70 68 71 69 68 67 66 62 60 58 54 48 43
61 67 73 75 75 76 63 54 54 57 61 63 65 70 72 75 78 82 82 82 81 80 81 79 81 79 78 78 81 82 83 84 83 81 78 74 75 72 71 69 71 69 67 62 59 54 49
67 76 78 82 82 67 48 41 40 43 50 57 63 66 68 69 72 76 80 83 85 86 86 78 78 80 82 84 79 80 82 85 86 85 84 83 82 78 75 75 74 72 73 68 64 61 56
71 77 80 84 84 64 46 37 37 37 41 43 47 55 63 67 69 70 75 79 82 85 92 83 83 84 84 83 83 86 86 84 83 87 88 90 88 85 83 80 79 78 75 77 70 68 57
73 79 82 90 84 65 44 41 43 43 42 42 43 44 46 57 65 70 70 74 78 82 83 81 86 87 86 86 87 86 86 89 91 89 87 90 91 92 90 89 85 83 80 77 80 75 61
75 81 85 89 84 69 45 48 47 43 41 40 39 40 42 43 48 56 68 72 76 79 78 77 82 84 87 86 87 89 91 91 92 92 94 92 92 91 93 91 91 88 86 83 79 78 65
77 84 87 87 88 82 52 53 48 45 43 43 42 42 41 40 41 43 47 58 70 76 80 80 80 84 84 82 88 89 91 93 91 93 95 98 99 93 90 90 94 92 96 84 84 83 75
79 84 89 90 96 90 61 60 55 52 47 42 40 41 41 41 42 43 44 46 46 51 61 71 80 84 85 85 86 86 92 92 92 96 97 103 99 98 96 95 94 98 92 96 92 88 82
84 87 90 94 97 98 68 64 59 51 41 35 31 30 33 35 38 42 44 47 49 50 50 54 62 72 81 88 89 92 91 92 95 97 101 105 103 103 102 96 100 96 96 101 101 95 88
85 89 91 97 100 100 73 69 64 48 37 31 26 26 27 29 32 33 35 39 43 47 53 56 59 62 67 76 84 90 94 95 94 97 102 104 103 107 97 104 108 104 103 104 106 98 91
84 90 93 98 102 102 79 75 66 49 36 30 26 24 23 23 25 27 29 31 33 36 40 46 52 58 65 71 75 77 82 86 84 92 100 97 96 101 102 108 108 111 104 105 103 104 102
87 90 94 98 104 106 85 79 64 49 39 32 27 25 23 22 24 25 24 28 31 37 42 48 54 59 63 67 69 72 77 78 78 84 84 85 92 99 100 108 115 116 113 115 113 112 109
90 91 96 100 106 108 88 80 63 50 38 33 28 24 22 23 24 24 25 26 31 36 42 46 54 57 56 58 59 60 63 65 68 75 75 82 85 90 95 104 106 111 111 113 111 105 108
90 94 97 101 106 109 89 81 62 49 39 33 28 22 21 22 24 25 27 29 32 33 35 41 49 50 42 48 52 50 50 52 56 64 70 77 77 85 88 96 102 105 110 117 120 114 108
90 94 98 102 105 109 90 80 62 50 38 32 28 22 22 24 24 25 28 27 26 32 33 40 42 40 37 33 34 37 41 45 52 57 65 70 73 78 78 90 96 102 108 114 118 119 116
89 92 98 101 106 109 92 81 62 53 41 32 28 23 24 26 26 25 28 28 24 28 27 34 32 30 30 30 30 30 32 35 41 48 55 62 70 76 75 85 92 87 101 113 116 119 120
87 92 98 101 104 109 90 81 64 54 45 36 32 27 27 26 25 25 28 28 24 26 26 29 26 22 24 24 24 25 26 27 32 38 45 52 58 63 70 78 75 82 93 100 112 111 115
86 91 99 102 106 108 88 80 66 56 48 39 35 33 29 25 26 26 25 24 22 22 26 31 30 26 24 23 20 20 20 22 25 29 35 42 48 52 64 67 68 70 88 93 99 104 110
87 92 97 102 105 105 83 78 66 56 46 40 35 32 29 27 27 25 22 20 18 20 22 29 25 23 21 19 16 13 16 16 18 20 25 30 37 45 53 56 62 75 84 78 85 88 110
86 93 97 101 102 101 83 74 65 53 45 40 34 31 28 27 27 26 23 21 17 15 20 27 23 22 22 15 10 8 6 6 10 13 16 20 25 34 40 49 60 65 68 69 78 94 103
85 92 96 100 100 88 81 70 65 52 44 39 32 30 28 26 26 27 25 22 17 13 18 23 23 18 17 16 9 1 7 6 7 7 8 12 19 24 32 43 49 55 59 65 70 88 96

GFSGBSN_250_spd_054.txt.gz
Wind_Speed
35 37 40 42 43 44 45 45 46 46 47 47 48 48 48 48 47 46 46 46 47 47 47 47 48 48 46 45 45 42 40 39 39 40 45 50 50 48 46 44 42 41 37 36 32 27 28
37 39 41 43 45 48 50 52 53 54 54 54 53 52 52 51 51 51 51 51 51 51 50 50 51 50 50 49 48 47 47 44 43 43 40 45 49 53 51 49 47 44 42 41 35 33 27
35 38 40 43 45 47 49 51 53 55 58 60 60 61 60 58 57 55 54 55 56 56 55 55 54 54 52 53 51 50 49 49 49 46 45 45 47 48 53 54 53 50 47 44 42 39 34
37 39 42 44 45 47 52 55 56 57 58 61 63 64 66 67 65 64 62 60 59 59 59 59 59 58 57 56 55 54 54 52 53 52 49 47 49 49 49 49 55 55 52 49 45 43 39
28 32 35 36 40 42 45 51 56 60 64 66 66 65 67 69 70 71 70 69 67 65 63 62 61 61 62 61 60 59 57 55 57 56 54 52 51 52 49 48 48 52 57 56 50 47 42
35 38 46 45 47 48 48 52 50 56 60 63 71 72 71 70 70 72 74 74 74 73 72 70 67 65 62 64 65 63 63 62 61 60 59 58 56 55 54 51 50 51 57 57 55 53 47
43 48 53 56 61 64 59 61 57 61 65 63 65 67 73 76 76 74 73 75 77 75 77 77 75 73 69 67 66 67 67 67 65 64 64 65 61 58 59 60 57 52 52 54 57 56 53
46 50 55 57 64 69 71 70 59 52 60 76 68 69 68 72 77 80 79 78 77 75 79 79 78 78 77 76 73 70 69 69 69 69 69 66 64 67 65 62 61 57 54 54 54 54 54
45 49 58 58 68 73 77 76 56 43 44 54 65 71 73 72 75 79 82 85 82 80 78 79 80 81 78 80 79 77 77 73 71 71 71 69 70 70 68 67 64 63 61 60 57 53 51
53 52 59 63 69 72 82 78 58 40 39 41 43 51 60 69 75 76 78 83 84 85 85 80 80 77 82 83 82 78 81 80 78 76 74 72 75 73 70 68 67 66 67 65 61 55 51
60 57 59 66 71 76 80 79 56 39 41 40 41 41 43 47 61 69 75 78 80 84 88 82 79 82 79 84 79 82 82 82 82 82 82 78 77 75 73 73 71 69 72 70 67 62 54
70 57 60 67 74 80 86 84 64 41 43 43 42 42 44 43 46 50 64 73 74 79 89 82 81 84 84 84 80 81 87 84 84 83 83 84 83 80 77 77 74 75 73 72 70 68 56
71 75 65 71 76 82 88 88 74 41 44 42 40 38 39 42 44 45 48 55 69 76 80 77 78 80 87 87 85 85 84 87 87 85 84 85 87 86 85 81 79 77 77 74 73 73 59
80 82 72 75 81 84 89 91 76 49 48 40 37 36 39 39 40 43 45 47 51 71 80 69 71 78 85 87 86 85 88 87 88 89 90 87 86 87 88 86 88 84 82 79 74 71 65
81 83 78 79 84 89 92 93 78 59 49 38 30 29 33 39 41 43 45 47 48 51 60 69 77 77 79 82 86 87 90 91 92 89 87 89 92 88 86 90 90 89 91 81 80 76 72
83 82 79 81 86 90 95 92 82 65 49 38 31 28 27 31 38 42 45 48 48 49 50 54 68 79 81 83 80 86 90 93 94 89 88 93 91 94 92 89 87 92 85 89 86 82 75
86 79 80 84 88 92 95 94 89 69 51 39 30 26 23 25 29 34 39 44 48 51 52 52 54 59 73 84 83 88 88 91 93 90 94 98 94 95 97 92 91 88 88 95 94 89 81
85 79 78 87 88 94 96 97 87 69 54 40 27 23 22 23 26 28 31 34 37 43 47 51 55 57 59 63 74 87 93 94 88 90 91 97 96 97 94 91 94 95 96 97 99 97 89
86 83 80 86 90 96 97 97 90 70 54 43 31 23 21 20 19 21 22 24 28 34 40 47 54 59 64 67 69 70 79 91 94 95 94 99 94 94 98 96 97 97 100 102 100 96 95
86 85 82 85 93 97 97 98 97 72 55 44 32 25 20 18 18 19 20 22 24 29 34 41 49 55 61 65 69 74 74 77 76 85 96 100 100 96 98 101 110 109 109 110 105 99 98
84 80 82 87 94 98 97 99 95 73 54 43 34 26 21 19 21 23 23 24 28 33 38 43 45 47 53 56 59 64 69 72 73 74 78 91 99 97 98 104 104 100 104 105 104 100 101
79 80 81 86 94 98 98 99 93 75 56 44 34 28 24 22 23 23 25 28 31 34 35 38 39 44 46 45 47 51 53 59 66 71 76 82 85 92 99 104 101 101 104 110 110 105 106
74 77 80 85 92 97 96 100 85 74 59 44 35 29 25 23 23 25 26 29 31 31 30 34 37 40 42 40 37 36 38 46 52 57 65 76 81 87 85 95 105 104 103 106 106 107 111
69 78 79 85 92 96 95 100 76 70 60 43 33 31 25 23 24 23 26 30 28 28 27 28 32 33 33 31 28 27 27 31 39 45 53 63 71 80 82 90 97 91 99 106 108 107 110
68 76 79 85 92 95 95 101 77 68 55 41 34 30 26 25 24 25 28 27 27 24 22 22 24 24 20 18 21 21 21 24 28 36 43 51 63 74 74 83 84 87 93 103 112 110 115
68 74 79 85 93 94 95 101 78 67 54 40 35 30 25 24 23 24 23 22 20 18 15 18 23 20 20 20 20 19 19 21 22 25 33 39 48 56 63 72 74 76 85 97 102 104 109
68 71 80 85 90 93 96 95 77 65 53 43 37 29 24 20 18 17 17 15 15 16 11 15 21 15 18 16 20 14 16 18 19 21 22 27 37 43 52 59 61 74 85 90 94 92 108
65 72 80 87 89 91 98 83 77 66 54 45 37 29 23 21 18 17 13 11 10 10 8 12 19 16 15 14 16 11 17 15 16 18 18 22 25 35 44 52 61 67 74 76 80 79 100
63 72 80 85 91 88 97 77 72 60 51 43 36 28 21 19 19 20 17 13 10 8 7 9 14 15 15 13 11 9 10 7 6 10 13 15 20 26 35 46 51 57 64 66 69 76 95

GFSGBSN_250_spd_057.txt.gz
Wind_Speed
35 38 40 42 44 47 49 51 51 53 54 54 53 53 53 51 50 49 49 49 46 45 47 50 49 50 49 48 49 43 41 42 42 44 48 53 52 49 46 42 42 41 38 37 36 36 33
32 35 38 40 42 44 46 48 51 55 58 59 59 60 60 58 57 56 54 52 51 50 49 50 53 52 52 53 55 51 48 45 45 45 48 50 53 54 51 49 46 43 40 36 35 36 36
32 32 29 29 33 37 41 47 51 56 58 59 61 62 64 65 64 63 61 59 56 54 55 53 54 55 54 57 55 56 54 51 49 48 48 47 51 54 55 54 50 47 42 40 38 36 37
21 23 25 27 30 31 33 38 43 49 56 63 67 65 67 67 67 68 68 66 63 61 59 59 57 57 58 58 58 59 60 56 54 53 52 52 50 53 54 55 55 53 49 45 41 40 39
32 33 33 35 37 42 45 47 48 46 53 59 63 69 71 72 70 70 71 72 71 69 65 63 62 62 61 60 60 61 61 60 59 58 57 54 54 54 52 52 55 56 55 53 48 44 41
39 38 39 40 41 41 46 51 54 60 58 56 67 75 76 76 76 75 74 74 75 75 74 71 67 66 65 65 66 64 63 63 63 60 60 59 57 55 54 50 54 59 60 57 53 50 45
41 39 44 45 42 42 49 56 64 71 65 57 67 69 77 76 76 79 78 77 76 75 78 78 76 72 68 70 69 69 67 66 65 63 63 63 61 59 60 58 57 55 59 57 57 54 50
49 49 45 52 50 46 53 59 65 75 71 57 47 54 64 70 78 75 80 78 80 77 78 78 80 80 77 77 72 71 70 70 69 67 67 64 62 66 65 62 58 56 55 56 59 58 56
51 56 60 63 61 57 58 64 69 71 73 55 43 42 50 57 69 80 85 85 81 80 82 80 79 81 80 82 81 76 74 71 71 71 71 68 70 70 68 67 64 59 58 59 58 56 53
58 62 66 67 71 63 63 69 74 72 76 56 40 41 43 43 49 62 82 87 84 82 81 82 83 79 78 86 85 81 84 79 75 73 74 73 76 74 72 69 68 64 63 62 63 57 51
64 68 71 72 70 68 68 72 79 76 79 51 42 42 42 44 43 46 54 71 85 83 83 81 80 85 82 83 82 83 84 85 83 82 78 75 77 76 75 74 73 70 69 67 64 59 54
64 70 72 75 76 63 68 75 85 79 85 53 45 44 43 43 42 44 47 50 60 80 87 85 85 85 85 85 83 80 84 88 88 86 85 81 80 78 76 77 76 76 73 71 68 65 54
73 74 74 75 79 70 72 76 88 83 85 55 45 36 36 39 40 41 44 49 52 63 76 83 82 85 86 87 84 85 84 83 85 87 88 90 88 85 82 79 78 76 76 74 71 69 55
75 78 76 81 78 69 74 82 89 85 84 57 43 33 29 33 37 41 43 46 54 55 52 59 73 78 83 85 87 87 87 87 86 87 89 88 89 89 87 84 82 81 81 78 73 64 63
84 81 83 81 71 68 76 83 90 86 85 58 42 31 26 24 30 37 43 46 46 43 45 49 57 73 84 83 86 88 89 89 94 89 86 85 84 91 88 88 89 86 83 78 79 74 75
89 80 76 76 67 71 79 85 90 87 83 60 43 30 23 20 22 26 35 43 46 45 43 45 51 56 68 79 82 82 86 93 96 87 86 85 85 89 91 91 90 93 86 87 82 75 74
83 82 79 64 69 75 81 86 91 87 83 63 44 33 23 19 18 21 24 33 41 45 46 46 49 52 56 64 77 81 84 87 88 86 87 88 88 93 92 91 91 91 92 91 88 80 74
86 82 72 63 70 75 82 88 90 88 82 62 45 33 23 19 17 19 23 27 33 38 44 49 51 54 56 58 63 77 87 87 87 88 87 90 90 95 92 90 89 89 94 94 95 89 83
83 80 64 64 73 76 82 88 88 88 77 59 45 32 23 18 16 18 20 24 29 34 40 44 49 56 59 62 63 64 75 86 88 88 86 88 94 94 96 96 99 93 93 96 95 95 89
83 63 61 69 74 78 84 90 87 92 69 57 43 28 21 17 17 17 20 23 25 30 35 41 47 52 57 62 67 69 70 72 77 86 92 91 94 94 97 100 102 98 98 100 104 99 94
62 57 58 68 73 78 86 89 89 96 68 53 41 25 18 17 17 20 21 23 26 29 33 39 43 48 53 58 61 63 67 69 73 74 81 93 97 97 96 102 103 99 100 100 99 97 93
59 58 60 74 72 80 86 87 92 92 68 52 36 23 17 17 19 20 24 27 30 32 35 39 40 40 44 47 50 53 61 66 71 72 76 82 85 97 96 101 103 99 102 101 99 94 94
58 59 61 70 73 82 87 91 97 81 69 50 34 25 20 18 19 21 24 27 28 32 32 33 35 34 36 37 37 39 44 51 60 66 67 76 83 88 90 101 105 101 97 100 98 101 99
55 59 64 75 76 84 84 93 97 76 64 47 37 27 22 18 18 21 23 25 30 31 29 29 28 30 31 30 34 33 34 39 45 54 59 62 72 85 88 97 99 95 103 102 106 102 102
53 57 70 71 78 82 89 92 94 75 60 45 37 29 23 18 18 20 23 25 26 26 24 23 23 24 26 26 28 29 28 28 35 39 45 50 58 70 76 91 86 89 95 102 105 103 107
52 57 71 72 78 82 89 94 87 75 56 43 37 29 21 16 16 18 19 21 22 23 23 18 17 19 21 17 18 18 18 17 22 26 34 41 48 53 61 74 76 84 93 102 110 105 111
50 59 69 72 78 86 90 94 80 72 53 41 36 28 22 18 16 15 16 19 20 21 18 16 15 16 16 11 12 12 17 12 14 14 20 29 40 44 52 62 67 75 86 92 95 96 108
51 61 67 74 78 84 90 91 78 69 55 43 37 29 22 18 16 13 12 15 15 16 15 13 14 16 14 10 9 9 15 12 10 12 18 21 27 37 43 51 61 69 80 81 84 90 103
52 64 67 71 80 84 90 86 77 67 58 46 37 32 27 23 17 16 14 13 12 10 11 13 13 14 14 9 8 9 13 15 12 14 17 19 24 31 35 47 54 58 62 68 76 82 95

GFSGBSN_250_spd_060.txt.gz
Wind_Speed
30 31 34 37 38 41 44 47 49 52 53 55 57 57 56 55 55 54 52 52 51 49 46 45 46 51 52 52 51 46 44 44 47 51 52 53 53 49 47 45 46 45 41 38 35 36 30
26 29 32 34 37 41 43 46 48 50 52 55 58 61 62 63 62 62 60 58 55 53 52 49 49 52 56 58 55 52 50 49 47 46 53 57 55 52 50 48 47 45 45 45 39 39 36
27 30 32 33 32 35 41 45 47 49 49 52 56 61 66 67 67 68 67 66 62 59 56 55 54 54 59 61 60 58 57 54 52 50 50 54 57 59 56 55 50 47 47 48 42 44 40
33 35 34 36 37 39 42 47 48 50 50 51 49 54 65 70 74 73 72 72 70 66 63 60 59 59 59 62 64 62 63 61 58 56 53 52 53 57 59 58 56 53 51 50 47 44 42
37 38 40 45 47 49 54 54 52 46 48 48 48 58 63 66 73 78 76 75 75 73 70 67 65 63 64 62 66 66 66 66 64 62 58 56 54 55 57 58 61 61 58 53 49 46 46
46 47 48 49 52 55 52 52 50 43 41 50 56 57 57 63 74 78 76 76 78 77 77 75 72 70 67 68 67 69 69 69 70 68 64 61 58 57 55 56 62 64 61 57 53 49 46
46 50 51 51 57 57 57 57 58 50 52 61 64 65 63 58 57 63 71 76 74 80 81 80 79 75 73 72 72 71 70 72 70 69 69 66 63 60 62 60 62 62 61 63 60 56 50
48 52 53 56 61 61 64 61 54 46 55 60 71 65 68 53 50 57 67 75 75 75 80 81 84 82 80 79 75 75 73 72 71 72 72 69 68 70 66 64 61 58 60 63 63 61 56
62 60 58 61 63 62 60 55 48 49 62 70 76 67 63 50 46 51 60 72 74 76 78 82 85 86 86 83 81 78 77 76 75 73 72 72 75 72 70 67 64 62 60 64 66 62 59
73 66 63 67 65 62 58 50 48 55 66 71 76 71 53 44 46 45 54 60 75 80 81 79 86 87 85 91 89 85 81 80 79 78 77 73 76 74 71 71 70 64 66 66 67 62 58
74 69 67 66 63 57 51 52 56 60 69 76 70 65 46 42 42 45 45 53 59 73 83 81 83 84 89 91 89 89 89 86 83 82 78 77 77 75 73 74 73 74 71 69 68 61 58
80 68 66 61 57 56 48 53 59 68 71 81 71 59 46 39 38 40 43 47 53 59 68 85 89 88 88 90 90 90 93 94 91 87 82 81 82 79 77 76 74 77 74 74 71 64 58
86 73 71 66 60 48 48 59 61 72 77 82 76 54 45 35 32 33 42 48 51 53 54 64 80 90 89 88 90 93 91 94 95 94 90 87 83 81 82 81 79 78 76 76 73 67 60
85 77 76 71 56 46 56 65 67 73 81 79 75 51 41 32 27 28 33 41 43 47 51 53 56 71 88 88 87 89 95 95 96 95 95 92 89 85 81 80 81 81 80 78 75 71 69
86 85 71 64 46 48 55 62 70 77 85 79 71 51 37 29 23 23 26 35 43 45 47 50 51 57 70 86 90 90 91 95 93 93 93 91 92 92 88 84 82 81 81 83 81 78 75
87 86 69 54 44 55 58 66 71 79 82 82 58 49 36 26 19 20 23 28 37 44 44 47 56 59 61 76 89 95 92 90 89 92 89 87 88 95 96 92 91 90 86 86 83 81 78
90 87 71 54 46 62 67 65 73 82 81 79 58 46 33 22 17 18 20 24 31 40 45 47 49 53 55 61 73 87 93 94 92 92 91 90 89 89 95 95 97 95 94 90 86 81 79
86 84 65 50 47 65 69 70 77 80 86 67 58 41 31 20 15 16 19 22 26 34 43 48 51 53 56 60 64 68 80 88 91 90 90 93 96 99 94 96 98 100 100 96 91 85 83
87 82 62 47 55 67 65 73 76 85 87 61 51 39 25 19 14 16 18 21 26 29 34 42 50 55 56 57 59 63 67 73 83 90 90 92 94 98 99 101 101 102 104 100 97 94 89
90 80 53 48 62 64 71 75 82 84 72 60 48 35 23 16 15 16 19 19 22 28 32 39 45 50 54 58 62 62 64 67 72 82 91 93 93 98 103 106 102 100 101 102 100 96 94
85 69 57 54 64 69 74 78 85 89 65 57 43 31 21 13 15 17 18 21 22 25 29 34 39 45 50 54 58 62 64 66 70 73 82 93 96 98 103 109 107 104 103 102 101 101 97
76 58 54 59 66 70 73 82 87 82 67 51 39 28 21 17 15 17 18 19 23 26 27 31 36 40 44 50 54 55 59 64 71 73 75 79 91 99 102 108 111 108 105 103 99 104 104
79 61 52 59 66 72 77 84 91 72 62 48 33 27 22 17 17 18 19 20 22 25 29 32 34 32 38 41 45 49 54 59 63 66 73 78 81 87 99 104 109 107 106 109 106 103 107
69 57 54 61 68 72 81 83 92 70 58 42 33 27 21 17 15 17 20 21 24 26 29 29 28 29 34 33 33 37 43 48 53 57 61 70 80 87 89 98 102 101 106 111 109 113 113
69 57 56 63 71 78 82 89 90 70 57 43 36 29 23 16 13 14 17 20 21 21 21 22 23 25 24 24 25 27 34 38 42 47 54 58 65 75 85 93 94 97 107 110 112 114 115
66 55 58 66 73 77 82 88 89 72 60 49 37 32 26 20 16 14 15 17 19 20 15 14 15 17 16 17 22 26 30 31 31 37 43 50 56 58 68 81 89 92 95 101 109 108 110
62 55 56 66 73 77 84 88 86 74 63 55 42 34 29 24 21 19 19 18 18 17 14 11 10 9 12 16 19 22 25 26 24 29 29 38 45 50 56 64 75 82 90 94 94 97 109
55 56 58 66 71 73 82 86 82 71 59 55 50 39 33 26 21 19 18 19 21 18 16 14 10 10 12 15 17 19 20 19 16 19 23 26 32 38 48 54 58 67 76 82 84 86 98
53 55 59 65 69 70 77 82 76 67 54 50 48 43 36 31 26 22 17 16 20 19 16 14 12 13 16 17 17 18 18 19 18 16 19 19 23 29 37 45 47 54 63 69 74 78 93

GFSGBSN_250_spd_063.txt.gz
Wind_Speed
28 30 30 29 28 29 32 33 33 35 36 39 43 47 53 58 57 57 56 54 52 52 51 49 49 49 48 51 52 50 47 48 57 56 56 55 55 51 53 49 48 44 39 38 39 38 36
32 30 31 29 33 37 33 29 34 36 36 36 38 43 48 52 57 61 62 61 59 57 56 56 54 52 54 53 56 55 53 49 53 58 60 57 56 54 51 51 51 46 43 43 40 42 38
32 29 31 33 33 31 35 33 35 36 35 37 37 43 46 51 54 60 62 65 66 65 62 60 60 59 56 56 58 60 60 58 55 55 62 59 58 58 58 57 50 51 49 48 45 44 41
39 42 44 42 40 36 38 37 41 44 37 42 41 43 46 53 56 59 60 64 69 71 70 67 65 65 62 61 62 64 65 64 61 60 57 57 62 62 62 61 56 55 52 49 50 49 44
41 46 49 45 41 41 39 40 43 44 46 46 41 38 40 40 46 51 58 63 67 71 74 75 73 70 67 66 65 66 69 69 67 65 58 55 57 61 63 65 64 62 58 53 51 50 46
52 56 53 52 42 43 43 42 45 45 47 43 39 36 39 46 57 59 58 60 67 67 73 80 79 77 72 70 69 68 72 73 72 68 63 61 60 60 63 67 68 66 62 56 52 50 47
61 62 59 53 44 46 44 47 44 46 41 41 35 41 48 56 60 62 59 60 64 67 69 76 83 82 80 77 74 73 72 75 74 72 70 67 65 64 64 66 68 68 67 63 60 57 52
66 69 69 61 51 51 49 44 48 46 42 38 38 43 52 57 66 65 61 58 56 59 69 74 82 86 86 84 81 77 75 74 77 76 74 72 70 70 68 66 64 65 69 70 65 61 57
73 73 74 65 58 59 54 45 45 49 44 42 48 56 62 70 71 65 58 56 53 60 69 76 80 87 91 89 86 82 79 77 77 78 77 74 78 76 71 68 66 62 69 72 69 64 63
77 78 72 63 67 64 57 46 46 45 40 45 53 63 68 72 65 60 52 49 51 58 64 73 83 86 90 92 91 89 85 82 80 79 80 79 81 79 76 72 69 65 73 72 71 66 64
82 81 73 69 64 62 52 43 41 40 45 54 61 67 71 69 58 47 44 45 47 53 58 70 82 85 91 95 92 92 91 88 85 82 79 80 82 80 78 80 74 76 74 73 68 64 63
86 84 72 71 66 60 46 42 42 41 48 59 63 71 67 59 43 39 36 39 44 50 55 62 77 87 89 91 93 94 94 93 90 86 83 82 82 82 81 80 79 80 75 75 69 66 61
86 79 74 74 66 49 44 34 44 46 55 62 68 66 62 46 38 31 29 33 40 48 50 54 63 82 85 90 95 96 95 94 93 89 85 84 84 83 83 82 81 81 81 79 75 69 65
90 81 79 71 52 47 37 41 49 53 60 66 66 67 50 41 33 25 24 28 35 44 48 52 54 61 81 86 89 95 96 95 94 93 90 87 84 86 84 84 81 81 81 80 78 75 72
87 82 81 62 50 34 35 47 57 61 65 69 74 55 45 35 25 19 19 24 29 40 48 49 49 51 65 84 93 93 93 93 93 93 93 91 91 88 86 87 87 85 83 80 81 81 78
85 83 77 56 44 37 46 56 64 67 75 73 60 48 41 27 21 19 18 22 29 37 49 54 54 56 59 72 89 97 93 92 93 93 93 94 96 95 92 90 90 89 88 86 83 81 80
84 85 79 55 41 44 55 61 66 75 78 69 51 47 33 24 18 16 15 18 24 33 44 50 53 57 62 64 69 81 95 96 95 95 97 95 97 100 100 99 96 93 90 88 88 86 83
88 84 75 54 44 52 61 64 74 78 77 57 52 36 25 21 14 14 16 20 24 30 40 48 52 54 57 61 62 64 75 92 96 96 95 97 101 104 105 106 103 100 97 92 89 89 90
92 85 70 54 52 57 63 70 75 83 66 58 42 31 20 17 14 12 17 20 25 29 36 45 51 54 55 57 60 60 63 73 91 99 98 96 99 104 103 104 106 106 104 100 96 95 93
92 86 68 53 54 59 67 78 79 88 64 53 40 26 18 14 12 11 14 18 23 28 32 38 48 54 58 57 58 62 63 65 73 90 100 102 101 104 106 106 104 104 105 105 104 102 100
91 83 63 57 55 63 74 79 87 87 65 48 36 25 19 13 12 12 13 15 18 25 31 36 39 47 55 58 59 59 64 67 69 73 86 97 102 104 106 106 107 107 105 105 105 107 106
90 77 62 57 60 66 74 80 85 84 64 45 32 26 19 12 11 14 16 18 19 23 26 30 37 42 47 52 59 63 65 66 70 73 76 84 95 104 107 107 106 107 110 109 109 108 107
89 81 69 60 62 68 76 83 87 83 67 46 33 28 21 15 11 12 15 19 21 24 26 29 32 38 43 48 54 59 64 68 71 72 74 78 82 91 101 108 110 109 111 114 114 112 110
86 76 68 61 64 70 77 85 88 83 68 55 40 31 22 17 13 10 11 13 16 19 23 26 28 31 33 38 47 52 55 59 66 73 76 78 80 83 87 95 103 112 114 114 115 115 113
89 78 65 61 62 71 79 79 88 85 70 60 52 38 30 20 15 12 10 9 12 14 16 19 21 25 29 30 34 38 42 48 55 62 69 76 80 84 85 90 93 97 107 116 116 116 116
86 74 60 61 63 68 76 79 86 81 68 59 56 46 37 28 19 14 11 10 8 8 12 13 16 18 17 18 22 26 30 37 41 46 53 61 69 75 82 87 90 93 96 104 114 115 114
81 72 55 61 63 67 73 76 81 79 67 58 53 46 38 32 26 22 20 18 15 11 8 9 10 10 12 13 14 17 21 25 29 35 43 50 55 59 65 74 83 90 93 96 99 101 112
77 66 50 57 61 65 72 74 76 74 63 53 50 44 39 37 32 22 18 21 23 20 13 8 5 7 9 10 13 13 14 18 21 27 34 39 44 50 55 60 67 78 83 87 93 97 99
77 57 52 50 56 65 72 70 73 67 58 50 46 41 38 37 32 29 28 24 19 14 13 13 11 7 8 11 13 15 16 15 16 21 27 32 35 40 45 50 56 64 68 76 82 89 92

GFSGBSN_250_spd_069.txt.gz
Wind_Speed
31 35 35 33 31 31 28 28 29 30 30 30 32 33 32 36 36 40 46 49 50 51 50 49 49 50 50 50 48 48 47 48 58 66 68 64 59 59 56 51 49 48 47 44 40 36 33
37 38 41 39 36 35 29 29 30 35 36 38 37 35 37 37 38 39 41 46 51 54 55 55 53 52 52 54 53 52 52 52 53 61 70 69 63 60 58 56 53 53 52 47 43 40 36
43 45 46 44 44 45 34 33 33 35 39 40 41 40 39 40 40 38 44 46 48 51 58 59 60 58 56 57 58 56 55 55 54 54 65 72 69 67 63 59 54 55 55 48 45 41 39
51 49 49 50 51 48 40 35 38 37 38 40 40 42 42 43 42 40 43 48 48 51 54 60 64 64 63 61 60 61 59 58 58 56 56 67 74 73 67 62 58 57 58 53 49 45 42
53 51 50 50 51 44 39 36 39 41 41 41 44 42 43 45 49 50 49 48 54 55 57 59 64 69 69 68 65 64 64 62 61 60 58 59 70 75 74 67 63 60 59 57 52 49 44
55 55 52 50 45 36 35 36 38 39 41 43 46 49 50 50 51 54 55 56 55 58 61 63 64 67 71 74 73 70 70 68 67 65 63 61 61 72 75 74 67 66 63 59 57 53 49
53 56 56 49 44 34 34 37 38 40 44 43 42 47 50 51 55 57 60 60 61 60 64 67 69 69 72 75 78 77 75 74 71 70 67 66 66 67 77 79 71 69 67 61 57 55 52
60 62 58 52 42 37 38 40 35 37 43 46 51 52 56 57 57 61 64 65 66 63 64 68 71 72 73 75 80 82 81 79 78 74 73 71 73 72 70 76 74 73 71 67 61 58 54
71 69 68 63 53 46 45 37 32 32 36 43 48 50 54 58 53 57 62 63 67 67 65 66 73 76 79 77 77 85 87 85 83 80 76 78 79 75 71 72 72 73 75 71 67 64 59
74 72 70 72 65 51 48 41 33 31 30 32 34 36 39 39 44 49 50 58 64 67 68 69 70 71 77 82 78 80 89 90 88 85 82 81 79 77 75 74 73 74 78 74 69 66 64
74 75 76 77 68 55 47 39 36 29 29 31 34 36 42 47 51 52 59 62 65 67 69 73 76 75 79 80 82 82 84 93 94 92 87 84 84 81 81 81 77 76 76 75 70 67 67
79 82 84 86 77 58 48 41 34 33 32 40 43 54 57 59 59 63 68 71 72 75 78 82 83 84 86 86 85 84 84 90 97 96 93 89 88 84 86 85 83 77 73 71 68 65 69
82 82 87 84 82 63 50 43 44 42 47 54 59 67 59 56 59 60 62 64 69 74 80 81 83 85 87 83 79 78 82 88 93 97 98 94 91 89 87 87 86 81 76 72 68 64 64
82 83 87 91 84 75 59 51 46 49 59 64 72 56 49 46 46 46 48 49 48 52 57 59 64 70 70 71 71 72 76 83 90 96 101 99 95 93 91 88 89 87 83 79 73 67 67
83 82 88 90 87 84 65 56 54 59 70 73 59 52 43 35 33 34 34 36 39 43 44 47 51 54 57 59 61 65 70 79 86 93 102 102 99 95 94 91 91 90 86 84 79 75 73
81 82 90 91 88 87 71 62 63 66 72 75 60 51 38 28 26 24 22 23 26 31 34 38 42 47 51 54 58 62 68 76 82 91 99 103 102 99 95 94 93 91 91 89 85 81 77
85 84 91 93 91 88 79 69 68 74 76 68 61 50 33 25 21 18 15 17 19 24 29 32 38 43 47 53 60 64 68 74 82 91 97 104 105 102 101 97 95 94 91 91 89 85 83
85 85 90 93 94 87 80 74 69 75 80 69 61 49 33 24 20 17 14 12 17 22 26 29 31 37 46 52 59 63 68 73 80 90 98 102 105 105 103 101 97 96 94 92 91 89 86
87 85 87 93 96 91 86 77 71 74 78 76 62 50 34 24 18 16 13 11 15 19 22 27 32 39 42 49 58 62 65 69 75 85 95 103 106 106 104 103 100 97 95 94 92 90 89
83 84 88 95 95 90 86 76 76 75 80 80 63 49 37 26 18 12 11 11 14 18 20 24 30 36 44 51 57 59 62 64 69 79 90 98 103 106 105 103 102 100 98 95 95 92 90
82 85 89 94 94 89 83 75 75 75 79 80 67 51 39 29 20 12 8 10 13 17 21 23 26 33 41 49 56 58 59 59 62 69 82 91 99 102 104 104 102 102 101 98 96 94 93
92 84 86 88 91 94 82 74 72 75 79 81 68 54 42 30 22 15 9 8 14 17 21 24 26 30 37 47 55 58 60 61 60 62 71 85 94 100 104 107 107 105 106 105 103 99 97
89 85 86 92 94 89 76 73 67 70 74 81 76 57 51 37 25 17 12 9 12 17 20 25 28 30 36 43 52 58 62 63 62 62 65 73 89 98 101 105 106 107 106 106 106 106 104
89 88 87 92 93 87 73 70 65 66 71 78 77 60 50 40 31 25 18 14 11 12 18 23 28 33 35 40 49 56 60 63 64 64 66 69 75 90 99 103 105 106 107 108 107 107 106
85 81 90 92 92 81 75 67 63 62 69 74 73 58 49 44 35 31 21 17 13 11 12 16 23 28 33 40 44 51 57 62 65 66 68 71 74 78 87 98 102 104 108 110 111 110 109
83 84 87 88 86 75 67 60 58 59 65 68 67 51 47 43 36 34 24 18 15 11 10 10 14 19 26 34 41 47 51 57 64 67 69 72 74 77 79 85 92 101 107 109 110 111 112
82 81 86 91 86 72 63 56 56 56 63 64 63 48 44 42 36 28 25 25 18 13 9 6 7 13 20 26 33 40 47 53 58 62 67 71 74 76 77 80 82 86 95 104 110 111 113
83 82 86 86 72 64 59 53 52 54 59 61 57 46 43 42 39 32 23 19 19 15 13 13 9 8 9 15 25 33 39 46 53 58 62 65 67 72 75 78 81 83 86 89 94 101 109
81 85 89 71 68 58 52 48 46 52 55 57 55 44 41 39 37 33 28 22 21 17 9 12 12 13 12 14 18 25 32 38 43 49 55 60 63 66 69 73 78 82 84 85 85 89 94

GFSGBSN_250_spd_072.txt.gz
Wind_Speed
33 35 35 36 36 34 33 32 32 39 40 41 40 41 41 42 42 45 46 49 50 50 49 49 50 51 49 49 48 49 49 47 47 57 67 64 62 61 57 55 53 50 46 42 37 36 34
38 42 43 41 41 43 41 40 41 40 45 46 46 47 46 48 47 46 49 49 50 53 54 54 53 53 51 51 52 52 52 51 49 51 65 68 63 62 61 56 56 55 52 47 44 40 36
43 45 44 41 45 46 47 48 49 49 49 51 51 52 52 52 51 51 52 50 52 51 54 57 56 56 56 55 54 54 55 54 53 51 58 68 69 66 64 60 56 57 56 51 48 44 40
47 44 38 43 47 44 49 51 52 52 51 53 56 56 56 54 56 56 54 54 53 54 55 57 59 60 60 59 59 57 57 58 56 55 55 62 70 70 68 65 60 58 59 55 51 48 44
47 44 46 53 51 46 42 46 48 43 44 49 54 59 59 58 57 58 57 56 54 55 55 58 59 60 64 64 63 62 61 61 60 59 59 59 70 74 72 69 68 63 60 59 56 52 49
52 52 51 55 66 46 32 29 33 36 38 42 49 52 57 60 61 59 59 59 57 60 56 56 60 61 63 66 68 67 66 65 65 62 61 61 63 73 75 75 72 67 63 61 58 55 52
53 59 56 60 68 58 34 25 34 37 39 43 46 49 54 57 62 63 62 61 62 62 65 62 63 65 66 67 71 72 72 71 70 68 64 65 65 68 74 77 72 73 68 62 60 57 53
58 60 58 63 65 67 38 33 32 28 32 37 40 47 54 58 61 63 68 70 71 70 70 71 68 68 71 69 71 74 76 76 76 74 71 69 69 69 71 72 71 75 73 66 62 59 54
59 57 57 61 63 64 56 41 37 26 24 29 32 33 36 43 54 65 68 70 73 73 74 73 73 71 73 75 74 75 78 81 80 78 76 74 75 70 70 69 69 77 78 72 66 62 58
66 57 58 69 65 70 68 52 41 39 28 25 26 31 35 36 39 47 57 66 68 70 74 75 75 75 75 76 75 77 78 81 83 83 82 80 77 75 71 71 70 72 79 77 71 68 65
68 67 70 69 72 73 73 63 49 46 40 35 36 38 40 43 47 51 54 56 61 66 72 74 73 74 77 77 76 78 79 80 83 88 87 86 83 79 77 77 75 71 73 79 76 73 69
71 73 73 69 75 76 76 72 60 52 46 45 44 52 54 52 55 60 63 67 67 67 65 67 73 76 77 77 78 77 79 80 81 84 91 89 88 84 82 80 80 73 69 71 76 78 76
73 77 80 73 75 76 80 73 72 59 55 55 60 66 49 44 44 47 52 62 71 77 77 74 72 76 80 79 79 80 78 79 80 78 87 91 94 91 87 84 80 77 74 71 72 74 75
69 76 83 76 76 80 84 84 71 64 66 64 70 60 47 37 33 35 42 50 56 66 74 79 80 82 80 81 81 82 81 80 81 82 83 89 97 97 92 89 84 82 81 78 73 71 72
75 78 81 82 82 84 86 89 77 72 73 71 74 61 46 33 24 22 27 34 43 52 60 69 81 84 87 85 85 85 84 84 83 83 84 88 99 99 98 94 90 86 83 84 78 73 75
80 81 83 82 82 88 90 91 81 77 77 74 75 63 46 32 22 17 17 23 31 37 44 54 59 66 78 85 89 89 88 87 87 86 87 89 88 96 100 100 97 91 89 86 85 79 78
81 84 83 81 85 87 93 92 84 80 78 78 78 68 49 34 21 15 11 15 19 26 32 37 46 55 59 69 81 90 92 91 91 92 91 90 90 93 102 107 100 96 91 89 90 86 84
84 85 80 79 85 87 94 91 85 76 79 76 78 74 52 37 23 14 8 8 10 15 20 26 33 42 52 59 64 72 81 87 90 91 90 89 88 92 101 104 105 102 96 91 89 90 90
85 82 80 84 84 85 94 99 87 77 81 76 77 78 55 37 25 15 8 3 7 11 16 21 26 34 39 47 55 62 66 72 76 80 83 86 88 90 95 103 108 106 101 96 93 94 93
86 85 82 81 83 90 90 92 86 79 79 74 76 80 56 39 26 17 11 5 4 10 14 18 23 27 36 39 45 53 59 64 68 73 77 81 84 88 93 101 106 107 105 100 98 96 97
83 86 82 85 82 86 93 87 82 77 78 74 75 77 60 43 30 19 13 10 7 8 15 17 20 24 29 37 41 45 50 57 63 67 72 76 81 87 89 94 100 107 107 104 101 99 97
84 83 83 86 87 88 91 85 77 74 71 69 73 76 61 50 33 25 14 10 10 9 11 17 20 23 28 33 38 43 48 54 57 61 64 70 75 80 86 94 99 105 107 107 104 101 99
88 88 84 86 86 87 86 80 75 67 66 64 69 73 66 52 40 31 19 11 6 10 13 14 19 22 26 32 37 41 47 52 58 60 63 67 70 76 84 91 100 105 110 110 109 107 104
88 89 91 87 88 86 78 70 66 63 62 60 64 70 62 52 46 34 22 15 9 5 9 16 18 22 24 28 35 41 47 52 58 60 63 64 66 72 77 88 95 99 106 111 111 109 109
90 87 89 87 86 84 76 69 59 58 57 57 61 66 60 49 44 41 28 22 14 8 4 8 16 22 25 30 32 37 44 52 58 62 62 64 65 66 69 80 86 97 103 108 111 111 111
91 89 87 83 84 82 72 58 53 53 52 53 57 62 57 44 42 38 32 24 20 12 7 6 10 15 23 28 32 37 41 46 55 61 64 66 67 67 67 72 80 87 99 105 109 113 113
90 92 87 78 81 80 69 54 48 49 48 51 55 59 54 42 40 35 29 23 20 17 12 7 6 12 17 23 30 35 40 45 52 58 63 68 70 71 70 72 75 81 93 101 108 110 112
91 91 91 81 80 76 59 47 42 44 44 49 52 58 51 42 39 33 26 23 18 15 13 12 10 7 10 18 26 31 37 42 48 54 60 66 70 73 73 74 74 76 81 91 99 107 111
88 89 83 84 75 67 46 38 37 40 40 46 49 54 47 42 36 34 29 28 26 22 17 13 12 11 12 13 17 24 32 38 43 48 54 60 65 70 74 76 76 76 77 80 85 96 107

GFSGBSN_250_spd_075.txt.gz
Wind_Speed
30 37 38 32 33 38 39 44 47 49 49 51 53 53 52 50 51 51 50 52 54 53 51 52 53 54 53 52 50 49 48 48 47 45 63 63 62 60 58 54 52 46 45 40 41 38 34
39 40 38 41 40 40 44 48 47 49 54 53 53 56 58 56 55 54 54 52 52 56 56 55 55 56 57 55 55 53 51 51 50 49 52 66 65 63 62 60 56 53 50 46 44 42 40
44 43 46 40 42 52 54 54 48 51 54 51 57 58 57 61 61 59 57 56 56 54 57 59 58 58 57 59 59 56 54 54 53 53 51 59 68 68 65 63 61 59 56 51 49 45 44
44 45 44 48 49 51 56 59 51 49 51 50 47 51 55 61 65 64 63 60 59 60 57 59 61 61 59 60 60 61 58 57 56 56 55 54 66 70 68 66 66 64 60 57 51 48 43
44 49 46 46 46 52 58 61 42 38 42 40 41 45 48 51 63 66 65 65 63 62 63 60 61 63 62 62 62 62 62 61 59 59 58 57 59 69 68 69 66 65 64 62 58 51 47
49 53 53 52 51 56 53 58 43 33 31 38 42 40 40 44 48 60 66 68 66 65 66 65 63 62 64 65 65 65 64 64 64 63 61 60 60 64 67 67 69 69 67 65 62 58 53
48 53 57 60 47 54 56 56 41 31 30 30 38 42 47 50 51 57 61 63 70 69 68 67 67 63 65 66 68 69 69 68 67 67 65 65 63 62 65 67 70 68 67 65 62 58 56
52 53 60 60 57 53 57 59 51 43 34 28 29 32 37 43 51 53 59 62 65 70 71 71 71 66 67 69 68 69 72 73 72 71 70 68 67 67 65 64 65 73 71 69 64 61 57
55 55 59 62 58 61 63 66 59 51 42 36 30 26 31 32 36 45 53 57 64 69 72 73 72 72 69 69 70 72 73 76 77 74 73 73 74 69 66 64 63 71 74 71 70 66 61
61 59 63 69 62 62 62 67 65 59 48 43 40 32 28 33 40 44 50 55 61 67 72 76 76 78 74 76 72 72 73 75 78 79 78 76 75 72 69 68 67 65 77 74 71 68 67
63 66 71 69 60 61 62 66 73 73 57 49 46 45 42 44 48 50 53 57 59 66 75 73 79 80 80 80 79 75 74 76 77 80 81 81 77 77 74 71 72 69 72 77 69 74 71
68 68 73 70 63 63 67 73 74 79 59 51 54 53 52 51 47 50 59 64 68 67 72 75 77 81 85 85 81 82 80 77 78 80 82 86 83 80 80 77 76 74 67 70 70 72 73
71 74 76 71 64 69 69 74 79 77 65 55 60 59 55 40 34 38 46 55 69 75 70 70 77 81 83 86 88 82 84 81 78 80 81 86 86 87 84 82 79 72 72 72 71 72 72
72 75 77 74 70 74 74 75 85 81 74 63 67 63 51 32 23 26 35 45 57 68 74 76 77 80 81 85 84 84 84 84 86 82 83 86 87 91 88 85 83 78 78 75 72 72 73
72 72 78 81 74 75 77 78 85 87 75 70 69 66 55 35 22 16 20 32 47 58 68 78 81 82 83 81 83 83 84 87 88 87 85 82 86 92 90 91 88 83 80 79 82 77 78
71 76 78 81 81 83 84 86 88 87 77 72 73 68 63 43 28 17 17 23 31 44 57 66 77 86 83 81 81 84 87 87 80 83 86 88 92 85 89 92 90 87 85 86 81 81 78
74 79 80 85 82 86 88 90 90 92 77 73 73 68 70 50 35 21 18 18 22 29 41 52 63 72 85 86 84 86 89 85 85 87 88 87 86 83 87 88 94 94 91 90 87 86 85
74 80 82 83 90 93 89 90 91 91 83 77 73 69 73 54 40 25 15 14 16 21 28 37 46 58 68 79 91 91 83 85 86 88 90 87 84 82 84 93 92 93 94 93 90 88 88
77 82 82 86 92 96 92 91 91 92 87 76 72 68 72 57 43 29 16 12 10 15 21 28 35 43 55 67 77 89 88 88 87 86 87 88 87 89 83 85 91 92 95 95 95 96 92
76 85 88 87 89 94 98 96 88 84 79 74 69 66 70 63 42 31 19 11 9 10 14 20 26 32 41 51 64 74 87 93 89 89 90 90 91 89 90 93 91 91 91 93 97 97 94
79 85 86 84 87 94 95 97 91 82 72 67 66 65 67 61 42 34 22 12 7 9 12 15 20 25 31 40 51 58 69 75 86 95 95 93 93 92 89 89 90 87 89 92 96 99 105
82 83 83 86 87 89 90 92 87 75 68 60 61 62 66 56 41 36 25 18 10 6 12 15 17 21 26 31 38 51 58 62 66 75 88 97 97 93 91 92 92 91 91 90 93 100 106
79 82 89 91 86 86 88 86 77 67 63 55 57 59 63 52 43 34 29 21 14 8 8 13 18 19 22 26 32 39 45 52 58 63 68 73 84 92 96 99 98 96 95 95 98 101 110
81 85 88 88 85 86 84 87 68 62 57 51 52 55 59 53 45 42 32 20 16 11 8 9 15 19 22 23 28 33 40 45 50 54 60 65 69 77 84 87 89 92 92 96 99 101 107
81 84 89 93 86 84 84 77 62 56 47 45 49 50 57 52 39 46 35 25 16 12 8 7 9 16 19 24 26 30 35 40 46 51 56 61 66 71 75 75 81 79 84 92 95 100 107
85 91 93 92 90 87 75 64 61 50 40 40 45 49 54 49 40 49 36 26 22 14 7 8 8 10 16 22 26 29 33 37 42 47 53 58 63 68 71 74 78 80 78 83 93 98 103
90 93 94 92 94 79 63 60 54 39 35 37 42 47 52 44 42 49 37 31 26 22 18 9 8 9 13 18 23 27 32 36 41 46 51 56 61 65 70 73 77 73 83 86 91 95 97
86 90 97 93 80 65 60 51 41 30 30 36 38 45 47 37 41 44 32 30 27 27 25 20 16 11 11 15 20 24 29 35 40 44 50 57 62 67 70 73 74 72 83 86 87 91 95
94 95 96 86 73 64 52 37 28 25 27 33 35 42 43 35 37 35 26 29 30 30 27 28 23 17 15 14 16 20 26 30 36 42 48 53 58 65 72 73 73 76 80 80 83 87 93

GFSGBSN_250_spd_081.txt.gz
Wind_Speed
30 31 31 32 37 39 39 34 32 35 39 39 42 43 47 46 46 48 53 53 52 50 53 52 54 55 57 56 56 53 54 53 54 56 58 60 59 58 55 49 48 41 29 23 33 34 31
32 31 35 37 40 41 38 36 32 32 35 37 41 42 44 42 43 46 53 59 57 55 53 56 55 56 58 58 62 57 56 57 56 54 55 60 64 62 58 54 51 49 49 30 39 35 35
34 38 40 46 43 40 32 33 35 36 40 41 44 43 39 37 34 36 47 58 61 60 56 55 58 57 60 59 63 61 60 58 57 57 56 57 63 65 63 59 58 40 49 47 43 39 36
40 42 47 50 44 39 34 38 43 38 42 47 47 43 40 37 32 33 38 52 59 63 61 58 57 59 60 60 63 63 63 62 60 60 58 57 56 65 68 65 61 61 54 53 39 48 39
44 43 44 51 52 45 41 40 47 45 47 49 48 48 42 34 31 31 34 41 54 61 64 62 60 59 59 64 64 63 65 66 64 62 61 60 57 59 67 70 67 62 59 55 47 46 44
43 45 46 48 55 54 46 45 48 51 49 50 55 53 45 37 31 31 34 38 43 52 63 66 64 64 61 64 65 65 66 68 68 66 64 62 60 60 59 69 70 67 64 61 59 47 53
43 48 50 51 53 55 59 53 53 51 52 56 59 53 56 32 31 31 32 42 46 46 57 67 68 68 65 64 65 67 66 68 69 69 67 66 64 60 60 60 74 72 68 63 67 54 49
45 52 53 54 59 60 58 59 56 55 52 57 61 57 53 32 27 30 32 36 44 51 52 61 71 69 65 67 65 67 71 69 68 71 72 69 65 67 64 64 64 74 72 68 66 63 54
49 55 55 57 62 62 60 61 64 60 60 61 58 59 57 39 28 30 33 34 39 49 53 57 69 71 69 70 70 70 70 74 73 74 72 72 74 71 69 66 64 65 72 72 69 68 62
51 54 56 61 65 63 62 66 69 73 71 68 64 64 61 48 29 30 33 36 42 45 56 60 63 71 70 73 73 71 70 72 75 74 73 74 76 73 70 69 67 64 65 75 74 70 71
53 58 60 65 72 67 69 69 74 75 74 73 69 64 62 51 36 35 39 42 45 48 54 61 64 63 68 73 77 75 74 72 72 76 75 74 75 74 73 70 69 65 69 72 74 77 76
57 60 62 67 70 71 71 71 72 74 81 78 71 67 60 56 45 43 39 40 47 55 59 57 67 71 69 72 75 76 78 76 74 74 76 78 76 76 74 74 70 72 76 70 68 76 75
59 61 64 68 72 72 74 76 71 75 82 84 70 69 61 61 53 46 33 27 34 50 61 63 65 71 74 72 74 76 77 76 74 72 73 79 79 76 76 76 73 76 74 71 68 63 68
59 63 67 71 74 77 77 77 75 80 81 85 80 67 63 67 57 49 32 23 26 43 56 64 67 70 72 77 76 75 78 75 77 78 76 78 78 79 77 75 75 77 75 75 72 67 66
66 66 71 74 77 80 82 83 83 84 86 87 85 65 56 64 57 51 37 24 21 31 47 60 70 72 72 75 79 78 80 79 80 80 83 82 79 83 80 78 77 80 78 77 76 77 74
69 69 74 78 80 81 87 82 86 88 87 87 79 60 58 63 59 54 37 23 17 25 35 49 67 74 74 76 80 81 85 87 90 89 83 78 78 75 74 82 85 82 81 82 78 78 78
67 70 77 81 82 83 84 86 86 87 86 84 76 61 57 58 55 55 38 30 14 21 28 37 45 70 82 81 75 78 85 84 82 79 77 76 79 81 78 75 77 82 81 79 79 78 78
70 76 80 82 82 85 84 84 89 85 87 81 71 54 59 55 52 56 42 31 16 16 26 35 44 57 74 84 77 74 79 83 81 79 79 77 77 76 74 75 78 76 79 84 81 79 85
74 78 82 79 83 86 88 86 88 83 83 79 59 47 58 53 53 57 38 32 18 11 20 30 38 51 63 79 77 79 79 82 85 81 82 79 82 84 83 82 83 80 83 81 81 88 90
76 77 78 80 86 85 89 87 85 82 82 62 56 48 53 54 53 54 45 32 20 11 14 21 30 42 56 69 78 84 83 82 83 82 83 84 87 85 86 87 82 80 78 78 80 83 90
75 76 81 84 89 93 92 88 78 83 78 53 43 48 45 49 53 54 44 32 19 12 12 16 21 31 43 57 69 79 83 81 81 81 86 89 92 90 88 88 82 80 77 75 82 84 93
74 79 85 87 91 92 91 87 86 77 63 44 39 45 40 43 50 50 38 27 16 12 11 13 17 21 31 47 60 68 83 84 83 83 85 90 93 90 91 87 82 81 82 83 88 92 92
79 81 86 89 87 89 90 94 83 65 44 37 37 34 41 40 49 43 33 25 13 8 7 10 15 19 27 32 42 57 70 80 92 87 84 88 88 85 86 90 89 88 88 91 93 95 93
80 83 85 89 87 87 87 87 69 54 37 31 32 32 35 40 47 36 28 26 18 9 5 6 10 17 23 27 32 40 52 70 78 90 90 87 87 86 88 89 89 91 92 94 96 97 88
82 83 89 85 87 91 87 83 56 42 34 29 26 29 32 40 45 27 34 32 25 21 9 4 5 10 19 25 27 32 40 49 64 77 89 92 90 89 87 91 91 92 94 91 98 95 95
83 84 83 85 84 87 87 75 48 36 27 28 20 22 30 36 41 27 31 34 33 37 34 16 3 6 11 18 23 27 31 37 47 57 69 81 93 94 89 92 93 96 92 92 95 95 97
81 79 82 90 93 84 84 60 38 28 23 24 18 20 29 31 36 32 26 36 34 38 43 41 29 9 0 7 13 20 25 28 35 42 50 61 74 87 97 98 97 97 94 98 99 97 98
87 90 90 92 95 91 83 53 29 22 21 20 16 16 27 32 33 32 23 28 34 40 44 43 40 39 25 8 3 12 18 22 25 30 37 45 55 66 80 90 97 101 96 96 96 100 99
90 91 92 94 94 83 63 39 24 18 19 12 14 13 22 29 29 31 24 22 25 31 37 37 38 34 33 28 22 14 5 13 21 27 32 37 44 54 63 73 82 90 101 106 103 102 100

GFSGBSN_250_spd_084.txt.gz
Wind_Speed
26 26 33 38 41 35 35 30 27 28 29 30 32 36 38 40 40 46 49 49 52 50 53 54 54 56 58 59 59 56 55 57 59 57 59 57 57 54 52 48 45 42 25 11 25 29 26
30 32 32 35 44 45 43 38 35 33 33 32 35 34 38 39 41 41 46 50 53 54 55 56 56 57 58 61 63 62 59 57 60 61 59 62 59 57 54 53 49 50 42 15 21 27 35
32 34 38 39 42 45 41 43 42 40 37 35 36 39 40 42 37 39 41 43 50 57 56 60 59 58 59 61 65 65 63 60 60 62 65 63 61 61 58 57 54 51 49 40 31 35 34
31 36 40 39 42 47 46 46 45 46 41 37 43 44 43 44 44 37 36 40 46 54 60 63 63 61 61 62 64 67 68 65 63 64 66 65 63 61 63 60 59 55 54 51 40 45 32
32 38 41 40 44 49 53 49 51 51 48 50 49 50 43 42 44 39 31 35 43 48 59 67 68 67 61 64 67 68 71 70 65 64 66 66 64 65 65 66 63 59 61 57 50 45 37
31 39 43 42 44 50 52 53 55 58 52 52 56 55 50 41 44 39 28 31 37 44 55 66 72 70 67 66 68 65 69 73 72 68 66 65 64 63 67 67 70 68 64 59 61 52 41
35 40 43 47 48 49 52 55 58 63 55 54 55 62 60 50 39 32 29 29 37 43 52 61 70 72 69 66 65 67 66 71 73 71 67 66 66 65 66 70 72 72 67 64 55 56 50
37 43 47 49 52 54 58 60 60 63 60 60 62 66 65 51 40 29 26 30 32 37 49 61 65 70 71 71 69 69 68 66 69 71 73 67 68 72 68 69 71 73 71 69 67 58 53
39 46 50 53 54 57 62 65 63 67 64 62 66 65 64 52 37 25 23 30 35 39 48 58 70 67 72 74 74 72 69 70 70 73 73 72 78 72 70 70 69 69 72 72 71 65 62
43 50 54 59 61 62 64 66 70 69 65 67 67 66 66 53 40 27 30 28 38 42 47 60 65 70 70 76 76 74 72 71 73 72 75 80 76 72 72 71 71 69 68 75 74 71 66
48 53 58 62 64 67 69 68 73 74 71 68 73 69 68 54 38 35 41 30 36 44 51 53 67 69 73 79 81 79 77 74 73 77 75 79 78 77 72 73 71 70 72 70 73 74 70
51 54 61 65 69 71 73 74 78 79 75 77 76 69 70 52 38 40 45 33 35 49 56 59 62 73 75 80 83 81 80 78 78 76 76 77 79 79 78 77 75 78 74 70 66 74 72
53 59 64 66 71 73 80 79 85 84 82 83 77 72 65 53 42 48 40 30 26 41 53 59 61 67 76 79 82 84 83 80 76 74 75 81 76 76 79 78 77 78 76 70 67 65 72
57 63 65 69 70 77 82 82 85 86 85 79 78 70 61 56 46 52 40 29 15 29 46 59 63 64 72 78 80 86 86 83 81 78 78 80 81 79 77 76 79 79 77 72 69 68 67
61 64 67 73 75 80 83 86 90 90 82 78 81 72 58 45 47 47 44 39 21 14 34 54 68 71 71 80 84 86 88 88 86 87 82 81 80 82 79 77 79 82 77 76 77 73 73
63 67 71 75 78 82 85 87 90 87 87 85 79 56 44 40 48 45 47 40 24 16 21 40 61 71 72 74 81 85 88 88 90 84 83 78 76 76 79 80 79 80 82 85 81 78 77
64 69 73 75 78 84 85 89 89 89 88 85 68 45 42 47 54 46 47 44 27 15 17 32 51 71 77 76 76 84 83 83 84 83 80 76 78 78 78 75 79 83 85 85 84 81 79
66 70 74 77 83 83 85 89 92 85 87 82 63 37 35 43 53 47 49 36 33 16 15 26 43 60 76 77 77 79 81 84 81 82 83 80 80 79 77 76 81 85 90 89 88 85 82
64 70 75 79 81 84 87 86 86 83 81 78 51 35 36 48 40 45 49 40 33 18 12 22 37 52 68 79 79 79 80 82 86 83 85 85 83 82 83 83 84 84 83 87 85 85 84
67 72 76 77 85 86 86 83 90 87 86 67 37 35 39 39 42 50 52 38 31 16 10 17 30 43 59 75 80 79 79 79 84 88 86 87 89 89 90 87 84 82 81 83 84 86 85
66 70 74 79 85 86 90 94 98 91 86 52 30 32 40 40 44 49 49 37 31 15 9 14 25 37 50 63 78 80 81 77 81 87 90 89 91 91 89 87 87 85 82 80 80 86 90
66 74 78 85 88 95 91 92 93 84 80 46 34 29 31 35 47 52 46 41 34 18 5 12 22 31 41 50 62 77 83 83 82 82 87 89 89 89 91 89 86 90 86 84 84 89 88
71 78 84 87 88 85 87 96 90 83 68 37 28 32 26 33 42 46 42 41 31 19 5 8 16 22 31 39 48 60 73 86 86 82 81 85 87 89 90 91 92 92 90 89 89 87 83
73 80 84 87 83 89 92 92 89 83 58 34 25 21 22 36 37 39 36 35 31 19 6 3 10 15 21 26 36 44 56 69 81 86 85 80 83 88 90 92 94 95 94 94 91 92 85
75 80 84 88 85 92 98 91 91 77 51 28 20 17 21 32 33 36 27 34 33 27 14 2 5 8 14 17 23 30 41 55 65 78 85 83 80 82 87 91 94 96 97 93 92 92 89
77 81 85 85 93 96 98 103 86 75 46 23 18 14 18 28 27 36 32 26 33 38 27 13 3 2 4 11 15 18 25 33 51 67 79 84 83 83 84 87 93 94 96 97 95 95 92
80 85 88 90 93 99 104 94 83 67 40 19 7 12 14 28 25 29 37 33 33 33 34 26 19 13 5 3 9 13 16 21 30 44 64 76 85 88 85 86 86 89 94 97 94 96 97
84 88 92 94 102 97 91 86 73 55 30 13 9 8 13 23 23 28 32 37 32 32 30 30 28 29 22 16 9 2 9 15 22 29 37 50 66 78 84 92 87 89 92 96 95 97 99
87 91 92 97 100 105 95 90 78 44 24 17 8 6 9 18 21 26 28 29 32 28 28 30 25 26 26 23 22 17 12 3 7 18 29 35 43 53 68 78 87 97 98 97 96 97 99

GFSGBSN_250_spd_087.txt.gz
Wind_Speed
21 26 26 26 27 31 33 34 37 38 38 31 28 27 30 32 35 38 40 42 44 48 53 54 60 62 61 60 58 58 57 59 59 56 54 53 53 51 49 51 49 44 35 30 29 26 23
21 26 29 25 28 31 32 35 37 39 38 32 32 30 34 28 33 38 42 42 45 49 51 57 60 64 65 63 63 61 62 61 62 60 60 57 56 55 51 51 49 46 35 30 27 27 25
21 26 29 31 32 34 36 37 39 39 41 40 40 36 42 35 39 32 36 39 44 50 50 56 61 65 68 66 66 66 65 64 64 65 65 58 58 57 54 52 49 46 39 29 25 22 25
24 27 31 34 37 40 42 41 44 44 44 45 45 39 40 41 38 34 33 39 40 46 52 57 62 67 70 68 70 70 69 68 66 68 66 61 58 60 59 56 52 52 50 33 29 25 27
24 28 34 38 41 44 46 46 49 50 49 49 46 40 40 42 41 43 40 38 39 39 51 57 65 71 67 72 76 71 72 72 71 69 68 65 64 62 62 62 59 58 58 47 37 29 28
26 30 37 43 44 46 50 50 51 53 53 55 49 47 47 50 43 49 41 36 37 36 48 58 65 73 71 76 75 70 72 74 74 71 68 68 66 63 65 67 69 65 63 62 49 37 39
29 34 39 47 50 50 52 55 57 58 60 62 56 55 54 56 49 49 38 34 35 37 43 58 63 70 75 76 75 72 72 73 74 73 70 70 68 64 66 72 71 71 68 64 62 52 39
32 38 44 49 52 53 57 58 61 65 65 67 62 59 57 52 51 48 37 31 32 36 42 55 63 69 71 77 79 76 72 72 71 76 75 71 70 72 70 71 72 71 68 66 64 61 51
35 41 46 51 54 59 61 63 70 71 72 67 60 53 59 62 50 46 35 29 26 32 39 46 55 66 68 78 82 81 75 73 75 76 78 76 78 76 72 73 71 71 71 71 70 68 64
38 43 47 54 59 61 64 67 73 76 74 73 67 64 63 61 55 42 30 24 24 24 38 45 50 59 67 79 83 84 78 76 77 76 78 83 82 76 73 73 72 71 72 75 73 71 72
41 46 50 56 61 63 67 71 79 82 76 71 74 67 68 66 47 34 24 24 28 31 35 49 53 55 68 78 83 86 82 78 76 78 77 82 83 80 74 74 74 75 76 73 79 75 72
45 50 53 59 63 66 70 75 78 82 79 76 80 79 67 61 38 29 21 24 31 33 42 49 58 61 68 76 83 85 85 82 81 79 79 82 83 81 79 80 76 84 77 73 72 78 73
46 51 54 61 65 68 72 76 84 86 86 87 86 78 78 53 32 26 21 31 30 33 44 50 57 64 66 75 83 84 86 84 81 78 79 80 77 80 83 80 80 79 78 75 71 68 76
48 50 57 61 65 69 72 81 86 87 91 93 93 77 69 43 30 25 28 34 27 24 37 42 57 61 69 74 83 87 85 87 85 80 80 80 78 80 79 79 81 81 79 73 70 66 71
45 55 58 60 66 70 74 81 89 90 92 97 93 81 59 38 30 29 35 32 30 22 25 38 52 61 70 74 79 87 88 88 88 83 80 80 78 80 79 82 84 83 80 77 75 72 70
50 56 57 62 68 71 77 84 90 90 98 94 97 77 51 33 29 34 33 33 36 17 17 32 45 61 69 74 79 86 89 88 85 84 82 81 80 79 81 81 83 85 84 83 79 75 71
52 56 59 65 69 76 81 87 92 95 100 98 96 77 44 32 32 34 33 36 31 17 9 25 42 59 70 75 79 85 85 85 86 87 85 83 81 80 81 84 85 85 88 88 83 78 78
56 57 59 68 70 77 82 87 91 99 102 105 88 67 43 34 35 36 40 45 27 16 12 21 38 55 71 76 77 78 86 86 87 88 88 86 84 83 83 82 85 87 88 90 88 82 80
56 60 63 68 70 77 82 88 94 101 102 99 86 53 35 34 38 40 40 45 29 20 11 19 34 50 67 77 75 76 78 84 89 90 91 88 90 88 88 86 86 91 89 89 87 85 81
58 61 67 68 73 79 84 89 95 102 100 98 88 45 30 30 32 39 44 42 31 18 9 16 29 43 59 73 80 78 77 79 84 88 90 92 93 92 91 89 86 86 87 88 87 85 82
59 62 67 71 75 81 84 91 97 104 102 97 76 40 31 28 38 40 46 37 25 15 8 13 24 35 47 67 79 82 79 79 81 86 90 92 94 96 94 90 87 87 87 87 86 85 82
60 66 69 74 77 81 86 93 98 101 99 95 68 32 31 30 37 40 40 40 31 19 10 7 15 26 39 52 69 81 85 80 80 84 87 93 96 98 95 91 89 88 87 86 86 85 83
62 66 71 75 77 81 87 89 99 100 99 89 59 32 23 29 33 40 44 36 36 24 11 6 12 23 32 44 56 72 84 84 82 82 86 92 95 96 96 93 94 90 88 87 85 84 87
64 67 73 77 77 82 87 91 100 100 98 84 50 23 17 24 29 34 36 33 29 27 15 4 8 17 24 34 46 56 69 81 84 81 80 82 89 92 93 93 94 92 92 90 88 87 84
65 69 73 76 80 82 87 94 99 101 92 73 46 12 15 19 23 29 36 31 29 29 23 10 1 7 15 22 31 43 53 63 79 84 81 78 82 85 87 92 91 93 94 92 92 90 89
66 71 72 76 81 85 89 95 96 98 92 64 27 12 10 17 20 25 33 35 28 31 28 19 8 5 7 14 18 26 37 49 61 76 81 80 78 81 83 86 92 91 94 96 96 93 90
69 72 74 80 83 86 90 94 93 94 81 61 20 19 10 14 15 19 25 33 32 29 29 26 19 12 6 6 11 16 20 27 38 54 72 82 83 82 82 82 85 88 92 95 98 94 95
71 74 79 80 84 88 90 91 94 95 71 46 23 11 9 12 14 19 22 26 30 27 27 27 25 21 17 11 7 9 15 19 23 31 45 65 77 88 88 85 84 85 89 88 95 98 98
73 76 78 80 83 88 90 90 95 86 59 35 18 11 9 12 10 13 18 20 24 24 23 21 21 20 19 19 15 9 5 6 14 22 29 37 52 66 78 92 93 91 88 89 90 91 99

GFSGBSN_250_spd_093.txt.gz
Wind_Speed
9 12 14 17 18 22 24 28 27 27 31 35 36 33 31 32 30 24 29 35 38 39 42 47 51 53 54 56 58 57 57 59 58 56 55 51 47 43 44 43 42 42 39 36 31 23 20
8 11 13 15 19 23 26 28 30 27 30 37 37 38 34 31 32 32 32 34 36 41 43 45 48 53 57 56 59 60 59 61 61 59 58 55 49 47 45 47 44 45 41 38 33 28 19
7 11 14 16 19 23 27 28 33 30 30 38 45 44 34 31 32 31 35 43 43 43 44 48 46 52 56 58 61 63 63 62 63 62 61 57 54 51 48 48 47 43 45 41 35 27 24
12 14 17 20 24 27 29 31 35 35 36 37 44 49 54 48 38 34 32 37 40 43 45 47 49 48 54 59 65 64 65 65 65 65 64 61 58 55 51 51 49 46 47 43 37 29 17
15 19 23 23 28 31 32 35 38 42 43 42 46 50 56 58 50 44 42 41 44 45 41 43 52 50 51 62 64 66 66 67 67 67 66 64 61 58 56 54 52 50 48 46 40 32 31
20 26 32 25 29 35 35 39 41 42 45 48 52 55 62 65 62 49 44 46 47 48 47 45 47 48 53 59 65 65 67 68 70 69 69 67 64 61 59 59 57 54 49 48 43 41 34
26 28 32 27 31 34 37 40 42 46 47 50 57 59 64 70 63 60 45 45 42 46 45 46 45 50 53 58 67 68 69 70 72 71 70 69 68 63 63 63 59 57 53 50 50 47 36
27 31 31 29 33 34 40 42 47 51 54 57 60 64 72 74 68 65 52 44 42 40 51 48 49 49 53 59 65 71 71 72 72 73 72 73 72 71 67 65 63 58 56 54 49 44 41
32 33 33 31 33 38 42 44 48 55 58 61 65 70 77 80 73 71 53 40 38 44 50 49 47 51 52 56 65 72 74 75 77 75 76 78 78 76 71 69 68 63 59 59 53 48 49
33 34 33 34 36 42 45 48 49 54 59 64 67 72 79 77 85 77 49 29 27 34 37 41 44 48 51 50 59 70 76 79 80 79 80 81 82 79 76 72 71 69 64 63 58 58 57
32 34 33 35 39 45 47 50 51 56 62 66 70 74 82 84 83 81 42 20 20 25 30 33 39 43 46 48 52 63 73 80 83 83 82 82 83 81 79 75 75 75 69 66 62 64 61
32 34 36 38 43 46 49 51 53 58 64 68 73 76 83 85 86 77 35 18 17 21 25 31 38 43 42 43 50 56 67 78 84 86 85 85 86 85 83 82 79 78 73 69 69 67 64
34 36 39 41 44 47 49 52 55 60 65 70 76 78 84 86 85 74 33 16 16 19 22 28 33 39 43 42 46 55 61 73 81 86 87 86 86 85 86 86 82 79 76 73 73 75 70
35 39 40 44 47 49 51 53 56 61 67 72 78 80 86 84 86 68 33 14 17 20 28 33 36 41 46 47 48 51 61 69 78 85 88 88 86 85 85 86 87 83 79 74 72 80 84
39 41 42 45 48 50 52 54 57 62 68 75 80 82 87 85 83 66 32 18 19 22 28 39 42 48 51 53 55 52 59 69 76 81 88 89 88 88 87 89 90 87 83 78 78 80 86
42 43 46 48 50 52 53 55 58 63 69 76 80 83 86 89 81 60 32 19 20 23 29 36 43 48 55 57 56 56 60 68 76 81 86 89 91 89 89 90 91 90 88 85 78 78 81
45 45 46 49 50 52 54 55 57 62 70 75 80 83 87 86 82 55 31 25 22 26 34 38 47 51 56 61 63 61 62 70 74 83 86 89 90 91 90 90 91 91 90 86 80 78 78
51 51 51 53 53 54 53 54 57 64 69 75 80 85 85 91 79 51 32 28 32 32 33 30 34 41 46 48 55 59 60 68 73 81 88 91 92 91 92 90 91 90 92 90 85 79 78
56 56 55 56 53 52 52 53 57 64 69 76 80 85 87 89 81 48 32 33 37 41 24 26 26 32 37 41 47 55 63 69 75 79 87 93 93 91 93 91 92 89 90 90 88 84 81
56 57 56 55 51 49 51 54 58 64 70 76 80 84 86 91 78 44 37 39 45 47 28 27 21 25 29 35 44 53 65 74 77 78 86 91 94 93 90 91 89 87 85 88 89 87 84
53 50 49 50 47 47 50 54 58 64 70 75 80 83 87 93 69 45 38 41 47 51 36 27 20 22 25 31 42 56 67 77 80 79 83 89 92 93 90 90 91 91 89 87 87 88 88
48 45 47 45 43 45 50 54 60 65 70 73 80 84 87 90 67 42 37 40 47 50 35 22 17 18 21 28 37 51 67 78 82 83 79 85 88 93 93 91 91 91 89 90 87 86 87
43 43 40 39 41 45 51 56 61 66 67 73 79 83 85 80 61 39 35 36 45 48 34 18 12 16 19 23 31 46 63 75 81 82 82 81 85 93 95 94 92 93 92 89 87 86 86
36 37 37 37 41 47 53 58 60 62 67 71 78 85 86 79 53 33 33 35 43 46 33 17 9 12 16 18 25 38 55 70 77 77 78 77 79 84 89 93 92 91 92 90 88 88 88
39 38 38 40 43 50 56 58 61 63 67 72 76 81 86 71 49 29 31 33 40 42 33 21 9 7 9 13 18 29 45 60 72 76 74 75 76 80 85 87 91 92 93 92 91 90 90
40 43 42 43 47 52 58 58 60 65 70 72 77 82 81 62 40 23 26 28 36 39 36 28 16 7 2 4 10 19 31 49 64 73 76 76 77 76 79 83 87 89 91 93 94 93 93
43 43 46 48 51 56 60 59 61 64 70 71 76 80 80 59 32 21 21 21 28 34 38 31 26 15 8 4 1 8 19 31 49 66 75 75 74 75 77 80 84 87 89 90 90 93 94
49 50 51 53 57 60 60 62 63 65 69 71 76 76 80 53 29 20 19 15 20 27 27 28 26 24 17 10 4 1 4 15 28 44 64 72 72 73 75 76 76 79 84 88 89 91 93
58 58 59 57 59 63 65 65 67 69 70 72 73 74 79 51 26 18 18 13 15 20 19 21 21 16 16 15 14 9 4 4 10 21 35 52 69 73 71 72 73 74 76 79 85 90 93

GFSGBSN_250_spd_096.txt.gz
Wind_Speed
3 4 4 6 9 12 14 17 20 19 18 21 24 24 27 27 29 29 30 27 33 36 40 40 45 50 51 55 57 57 56 57 58 57 56 52 50 47 46 44 41 38 34 33 30 23 19
1 2 5 6 11 15 18 18 20 21 23 26 24 24 25 28 37 41 36 32 36 38 43 45 48 49 53 53 58 59 59 58 59 60 59 55 52 49 47 46 43 41 37 35 32 29 22
3 5 10 14 16 19 21 22 23 23 24 27 29 31 32 35 39 41 43 37 36 38 41 47 49 50 52 56 58 61 62 62 60 62 61 59 56 53 50 47 46 39 42 37 35 32 26
9 11 13 20 21 20 23 23 25 26 28 28 30 33 35 35 43 45 48 48 39 39 48 48 50 50 49 57 60 61 64 65 64 63 63 62 60 58 53 50 47 39 42 40 35 35 27
13 17 21 25 26 23 25 26 29 29 31 32 34 37 41 44 46 50 53 56 49 46 49 55 53 51 48 53 57 61 63 65 67 65 65 64 62 61 58 54 50 36 38 40 37 35 26
21 23 24 25 27 25 27 28 31 34 34 37 41 43 47 50 53 56 65 63 52 46 46 53 57 53 52 52 55 59 63 66 68 71 67 65 64 62 62 58 55 43 42 41 44 38 30
25 25 27 29 31 27 27 30 34 37 38 39 42 46 51 57 59 64 71 69 53 40 45 49 53 56 56 54 57 57 63 66 70 73 71 69 68 66 65 63 60 56 54 47 45 44 43
26 26 29 33 30 29 29 35 38 39 42 41 45 49 54 61 65 71 78 74 60 35 38 50 52 57 58 61 59 61 62 68 70 74 75 73 70 72 66 65 65 63 61 56 48 49 45
28 29 31 33 32 32 34 38 41 42 44 45 47 52 57 64 68 74 81 74 60 37 28 44 53 58 61 62 60 61 63 67 73 75 77 77 77 72 71 69 69 67 62 59 54 50 50
29 30 31 33 33 35 37 40 43 46 47 49 49 54 60 67 72 78 81 75 59 35 23 35 51 56 62 60 64 64 64 65 73 77 79 80 79 77 75 73 73 72 66 62 59 53 55
29 29 31 34 36 37 39 42 45 47 49 52 51 56 63 69 74 78 79 79 52 30 21 29 44 53 59 62 63 66 66 65 71 78 80 82 81 79 77 78 77 76 71 65 60 57 58
29 30 32 35 37 40 41 44 46 49 52 52 52 57 64 71 76 82 82 73 41 26 18 25 35 44 52 59 64 67 66 67 70 79 82 82 84 84 82 80 80 76 76 71 68 63 62
32 35 36 38 40 42 44 46 46 51 53 53 53 59 66 72 77 81 81 68 31 22 19 19 27 38 44 50 58 63 66 65 70 78 84 83 86 84 84 83 82 80 77 75 71 70 66
36 38 38 40 42 43 45 48 49 54 54 53 54 60 67 73 77 82 82 61 23 18 20 20 24 31 37 42 47 53 59 65 70 78 85 86 88 84 84 84 83 82 79 77 73 75 73
42 41 42 44 44 45 48 52 55 57 55 53 55 61 68 73 77 85 81 53 20 16 19 23 27 28 35 40 46 49 51 59 68 77 86 88 92 89 87 87 86 86 83 79 78 77 77
45 48 49 51 53 52 52 54 55 56 54 53 56 63 69 73 79 82 78 48 19 16 16 19 25 33 41 44 47 53 49 51 63 70 82 88 92 91 91 90 90 87 87 84 80 78 81
51 54 53 53 55 56 56 56 55 53 52 53 57 64 69 74 80 84 78 48 21 17 18 24 33 37 40 53 56 56 55 55 56 67 76 85 93 95 94 90 90 88 89 84 83 82 84
56 54 52 51 50 51 51 50 50 49 50 52 58 66 70 74 81 85 75 51 29 21 25 27 30 42 49 52 59 63 61 61 59 62 73 81 93 95 94 93 91 90 92 88 86 83 81
55 54 53 52 51 49 43 43 45 45 48 53 60 65 68 76 82 87 76 55 35 29 29 35 24 29 34 43 54 59 64 61 62 64 70 79 86 95 97 95 94 93 92 91 88 87 87
48 47 46 43 42 39 39 38 39 43 48 54 60 65 70 76 83 88 76 56 37 36 39 33 21 21 28 36 42 56 59 61 63 66 69 77 82 89 95 96 97 92 91 92 92 91 89
41 41 35 34 36 37 35 36 39 44 50 54 62 65 71 78 82 88 77 54 40 42 46 38 23 14 17 28 36 45 55 65 66 65 66 75 79 87 93 95 94 94 93 93 94 96 93
39 36 33 36 36 35 35 38 39 46 51 57 62 66 72 75 83 85 79 51 41 45 48 40 26 12 10 19 29 39 47 51 66 74 70 70 78 83 87 93 95 97 95 95 94 94 97
40 38 37 37 36 35 36 37 41 47 53 59 65 66 71 75 82 83 76 46 40 44 47 37 23 13 8 12 22 32 41 53 64 73 73 77 79 81 87 91 96 97 98 96 92 93 94
43 43 40 37 36 39 38 39 43 48 55 60 64 65 70 73 77 80 70 45 38 41 45 36 20 12 7 10 17 28 35 48 59 70 74 78 79 82 85 90 94 99 96 96 94 93 93
48 44 42 39 38 39 43 46 50 55 57 60 64 66 68 68 74 77 70 36 37 39 42 38 22 12 5 6 13 21 29 41 53 64 74 80 77 79 79 87 94 96 97 97 97 94 93
51 48 44 43 42 46 50 52 55 55 59 62 63 63 64 64 71 75 55 30 33 36 39 40 31 18 9 2 4 13 23 32 46 60 71 77 75 77 78 80 87 89 94 97 98 100 98
58 55 52 50 51 52 53 55 55 55 59 60 59 61 65 62 65 69 45 25 29 29 35 37 37 28 17 8 4 5 12 22 34 50 63 72 75 77 76 76 78 85 90 94 97 98 96
62 61 59 58 56 56 57 58 56 61 63 61 60 61 62 59 56 64 43 23 23 22 28 31 32 30 23 17 11 6 5 12 22 35 51 62 74 77 78 77 74 76 84 88 89 93 96
67 66 62 62 61 61 62 61 59 60 61 57 56 58 56 53 56 58 43 19 18 20 22 24 22 25 24 19 16 12 5 2 11 20 34 50 62 72 75 75 75 74 74 79 85 87 91

GFSGBSN_250_spd_102.txt.gz
Wind_Speed
9 9 9 8 7 8 10 11 12 13 15 15 18 19 19 18 17 19 18 20 22 22 21 21 25 32 41 47 46 58 57 57 55 55 52 48 46 42 40 37 37 40 35 23 19 22 19
12 12 11 10 9 12 15 18 16 15 17 19 19 21 22 24 25 24 23 24 25 25 27 29 29 31 35 47 50 55 60 60 59 57 56 53 50 47 45 41 38 39 38 30 25 22 22
15 16 15 13 13 15 17 16 19 21 21 21 23 23 26 29 30 31 30 30 30 31 33 34 37 38 38 39 51 58 60 64 62 61 60 58 54 51 47 45 40 41 39 31 27 25 24
17 17 17 19 20 23 24 24 25 26 27 27 27 29 31 31 32 33 34 36 36 38 40 41 45 48 47 46 52 58 64 63 67 64 62 62 58 55 51 49 43 39 38 34 28 32 29
19 20 20 22 25 28 28 29 29 30 29 29 30 32 34 35 35 37 39 39 39 42 45 49 54 59 53 56 56 58 66 68 67 68 65 64 64 60 56 51 47 42 39 36 31 30 29
22 24 25 26 27 29 31 32 32 34 33 32 33 34 35 35 37 40 41 43 44 48 53 58 63 65 57 56 57 59 67 72 70 71 69 68 66 62 58 54 51 41 37 33 27 22 36
24 27 29 31 31 32 33 33 35 37 36 35 36 37 37 38 39 43 45 48 50 51 58 65 70 67 50 46 55 64 66 73 75 72 73 70 68 65 62 59 52 46 37 35 32 42 41
25 27 30 32 33 35 36 37 39 39 39 38 38 39 40 41 43 48 50 52 52 55 63 71 73 64 39 38 50 61 68 72 76 75 75 73 69 68 67 63 53 43 46 38 33 46 33
28 30 32 34 34 36 38 39 41 42 41 42 42 42 44 45 48 50 52 55 54 60 68 71 73 49 29 34 47 59 69 73 76 78 75 75 75 74 70 67 59 50 41 47 47 38 45
31 32 34 36 37 39 40 42 44 43 45 44 45 46 48 51 51 53 55 55 56 65 69 69 69 39 26 32 47 59 69 71 72 77 77 76 79 76 73 70 68 68 48 48 52 41 45
34 36 37 38 39 41 42 44 45 46 47 46 47 50 54 55 54 52 53 53 59 66 67 66 59 27 21 27 42 57 66 70 70 72 78 77 80 77 74 73 73 68 59 55 44 44 32
38 40 42 42 42 44 46 47 48 49 49 48 51 50 48 48 44 46 50 53 61 62 65 59 51 19 17 24 42 56 63 68 68 70 73 78 80 80 78 75 75 72 66 58 52 33 45
46 46 45 46 48 48 49 49 50 50 51 54 49 49 51 40 40 43 47 56 61 61 60 63 46 17 17 19 39 54 61 66 67 64 69 78 80 80 79 77 79 78 74 72 54 51 23
49 49 50 51 51 52 52 54 54 55 56 50 48 47 39 35 39 42 48 56 59 62 61 64 45 16 22 22 32 51 59 64 68 67 69 76 80 78 78 82 82 83 83 79 66 50 29
51 53 54 54 55 55 56 56 56 54 51 46 39 35 31 33 40 43 51 54 58 64 58 66 43 16 20 27 30 46 57 61 68 71 69 73 80 86 87 87 88 89 92 93 76 64 48
52 52 53 54 53 52 52 48 45 43 38 32 29 27 30 34 42 46 52 54 57 62 57 63 35 21 25 33 35 40 56 61 67 74 75 75 74 81 88 90 90 91 101 97 90 79 64
53 53 52 51 49 45 35 35 30 27 24 22 24 27 30 37 41 50 53 55 56 62 57 62 27 24 26 35 41 41 50 61 65 73 75 73 72 77 85 89 90 94 97 101 98 91 77
47 45 40 39 34 28 28 28 27 26 25 25 30 32 34 39 45 50 55 59 56 61 57 61 22 22 29 28 44 48 47 57 59 64 75 78 76 82 76 84 92 95 98 100 103 101 97
31 32 27 26 27 27 28 29 30 31 32 30 36 35 36 44 48 52 56 57 61 58 59 60 23 21 28 36 41 50 57 57 63 69 71 76 74 73 74 79 90 94 97 100 103 109 106
28 29 29 28 29 32 32 32 35 36 33 36 37 36 44 46 48 55 60 60 62 59 59 57 27 25 35 44 50 50 63 66 64 67 69 74 78 77 77 84 86 94 98 101 102 109 109
35 37 38 38 37 37 40 40 37 37 38 36 38 41 46 45 54 59 62 61 62 61 60 57 30 30 27 33 45 51 60 56 67 67 73 74 78 84 88 81 86 86 95 97 101 102 108
43 44 47 48 48 49 49 48 45 44 41 39 40 44 43 48 54 59 63 62 62 62 63 63 35 32 24 22 31 45 52 61 67 69 69 73 77 78 76 80 81 81 88 95 101 103 107
51 52 52 52 52 52 53 51 49 46 43 41 42 44 48 51 54 60 60 59 63 62 61 66 39 32 21 17 25 40 51 57 51 61 67 69 70 69 72 81 80 82 88 97 101 99 103
57 58 58 58 59 58 57 55 51 47 47 43 43 46 50 51 53 60 57 58 59 65 59 64 43 36 30 14 16 31 39 47 49 56 69 68 66 63 65 67 75 79 82 87 94 99 113
50 48 51 50 52 58 60 62 58 52 50 49 46 45 50 52 53 58 56 55 58 60 54 61 42 34 35 17 9 18 31 40 42 48 63 68 61 62 62 61 60 77 84 89 95 101 107
41 42 45 47 45 45 41 41 42 49 51 53 51 46 49 52 52 54 55 54 59 59 53 57 41 33 33 22 5 8 13 13 28 43 60 68 68 68 68 66 63 62 74 83 88 91 96
42 45 41 41 44 43 42 34 36 34 41 45 47 48 49 48 51 50 53 54 55 56 52 54 43 32 27 28 14 7 19 9 13 34 53 64 69 69 68 70 70 71 69 70 82 86 85
40 39 38 42 41 42 42 41 35 32 30 34 41 43 46 45 47 51 49 49 53 49 47 50 40 32 25 25 19 2 18 31 37 30 46 55 66 75 77 82 80 84 78 72 77 84 90
44 46 44 41 42 43 41 39 38 35 31 31 31 36 41 44 39 48 45 46 47 47 44 48 36 30 26 18 19 11 5 30 31 32 28 46 60 74 81 76 74 84 80 87 81 86 88

GFSGBSN_250_spd_105.txt.gz
Wind_Speed
10 9 12 10 9 9 11 13 15 15 16 18 19 19 21 19 20 21 23 23 23 21 20 20 20 20 20 25 37 43 46 51 52 52 50 48 44 39 35 35 36 34 29 12 15 18 12
12 13 14 14 13 12 12 15 15 14 17 20 22 24 24 24 25 26 27 26 24 24 27 26 26 27 26 24 32 40 47 49 54 55 54 53 49 44 40 39 41 42 36 15 11 25 6
16 15 16 17 17 17 18 20 22 21 24 25 24 27 28 29 30 30 29 29 30 30 32 32 33 34 35 33 34 36 38 52 54 59 59 57 54 50 45 41 44 44 33 29 28 20 22
18 19 18 18 20 22 23 26 28 29 30 30 30 30 30 33 33 32 34 31 30 31 33 35 38 42 42 40 41 42 41 46 57 60 62 61 59 55 51 48 47 46 40 35 29 29 27
19 20 20 21 22 23 26 29 28 30 31 31 34 36 34 35 36 35 36 36 38 36 38 41 43 48 51 48 48 48 50 52 55 64 65 64 62 61 56 53 50 48 45 37 32 24 23
20 21 22 25 27 29 31 32 33 33 34 35 36 38 38 38 38 39 40 42 43 44 44 48 51 52 55 57 56 55 57 56 62 62 67 68 68 66 61 57 54 53 49 39 39 34 31
23 23 25 26 28 31 34 35 35 36 37 39 40 39 40 40 42 43 44 45 48 49 51 54 58 59 62 58 62 58 52 56 63 62 70 74 71 67 66 63 60 58 53 52 44 42 31
25 27 28 29 30 32 33 34 35 38 40 41 43 43 43 44 44 45 48 50 52 54 56 57 59 62 65 67 60 44 47 59 65 66 73 73 72 72 72 68 64 60 58 52 48 48 35
29 30 32 34 35 36 37 39 41 42 44 44 46 46 47 47 48 49 52 52 51 49 50 54 61 63 67 62 51 33 42 61 70 73 74 76 78 78 77 71 68 65 59 54 49 44 33
35 36 37 39 41 41 42 44 45 46 47 47 50 50 51 51 51 51 47 50 43 44 45 55 64 69 64 56 38 28 39 62 72 76 77 79 81 80 77 77 73 69 64 59 51 50 41
40 41 43 44 45 45 47 48 48 50 51 51 52 52 52 53 51 47 46 38 38 43 52 58 64 62 54 46 28 24 36 60 72 76 79 82 83 82 80 78 76 73 72 60 57 51 31
45 46 48 49 50 51 51 50 51 53 54 54 56 56 56 51 46 40 33 32 38 48 55 55 57 58 47 33 23 21 34 57 71 75 76 81 85 84 82 81 78 75 70 65 62 57 46
46 48 49 50 51 53 54 54 55 54 56 55 53 53 48 41 32 26 28 34 44 51 54 54 56 50 45 23 24 21 34 55 69 72 74 76 79 82 83 84 80 78 76 71 69 60 48
47 48 49 52 54 55 56 56 54 52 49 47 45 42 31 23 22 26 31 37 46 51 52 52 56 53 45 20 22 21 32 51 67 73 74 77 82 82 83 81 80 81 78 67 75 63 48
48 50 53 53 54 53 52 50 47 42 35 34 30 27 16 21 26 28 32 40 46 50 49 53 59 57 45 18 23 20 29 49 65 73 76 77 82 90 88 88 88 83 82 83 81 63 51
53 52 52 50 48 47 46 40 29 24 25 24 24 20 22 28 31 30 36 39 48 53 51 53 61 60 46 17 30 25 28 46 63 74 78 78 77 79 84 88 90 91 91 82 75 71 57
50 46 43 39 35 33 29 21 21 21 22 22 25 24 28 31 31 34 37 39 50 56 50 54 56 62 43 20 33 31 28 40 58 70 74 75 72 77 82 84 88 93 95 97 80 80 73
41 34 27 27 22 25 23 23 23 24 27 31 31 30 30 30 32 36 36 46 51 57 50 54 58 56 50 24 19 41 36 38 53 63 70 70 71 72 77 84 89 93 93 99 97 84 81
27 30 28 27 28 26 26 28 29 30 30 32 33 32 30 31 34 36 40 45 49 55 51 55 61 55 55 28 25 39 45 45 50 61 66 73 77 72 76 82 87 93 95 95 100 101 92
34 32 31 32 35 37 38 40 40 41 41 42 38 36 34 31 35 36 43 47 51 56 54 57 62 57 60 29 31 33 47 52 49 63 67 71 77 78 79 80 85 92 97 97 104 105 101
41 43 42 41 42 42 46 47 48 47 46 45 42 38 36 34 36 37 42 45 53 48 50 57 60 60 64 36 25 35 39 52 57 54 67 74 77 83 84 82 87 91 96 101 103 103 106
53 52 51 48 49 49 50 49 48 51 51 50 48 44 39 41 40 43 41 46 51 49 54 57 62 61 64 40 26 26 41 47 61 65 66 73 81 82 79 81 80 83 94 101 103 103 110
54 55 55 53 54 54 54 49 50 52 53 58 56 53 46 45 44 46 43 46 48 50 54 57 61 59 59 42 29 20 33 45 48 64 70 69 72 78 83 81 82 88 89 98 102 104 108
44 46 47 48 49 48 46 43 43 45 45 46 49 50 48 48 46 47 47 47 45 47 51 52 60 59 56 37 32 19 22 33 39 45 60 72 70 75 79 85 88 83 87 90 96 102 103
43 43 39 39 37 35 38 41 40 40 42 43 36 37 41 44 45 45 44 40 39 47 52 52 57 60 56 36 29 16 13 26 31 34 48 60 74 71 77 82 86 88 86 85 86 89 98
45 38 36 35 36 38 41 37 34 38 40 42 41 38 36 38 40 41 43 34 36 49 52 50 53 57 57 38 26 11 8 12 23 32 30 49 66 72 72 78 80 83 86 85 83 86 87
43 42 44 39 39 40 36 32 35 37 38 40 38 37 36 33 36 39 39 39 34 45 49 45 48 52 53 31 27 19 13 10 19 27 32 47 56 69 70 72 75 79 80 83 86 86 84
41 39 41 41 40 39 38 39 38 39 39 36 37 35 33 31 32 37 37 35 30 45 44 45 46 48 47 30 23 20 14 14 22 23 31 42 47 63 65 64 67 73 78 84 85 85 85
41 41 41 41 38 40 39 38 37 39 35 34 33 38 36 30 32 34 30 31 30 39 33 43 45 45 42 30 17 15 10 13 10 8 12 33 47 61 64 61 64 67 74 75 76 76 81

GFSGBSN_250_spd_108.txt.gz
Wind_Speed
8 8 9 11 10 10 10 10 11 13 15 15 18 21 22 21 22 21 21 21 23 20 18 17 18 19 19 20 20 26 34 37 44 48 47 44 41 38 34 33 34 27 17 15 7 13 14
11 12 13 13 15 14 13 14 14 13 16 19 22 23 23 24 25 26 26 25 25 24 24 24 24 25 25 27 26 20 22 34 40 46 51 50 45 40 39 37 39 33 28 19 5 20 12
14 15 15 16 18 18 18 19 21 22 24 26 27 27 27 27 29 30 28 28 27 27 27 24 26 26 28 30 33 30 26 26 35 43 49 54 49 46 44 42 44 39 33 20 13 11 18
16 18 19 19 19 20 21 22 24 26 26 26 27 27 29 30 32 32 32 33 33 33 33 32 34 32 32 35 39 42 35 34 33 38 48 55 55 51 50 48 48 46 40 21 20 13 24
18 20 21 21 22 22 24 24 25 28 30 33 31 32 32 34 34 34 33 34 35 37 38 39 40 41 44 44 44 43 46 41 37 39 41 53 57 58 54 52 51 56 49 33 19 21 19
19 19 20 22 24 24 27 29 31 33 35 35 35 35 35 36 38 37 37 38 39 39 40 43 46 47 50 54 56 54 48 49 51 44 45 48 57 63 62 60 61 62 58 48 40 31 28
21 23 23 22 24 27 29 30 32 34 35 35 37 38 39 37 38 39 39 41 42 42 44 48 51 53 53 57 58 56 49 48 57 58 54 55 58 65 71 69 64 62 61 57 52 35 32
25 25 26 28 28 29 32 33 35 37 38 39 40 41 41 42 43 43 44 44 44 47 49 46 49 44 46 53 56 56 53 53 64 67 68 64 61 71 75 72 68 66 67 67 61 49 45
30 30 32 34 35 36 38 39 40 41 41 43 44 44 44 44 46 47 47 46 47 44 45 39 36 42 51 57 58 60 60 47 49 58 64 68 74 77 79 77 74 75 73 69 63 57 48
33 33 34 36 38 40 43 44 45 47 48 47 47 46 48 49 50 50 49 46 40 34 28 32 43 49 55 59 60 58 42 42 44 56 71 77 80 80 82 81 81 78 74 70 65 60 44
37 38 38 39 40 42 44 45 47 47 47 47 47 49 50 50 49 46 43 34 24 22 29 37 47 52 53 56 61 50 43 37 42 55 73 87 84 86 87 87 84 79 77 74 69 67 58
40 39 39 39 42 45 47 48 49 49 49 48 46 45 43 43 41 33 22 17 22 26 32 40 48 49 50 54 57 47 34 29 34 50 73 85 86 82 87 88 87 83 80 78 73 73 66
41 42 42 43 47 50 50 51 49 47 43 41 39 37 35 34 25 15 16 22 23 29 35 43 44 42 51 50 52 40 27 25 30 49 77 86 84 87 88 87 86 83 82 79 77 74 69
45 45 45 48 50 53 52 49 45 40 39 37 29 24 24 17 13 18 21 26 29 32 36 43 45 42 48 50 57 33 25 22 29 50 77 85 86 88 88 88 89 86 86 83 79 71 62
46 46 49 50 53 48 45 39 35 30 25 20 18 17 18 15 22 24 26 29 29 31 40 45 47 46 49 56 59 28 25 19 31 52 79 87 88 88 90 91 91 89 89 87 81 75 72
47 49 49 50 44 39 31 25 23 18 18 18 16 18 23 22 26 26 27 27 31 32 40 44 49 46 50 52 61 29 26 19 26 47 70 83 85 85 88 91 91 90 92 88 86 79 76
49 49 46 40 33 26 23 21 20 20 22 21 24 26 25 25 25 25 27 29 30 39 40 44 48 44 47 55 54 31 29 27 27 48 67 77 78 81 86 89 86 88 86 89 87 83 75
45 41 37 30 27 28 25 23 23 25 27 30 30 34 34 30 28 29 30 34 33 37 42 45 47 45 47 49 54 39 27 34 28 43 62 73 76 79 81 88 89 91 91 93 90 88 80
37 36 33 32 32 31 31 30 31 32 34 39 42 40 36 32 28 30 29 34 35 39 43 44 48 43 49 50 51 46 22 41 34 38 59 73 77 79 83 87 89 93 92 93 96 95 85
40 41 38 38 38 38 39 39 41 41 41 42 41 41 41 40 38 35 35 37 41 42 45 44 46 44 45 50 53 44 25 32 45 39 52 71 79 81 83 85 85 90 94 97 97 95 95
48 48 48 46 47 44 45 47 48 46 44 43 43 42 42 44 46 44 43 43 43 41 45 50 46 44 51 51 56 51 25 32 43 48 53 66 80 82 80 79 86 90 96 97 95 99 92
43 44 46 48 49 47 49 48 49 47 44 41 37 36 41 42 42 43 44 45 45 44 44 43 37 46 55 60 57 55 21 31 42 56 56 63 76 81 81 79 85 89 91 96 99 102 100
44 42 41 41 42 41 42 44 45 43 39 35 39 34 35 39 38 40 38 42 43 43 43 39 40 49 56 57 60 50 26 22 42 51 57 59 69 79 83 85 84 85 93 97 100 101 108
43 42 43 40 40 41 42 40 40 38 34 34 36 32 32 34 34 37 35 36 40 42 39 38 40 50 54 52 59 46 26 17 34 50 55 61 62 70 78 87 89 85 90 94 95 100 107
46 43 42 43 38 40 41 36 34 35 35 37 31 30 33 36 34 35 36 35 36 38 37 34 40 50 54 50 58 39 25 14 27 43 52 57 59 63 74 82 85 87 87 94 92 97 104
47 44 45 43 42 40 39 36 36 35 38 32 30 32 37 39 31 31 34 32 33 36 36 30 36 50 46 51 56 41 23 9 15 33 49 57 59 61 63 75 78 83 86 88 92 95 101
48 54 45 40 42 37 38 38 40 41 38 35 36 36 39 37 30 27 30 29 30 32 30 26 36 43 43 51 53 45 22 11 3 18 38 51 63 65 69 65 74 76 84 85 89 93 98
48 48 46 42 41 39 37 37 40 38 35 34 37 36 37 33 32 32 32 29 30 31 28 24 33 42 42 46 48 49 31 21 5 5 12 32 56 63 71 73 69 73 74 85 86 88 94
53 50 46 44 44 43 41 38 43 40 41 36 37 41 38 34 38 36 32 29 29 28 24 25 33 33 36 41 41 42 29 23 6 8 10 19 32 45 69 73 72 66 70 74 84 91 91

GFSGBSN_250_spd_111.txt.gz
Wind_Speed
9 9 9 10 12 11 11 12 11 10 10 12 14 17 19 20 19 18 19 18 17 18 19 17 17 19 16 16 14 15 25 33 39 43 44 41 36 35 34 35 31 28 23 15 13 15 11
12 12 12 12 14 15 16 16 16 16 15 15 17 20 22 23 23 23 24 22 21 20 21 23 23 22 24 24 20 18 20 24 33 39 46 46 41 38 38 39 35 33 27 23 15 9 14
15 16 15 15 16 17 20 20 20 21 22 22 24 23 23 24 25 25 26 27 27 25 25 24 24 26 25 27 27 23 24 25 27 31 42 46 46 43 43 43 41 42 33 26 22 17 24
17 18 17 18 19 20 20 23 24 23 24 26 26 28 29 29 30 29 30 29 29 29 28 28 29 30 31 32 31 32 32 28 29 32 39 41 47 49 46 47 46 43 41 33 17 22 17
20 18 19 22 22 23 22 24 26 27 27 29 31 32 33 31 31 33 32 30 31 31 31 32 32 33 35 35 39 39 39 42 38 33 36 38 45 51 53 54 54 49 46 37 30 20 15
20 21 20 20 20 22 24 26 28 29 30 31 32 33 32 33 35 33 32 33 33 33 33 34 36 36 36 39 43 47 47 48 48 47 43 44 45 51 58 60 62 55 51 44 35 27 26
19 20 22 25 27 27 27 28 29 31 33 34 34 34 35 36 36 36 35 36 36 37 37 35 36 38 42 44 45 47 51 51 50 48 50 49 50 50 61 66 64 61 57 52 40 35 29
23 26 27 29 30 31 33 33 34 36 37 39 39 39 40 40 39 38 37 39 41 41 41 40 43 40 41 45 46 44 44 45 46 44 43 53 59 62 63 68 67 67 63 60 52 37 37
27 29 30 31 32 33 34 35 37 39 41 44 45 45 45 43 41 39 41 42 44 44 41 39 38 37 36 36 41 46 50 53 56 53 51 54 66 63 62 70 72 74 71 73 63 46 43
32 32 34 34 35 35 34 34 36 38 40 43 43 42 42 40 40 40 41 41 40 39 35 31 28 29 36 42 45 51 52 53 60 57 59 63 62 69 65 71 78 80 77 76 70 61 44
34 36 36 38 37 35 36 38 41 46 49 50 47 41 37 36 35 35 36 35 33 28 19 23 28 31 38 48 48 43 51 56 57 47 53 59 68 78 74 71 82 85 83 80 78 67 56
38 37 37 38 38 39 40 42 48 52 53 47 40 35 33 32 32 30 27 24 16 17 21 24 28 32 39 45 42 45 54 57 48 41 50 59 66 76 82 78 78 86 86 82 81 76 71
37 39 41 43 44 44 44 47 52 53 47 39 34 30 27 23 23 20 12 14 18 21 24 27 28 35 38 44 44 48 53 55 37 35 44 53 70 80 84 86 83 88 89 87 83 82 75
41 43 47 46 44 45 48 49 48 42 32 26 22 18 16 17 14 13 16 19 23 26 28 28 28 35 39 47 47 49 51 55 35 30 38 50 63 83 92 93 90 90 94 93 87 84 78
46 47 47 46 46 48 48 44 38 26 20 17 16 17 15 18 18 18 21 25 27 28 29 27 30 35 38 45 48 48 49 57 35 26 31 41 53 73 93 95 93 91 96 95 92 86 80
51 49 49 48 49 49 44 36 27 21 19 17 19 21 22 26 26 28 29 26 30 32 30 32 31 38 41 44 47 46 51 53 42 23 29 34 44 62 88 95 95 93 99 98 96 90 83
50 51 50 47 45 41 36 30 26 24 23 21 23 26 27 31 34 32 29 30 33 37 36 32 35 39 43 45 45 42 49 50 48 27 27 33 42 57 82 93 93 91 95 97 96 92 88
46 45 43 39 37 35 32 31 31 30 28 28 30 35 34 37 36 34 32 28 32 36 34 36 39 42 41 47 43 43 50 56 58 30 27 32 42 56 77 89 89 94 99 100 98 96 90
46 45 45 43 39 35 37 36 37 37 38 36 36 39 40 39 39 37 37 36 36 38 43 45 45 43 45 45 36 46 50 52 61 33 30 30 44 56 78 87 91 93 94 96 95 94 89
48 45 45 45 43 44 44 42 42 43 43 44 43 44 45 41 41 38 38 38 40 43 45 43 45 45 47 40 37 40 51 45 56 35 31 31 47 61 77 84 86 86 88 93 93 93 90
51 47 43 41 40 43 48 48 46 46 47 45 47 45 41 41 40 35 36 37 40 42 42 44 42 43 44 40 39 40 50 46 51 37 34 38 47 61 75 83 84 85 88 93 93 92 90
54 51 48 46 41 40 43 42 43 43 42 45 45 46 37 37 36 34 34 35 37 39 40 41 40 44 41 40 41 49 50 55 42 32 36 40 42 59 74 83 83 83 87 89 94 91 92
62 59 55 50 43 41 41 43 42 40 39 39 42 44 39 32 33 32 32 37 39 37 38 37 37 40 40 39 42 48 48 59 33 28 35 41 47 54 69 81 83 82 83 87 91 95 94
67 61 55 51 50 45 42 43 42 42 40 38 39 42 37 33 34 31 31 37 38 38 37 35 34 37 37 34 42 47 52 52 30 23 35 45 49 50 66 77 84 82 83 87 91 97 97
64 59 58 55 51 47 44 42 42 39 38 34 36 38 36 35 32 31 34 38 35 37 35 33 35 33 33 33 41 46 52 44 27 19 32 47 50 53 58 73 78 81 83 86 94 94 95
59 57 56 54 53 47 44 44 44 42 39 35 36 38 36 33 32 33 35 36 33 33 32 30 32 33 31 31 38 42 46 37 23 15 31 46 46 51 48 59 72 78 83 86 89 94 95
50 48 51 53 52 48 47 49 45 41 38 41 41 41 41 38 34 36 35 33 34 36 32 31 34 33 31 30 36 39 43 46 19 15 26 40 47 48 53 51 61 72 82 81 83 88 92
46 48 51 53 52 47 49 45 44 41 40 40 42 42 39 39 34 37 38 37 35 37 34 30 33 31 29 28 31 35 39 43 26 10 24 38 49 50 53 57 55 65 76 82 83 86 91
40 44 46 50 50 45 47 44 42 42 40 39 41 39 41 39 36 40 38 36 35 33 27 29 31 30 21 25 30 33 36 38 25 19 13 27 40 54 56 57 61 61 69 76 83 85 89

GFSGBSN_250_spd_114.txt.gz
Wind_Speed
10 10 9 9 11 11 11 12 12 13 12 11 10 12 16 19 20 20 18 18 16 16 16 14 12 13 13 14 12 13 20 28 32 36 39 37 34 34 34 33 32 32 32 20 10 16 9
12 12 12 12 13 13 14 16 17 18 18 18 18 18 19 20 21 21 20 20 22 21 20 20 18 18 18 17 18 17 18 21 28 33 36 40 37 38 39 38 38 35 34 28 20 18 17
15 15 16 16 17 17 16 18 21 21 22 22 21 23 24 25 26 27 26 25 24 24 22 20 21 21 21 21 20 20 19 19 22 26 34 37 40 42 42 44 43 39 35 29 31 23 18
19 20 20 20 19 20 20 21 22 24 26 25 24 25 27 30 30 30 27 27 28 27 24 23 23 23 23 25 26 27 25 22 21 22 24 30 37 44 46 48 48 45 38 34 32 25 17
19 21 21 20 21 23 22 23 25 25 26 27 29 30 31 31 31 30 30 31 27 27 28 27 27 27 28 27 28 28 30 30 29 29 28 28 34 41 51 53 53 50 44 39 40 26 21
17 18 20 22 22 21 23 24 25 26 29 30 32 33 35 35 35 35 35 34 32 32 32 31 31 30 30 29 30 32 32 34 35 36 36 35 37 41 51 58 56 54 51 50 42 33 29
19 21 21 22 24 25 26 29 30 31 32 33 35 37 38 39 39 39 39 38 36 37 36 34 34 35 33 34 35 36 38 41 42 44 45 45 48 48 48 57 60 60 58 53 43 39 33
23 24 25 26 28 29 30 31 33 34 35 36 38 39 41 42 44 45 45 45 43 41 39 38 38 38 37 37 38 40 40 40 41 43 45 52 55 53 51 57 65 66 63 58 56 47 37
27 28 29 30 31 32 33 33 34 34 36 36 36 37 39 42 43 44 45 45 43 42 41 40 40 39 38 38 36 34 34 35 39 42 44 47 48 54 56 59 69 72 70 65 62 54 44
32 31 31 31 32 33 34 34 34 34 36 39 40 43 49 45 44 41 41 41 41 40 38 36 35 32 31 27 26 31 38 42 47 51 51 55 54 52 56 65 73 77 77 71 66 56 55
31 33 34 35 35 34 34 36 36 37 40 42 47 51 45 39 37 35 34 35 36 36 31 28 20 19 22 26 30 35 40 43 43 44 47 56 55 56 55 68 75 79 80 76 73 64 56
34 35 35 36 36 37 37 39 39 39 42 47 50 43 36 31 30 31 32 31 29 26 17 17 19 24 26 28 33 37 42 42 43 46 51 56 55 59 62 68 76 80 85 83 77 72 64
37 37 37 37 38 40 42 42 41 43 45 46 39 27 22 19 17 18 21 20 15 15 19 22 25 29 31 34 36 37 41 41 44 47 49 51 44 54 67 71 76 83 88 89 83 84 74
44 43 43 43 44 45 45 44 45 46 45 39 26 17 16 15 12 13 13 18 20 22 26 29 31 33 36 36 36 37 42 42 44 48 48 41 33 46 63 75 80 84 88 93 89 89 79
49 49 48 48 48 48 47 48 47 46 37 30 24 18 16 18 18 20 24 25 27 31 30 30 34 36 38 41 43 42 45 43 44 47 48 43 27 44 58 76 85 87 88 95 94 94 89
50 50 51 50 49 48 48 47 45 39 32 27 27 22 19 21 23 25 28 33 33 34 34 36 38 44 45 44 45 48 47 46 43 45 48 43 33 32 52 66 87 96 92 92 99 101 97
48 47 49 49 49 47 43 41 38 34 28 28 31 29 27 26 28 34 35 36 36 35 33 33 34 35 39 44 46 48 48 46 43 43 46 46 44 29 35 62 77 98 98 94 102 102 100
51 49 47 47 47 45 44 42 38 36 32 32 33 34 36 35 37 37 38 40 39 38 38 35 39 43 47 52 52 47 46 43 43 43 48 44 51 35 29 43 72 94 103 97 98 103 103
58 55 53 52 50 50 47 44 44 42 38 38 40 40 41 42 43 43 44 42 41 40 41 40 42 43 45 45 45 49 45 40 39 44 47 45 53 41 31 32 59 84 102 100 97 101 102
64 61 58 56 52 49 47 43 44 43 44 43 44 45 46 45 44 44 45 42 41 40 42 41 42 40 41 38 40 42 40 37 41 43 45 50 51 40 30 27 51 77 99 101 100 97 101
67 65 63 60 59 55 50 47 41 41 42 42 41 46 47 44 42 43 46 44 43 38 39 38 40 41 41 38 37 38 39 38 41 43 47 57 45 37 32 27 43 65 87 99 100 97 98
71 68 67 63 61 58 56 48 48 44 41 42 41 44 43 38 39 41 45 43 42 38 39 38 40 43 42 38 34 38 38 39 46 46 55 49 39 36 34 31 40 57 78 94 98 96 95
69 69 68 66 63 60 57 56 53 51 46 44 42 40 40 39 41 38 43 41 38 37 37 37 39 42 42 37 34 37 35 44 45 50 54 38 34 34 34 35 42 57 74 90 93 90 90
61 65 66 65 65 63 58 58 57 53 48 43 41 42 41 40 36 34 35 36 38 35 37 39 36 39 40 33 34 37 39 43 46 53 47 29 28 32 35 37 42 57 71 85 90 88 88
52 56 59 62 64 65 62 59 55 52 47 47 43 39 38 37 33 33 33 32 33 36 36 34 36 34 35 34 36 38 39 40 47 53 38 21 24 32 34 37 43 56 73 81 87 89 89
47 49 50 55 60 59 59 58 59 54 52 48 45 42 39 38 37 34 35 33 36 36 38 32 34 35 37 34 36 37 35 37 44 51 35 16 20 34 34 37 43 55 70 82 84 88 88
39 42 43 45 49 50 52 55 55 54 52 48 44 42 40 40 41 39 38 39 36 37 38 37 35 35 35 33 35 32 33 34 39 47 36 16 20 36 38 41 41 51 62 78 83 85 88
35 32 33 37 39 44 47 50 51 53 50 49 44 43 44 41 37 35 40 38 35 37 39 37 34 33 31 31 32 28 32 32 34 41 32 17 16 31 37 42 42 47 59 75 79 84 85
36 35 31 31 33 38 44 47 49 50 49 46 46 43 42 40 36 33 37 36 39 38 38 36 35 34 32 28 28 30 31 29 31 37 35 17 10 26 39 40 47 45 52 68 82 81 84

GFSGBSN_250_spd_117.txt.gz
Wind_Speed
10 9 10 8 8 9 10 11 12 12 12 13 13 12 12 11 12 13 14 13 12 12 12 12 11 11 11 12 12 12 14 22 29 31 35 36 37 35 34 33 32 30 27 18 12 4 12
9 10 10 11 11 12 13 13 15 17 17 17 18 19 19 19 18 18 19 18 18 17 17 17 14 13 13 14 15 16 15 16 20 28 31 35 40 40 39 38 36 34 35 25 21 14 12
11 12 13 15 15 16 17 16 17 18 19 21 21 22 22 21 22 23 23 22 21 21 20 19 18 17 15 17 17 18 19 19 19 21 25 31 36 42 43 44 41 38 33 36 30 26 19
17 18 19 19 20 19 19 20 21 22 22 22 23 25 26 27 26 27 25 24 24 24 24 23 21 20 19 19 19 20 21 23 23 21 23 25 31 38 46 46 46 43 38 37 28 31 22
17 19 20 21 21 20 21 22 22 23 24 26 27 28 29 31 32 31 29 29 29 28 28 27 26 27 26 25 24 23 23 24 27 28 27 27 28 33 41 48 49 47 44 40 35 35 30
18 18 18 18 19 22 23 24 25 26 27 29 30 31 33 35 35 36 35 34 34 33 33 33 32 32 32 31 30 28 27 27 27 30 31 33 34 34 38 45 50 53 50 45 43 40 37
20 19 20 21 22 23 26 27 29 30 32 34 35 36 38 37 38 38 39 39 40 40 40 39 36 35 35 35 33 33 33 31 32 33 36 37 37 37 36 43 51 57 56 51 47 47 41
23 23 24 25 26 27 28 29 30 32 33 34 37 38 38 38 38 38 39 38 40 41 42 44 43 42 39 38 37 36 36 37 37 37 39 41 41 41 43 42 50 59 62 58 54 54 43
25 26 27 29 30 30 30 30 31 32 32 33 35 38 38 39 40 43 45 47 46 44 42 40 40 40 40 40 40 40 39 38 37 36 36 39 41 45 47 49 51 59 66 64 60 60 50
29 30 31 30 30 30 32 33 33 31 32 34 36 38 39 41 46 48 47 45 44 42 38 35 37 39 40 38 37 36 34 31 28 29 30 33 38 40 45 52 56 59 68 71 67 65 59
33 33 31 30 31 32 33 33 32 34 35 35 36 38 40 42 40 35 32 31 31 31 29 31 32 33 31 26 22 21 24 27 30 33 37 40 42 46 51 54 57 64 67 75 75 71 62
36 36 35 34 33 34 34 34 35 35 37 37 38 39 39 34 24 22 21 21 21 22 22 23 18 14 15 18 22 25 28 33 37 38 42 43 43 44 49 56 62 66 73 78 82 76 70
39 39 39 40 41 40 39 39 39 40 40 40 41 39 37 24 16 14 12 11 9 7 8 10 14 17 21 25 29 32 36 39 40 39 41 41 42 46 50 54 60 73 78 77 86 83 77
44 45 45 45 44 44 44 43 42 42 41 42 40 36 31 21 17 15 15 11 13 15 16 19 23 26 27 30 34 36 40 43 42 43 46 47 45 44 48 49 52 67 77 83 88 88 81
44 46 47 48 49 49 48 46 45 43 41 41 38 32 28 22 21 19 20 21 22 23 25 28 30 32 33 35 39 41 42 44 44 46 49 51 45 43 43 47 43 55 77 84 84 92 85
49 49 49 49 49 48 47 46 44 43 39 37 35 31 28 25 25 25 25 25 27 29 32 33 33 35 37 38 41 43 44 43 47 50 53 49 46 42 41 35 35 55 75 78 83 97 93
54 55 55 53 50 49 47 44 41 40 38 37 35 31 30 31 29 29 33 33 34 35 35 37 39 38 37 40 40 46 48 48 51 49 43 42 43 40 41 34 28 55 75 81 86 96 96
57 59 59 60 58 55 49 47 46 42 39 36 38 38 35 35 36 36 37 41 41 41 41 39 39 38 38 38 36 34 35 38 40 39 40 41 41 42 40 36 28 46 71 85 86 94 100
64 64 65 65 64 61 57 54 50 47 44 42 43 42 43 41 40 40 43 44 42 42 42 40 40 36 37 40 39 38 37 37 35 37 41 40 41 42 39 40 35 31 66 85 92 96 101
71 69 69 68 70 66 62 59 55 50 46 44 42 44 43 42 44 44 45 47 46 43 43 43 42 39 38 38 38 41 41 37 34 36 40 43 41 41 42 45 43 33 53 78 95 96 102
75 75 74 71 70 69 67 65 59 55 53 46 43 41 40 42 40 42 43 42 42 43 45 43 43 39 39 37 38 39 37 36 35 37 39 40 43 44 47 48 43 35 44 72 93 98 98
71 67 66 63 64 67 68 67 63 59 54 52 49 46 44 40 40 41 42 41 41 42 46 44 42 38 38 37 38 39 37 34 36 39 41 42 44 50 51 43 39 37 41 62 86 101 100
52 52 52 53 56 61 64 66 64 61 57 54 48 47 46 44 43 41 39 38 37 39 42 39 35 36 36 36 35 37 36 35 38 41 42 46 53 55 43 34 34 37 44 57 77 94 105
47 44 42 42 44 50 56 60 63 61 59 56 52 51 49 47 44 40 40 42 39 38 35 33 33 32 35 35 30 35 36 36 38 40 42 49 55 48 29 25 33 40 46 57 70 86 102
40 39 40 42 42 41 45 50 54 56 55 54 53 54 51 49 45 39 38 38 36 36 35 33 31 34 34 33 33 37 37 35 36 38 43 50 53 33 17 26 38 42 43 50 62 80 97
38 37 39 38 38 39 41 42 46 49 52 54 55 53 53 49 44 41 38 37 36 36 34 34 37 35 35 37 35 36 34 32 36 36 40 47 43 23 12 26 35 38 43 49 57 69 88
35 36 36 35 37 35 36 40 42 46 48 50 51 51 53 49 44 40 38 40 37 38 39 35 35 34 34 36 36 34 31 32 30 31 37 44 37 16 14 27 35 37 44 50 55 61 78
35 35 34 35 34 32 31 35 39 40 43 45 48 49 51 51 44 39 37 40 37 37 36 35 34 34 34 36 36 30 29 29 27 31 33 41 36 17 13 28 35 35 40 47 56 63 70
34 34 35 33 33 32 30 31 33 35 38 42 45 46 47 47 42 40 38 39 38 36 31 31 33 34 31 33 31 29 27 26 25 28 28 34 36 21 9 27 35 36 39 45 54 59 67

GFSGBSN_250_spd_123.txt.gz
Wind_Speed
12 13 14 13 12 13 12 12 12 12 12 12 12 12 12 12 12 11 11 10 8 9 9 10 10 9 12 16 16 17 21 26 29 33 37 37 37 35 32 31 29 26 25 25 21 15 9
13 14 15 15 14 13 14 15 15 16 16 16 17 18 18 18 18 18 17 18 16 16 15 13 14 15 13 15 19 20 18 19 24 28 33 36 37 37 37 35 33 29 29 28 24 19 10
15 14 15 16 16 15 15 16 18 19 19 19 19 20 21 22 23 23 22 21 22 21 20 19 17 17 17 17 19 22 23 22 21 23 28 32 34 36 39 39 38 36 33 32 28 26 18
17 17 17 17 16 17 18 19 21 22 22 23 24 25 25 25 24 25 25 24 25 25 25 22 22 20 19 20 20 20 23 26 25 24 24 26 31 35 37 39 41 41 39 37 31 30 23
19 20 20 20 21 22 21 22 24 25 26 26 27 27 27 28 28 28 28 28 28 28 29 30 27 25 24 22 22 23 22 23 26 28 27 26 26 30 36 39 44 45 44 41 37 36 29
21 22 22 23 22 22 24 24 26 26 28 29 30 30 30 31 33 34 33 33 33 34 32 32 34 31 29 28 27 26 25 24 24 26 28 30 29 28 31 37 43 49 48 46 44 41 36
24 25 25 25 26 26 26 27 27 27 28 29 30 32 33 33 34 34 35 36 38 38 36 35 35 35 35 33 33 32 28 27 27 27 28 29 32 34 32 32 39 47 52 51 48 46 43
26 27 27 28 28 28 29 30 30 29 30 32 33 34 34 33 32 34 35 36 38 37 39 39 38 38 39 37 37 38 36 35 34 30 29 30 31 34 38 37 34 39 49 53 53 50 51
26 28 29 29 30 30 31 31 32 33 34 34 33 34 34 34 33 35 35 37 38 38 39 40 40 39 39 38 39 37 37 38 39 37 35 35 33 35 36 39 39 36 40 50 56 55 53
27 28 29 30 31 32 33 33 34 35 34 33 32 31 30 30 32 36 36 38 39 40 40 38 38 40 42 44 43 41 40 37 37 37 37 37 37 37 39 38 40 43 41 41 52 58 57
27 28 30 31 33 34 35 36 37 36 35 34 33 33 33 31 33 36 36 37 35 31 28 27 25 24 26 29 32 34 36 35 34 34 35 35 39 39 39 40 42 43 47 47 44 53 61
33 35 35 35 36 37 38 40 40 40 40 40 39 39 38 36 34 35 33 31 26 20 16 15 16 16 16 17 20 23 26 28 29 31 32 33 33 34 36 38 40 41 45 50 53 48 53
36 39 41 42 43 42 42 43 43 44 43 43 42 41 39 39 36 33 31 27 23 18 12 5 4 4 8 10 12 14 15 16 17 18 19 22 23 26 29 32 37 38 42 46 49 55 56
39 42 44 46 47 49 49 48 48 47 44 43 43 42 40 39 36 32 28 25 24 24 19 13 10 9 10 11 13 14 16 19 22 24 26 28 31 33 36 39 42 46 48 51 53 54 59
44 47 49 51 54 54 53 53 54 51 50 46 45 41 39 37 35 32 29 26 24 28 25 23 20 18 18 19 21 23 25 26 27 29 32 32 27 32 32 35 37 42 48 52 55 58 57
55 58 62 61 60 58 60 59 57 55 54 52 50 47 41 39 36 32 31 28 26 28 28 27 25 22 22 24 26 28 29 31 34 35 37 37 35 33 34 34 37 40 42 46 49 53 57
63 64 65 69 67 70 67 65 63 61 58 56 52 50 49 42 40 35 32 31 30 31 32 30 28 27 28 29 31 32 30 31 30 34 38 38 37 32 36 32 34 38 37 36 38 43 49
69 73 75 74 74 69 68 72 71 66 63 60 57 54 55 47 41 39 37 35 36 35 36 37 35 34 35 34 33 33 33 30 33 33 34 35 39 37 39 37 40 38 39 40 40 44 46
76 78 78 74 67 66 63 66 72 74 70 67 63 58 58 51 48 45 45 42 42 39 41 38 38 39 39 38 38 36 34 34 33 32 33 34 37 38 39 39 41 39 43 42 42 45 43
76 82 71 70 62 60 57 57 61 68 74 71 67 64 61 55 54 51 48 43 44 43 42 39 37 36 38 40 39 36 35 36 36 36 37 37 38 39 41 42 38 43 42 43 46 43 42
74 74 70 61 58 53 49 52 52 52 61 67 70 67 62 62 59 54 52 48 46 45 43 39 37 35 35 35 36 34 35 36 37 37 36 36 37 36 36 39 36 39 40 42 46 38 39
72 73 68 59 53 49 44 40 40 42 48 52 60 64 63 59 58 56 52 50 46 46 44 41 36 32 32 35 37 34 34 36 36 35 32 32 32 35 38 40 38 39 41 42 54 49 43
75 73 63 55 49 47 40 37 35 36 39 42 47 51 52 54 54 52 52 54 51 45 44 42 38 34 34 34 32 32 31 32 33 31 32 33 33 38 43 38 37 40 48 50 53 51 50
77 72 60 52 47 43 37 36 34 33 33 32 35 40 46 54 53 52 52 53 54 48 45 45 39 37 36 34 34 32 31 34 33 33 32 33 37 39 42 38 40 43 49 52 55 58 52
79 71 54 47 42 39 35 36 33 31 30 32 29 33 39 47 50 52 52 52 53 51 48 46 41 38 37 35 32 30 32 32 35 35 35 36 40 41 40 41 44 39 49 52 47 48 63
79 66 51 41 38 36 34 35 32 30 29 29 28 30 36 42 45 50 51 52 51 52 49 46 44 41 39 35 32 31 32 32 34 34 35 36 38 40 40 41 44 44 36 21 30 34 46
78 64 47 37 35 35 32 35 32 30 29 27 27 28 34 39 43 46 51 52 51 49 51 47 47 45 42 38 33 30 32 34 34 35 36 38 40 39 37 41 44 40 28 30 30 22 27
75 58 42 35 34 34 33 34 34 31 30 28 26 26 32 37 41 44 47 50 50 50 52 48 48 44 41 39 34 30 29 31 33 33 36 37 38 35 35 39 43 35 19 16 23 28 33
68 49 38 35 34 34 34 33 34 32 30 29 28 25 29 34 39 43 46 48 51 50 49 49 47 44 39 36 33 31 27 30 32 31 35 37 35 34 32 35 36 29 18 14 21 27 34

GFSGBSN_250_spd_129.txt.gz
Wind_Speed
12 12 13 12 12 14 16 16 14 14 13 14 13 13 12 11 11 12 12 11 11 11 11 11 11 12 11 9 8 8 10 16 22 28 31 34 34 34 32 30 27 23 26 29 25 19 15
12 12 13 14 14 13 14 16 17 18 18 19 19 19 18 19 18 18 17 17 16 17 18 18 17 16 16 14 15 11 9 11 13 20 27 32 34 34 35 33 30 26 24 26 24 22 16
12 13 15 15 16 17 18 18 18 19 21 22 22 22 23 23 23 22 22 22 22 21 21 21 20 22 20 18 17 16 14 11 13 14 16 26 31 36 35 37 36 36 31 24 20 25 23
14 15 16 17 17 18 20 21 22 22 24 26 26 26 26 26 26 27 26 27 28 27 25 25 25 24 25 24 22 19 18 16 15 15 16 16 23 29 35 39 38 38 33 25 22 25 25
15 17 18 19 20 21 23 23 23 24 25 26 27 27 27 28 29 30 31 30 31 32 32 31 29 29 28 29 28 25 23 20 20 17 16 18 17 21 30 35 37 38 38 33 39 8 28
15 17 18 20 21 23 25 26 26 27 27 26 26 27 29 28 28 29 29 29 31 33 34 34 34 34 33 33 30 31 29 25 23 22 20 18 19 21 22 28 33 36 39 40 42 32 25
16 18 19 20 22 23 25 27 29 29 30 30 30 30 31 30 30 32 32 30 31 33 34 31 31 34 35 37 37 35 34 32 28 25 23 23 21 21 23 21 23 32 36 41 46 42 33
11 13 15 17 19 21 23 26 29 31 32 33 34 34 34 34 34 35 33 31 30 31 33 29 29 30 32 35 36 38 38 37 36 31 29 27 25 22 23 23 23 24 30 38 44 48 45
12 14 17 19 21 22 23 26 27 29 31 34 36 36 36 36 37 37 35 31 29 29 33 31 29 30 31 33 34 38 39 38 38 38 35 32 29 27 25 26 26 25 26 31 38 47 47
13 15 18 21 23 25 26 29 31 32 33 34 35 37 39 40 39 40 37 33 33 32 33 36 32 31 32 33 34 36 39 41 42 40 39 37 35 33 33 29 26 28 28 29 32 42 47
16 18 21 26 28 30 31 33 35 37 40 41 41 43 42 42 41 42 40 40 39 37 32 35 33 29 25 27 25 32 37 41 42 42 40 39 35 36 37 36 34 31 31 33 33 36 45
22 21 25 28 28 30 34 35 36 41 43 47 47 49 50 48 46 44 39 39 40 39 32 31 31 27 21 22 22 22 27 34 42 41 39 36 37 38 36 36 37 37 36 37 37 38 40
25 28 31 35 36 37 41 41 45 44 49 51 51 55 54 53 49 49 45 39 39 40 31 28 32 23 19 13 14 16 18 23 28 38 41 40 37 38 37 37 39 39 39 40 42 43 41
29 33 40 42 42 44 48 48 49 52 51 53 53 54 57 58 54 50 49 43 44 40 34 28 30 27 22 16 10 5 9 13 16 21 28 32 34 34 35 36 38 40 40 42 44 42 43
36 40 44 45 47 50 53 53 55 56 57 60 62 52 59 57 56 53 47 45 52 43 37 31 30 27 24 22 17 12 9 10 11 14 18 21 24 27 31 32 36 38 39 41 44 45 46
44 46 47 49 51 56 57 58 61 63 64 66 69 57 56 51 55 53 47 48 54 47 38 34 31 32 27 29 26 21 18 16 15 15 16 20 21 25 26 29 30 30 30 36 39 41 42
47 49 50 52 56 58 60 65 68 69 69 74 72 59 48 52 53 49 50 54 56 49 40 37 35 34 31 31 33 29 25 22 20 18 18 21 27 30 32 36 36 37 36 38 41 41 43
51 54 56 59 61 65 68 70 71 74 75 79 65 55 44 50 47 48 52 57 55 52 44 39 40 39 35 32 33 34 28 27 26 25 22 24 24 23 27 32 37 42 43 41 39 41 37
54 57 61 63 66 69 69 73 75 77 80 78 60 54 41 43 45 46 52 56 54 53 50 44 43 43 37 37 34 37 27 30 32 29 29 29 27 26 28 27 25 28 33 35 38 42 41
60 62 64 66 66 68 73 76 78 82 82 77 64 57 37 40 43 44 49 53 53 53 52 48 46 44 40 38 38 39 33 36 36 33 31 30 30 31 33 30 28 30 34 33 31 35 40
64 65 66 69 71 74 76 79 80 85 81 77 65 50 37 38 39 41 43 49 53 56 55 53 49 47 48 43 43 40 35 33 35 32 32 33 32 30 32 32 28 30 34 40 39 39 41
71 71 73 74 76 79 79 80 85 83 78 70 59 43 36 37 37 39 43 48 54 61 57 53 50 51 51 50 47 45 39 30 32 35 33 33 33 31 36 36 33 32 32 30 25 28 35
75 76 78 79 80 80 80 83 81 78 74 65 54 37 36 35 35 37 44 48 54 58 53 53 53 53 54 50 46 43 41 35 33 36 33 30 32 32 34 33 28 28 29 33 34 36 40
79 80 80 81 81 81 83 83 83 78 71 61 45 35 36 36 34 37 37 47 50 55 54 57 52 50 51 51 49 42 39 37 37 35 32 28 30 32 33 30 32 30 33 38 38 42 46
82 81 82 83 85 82 84 81 79 73 68 56 38 34 34 35 34 35 35 38 45 51 57 60 57 53 53 51 47 43 39 42 40 35 32 29 29 30 29 30 34 32 35 34 39 46 50
82 82 82 82 85 84 80 81 75 71 64 47 34 33 33 33 32 33 32 36 40 46 58 59 56 52 57 52 47 41 42 43 39 37 34 30 28 28 28 31 31 27 32 37 41 50 51
83 84 82 85 87 84 82 80 72 65 57 37 32 32 33 31 29 30 30 32 36 43 49 56 57 56 57 53 49 47 44 41 39 38 34 30 27 26 27 30 27 32 32 37 45 43 42
84 86 86 90 85 80 78 73 66 60 47 32 32 32 31 30 29 29 29 31 32 40 45 50 56 54 56 54 52 47 45 40 40 38 35 30 29 25 27 28 28 31 32 37 40 43 38
89 89 88 82 75 72 71 67 60 54 36 31 34 32 31 30 29 28 28 28 32 39 45 47 50 50 51 52 52 50 46 43 42 39 35 30 30 28 29 31 30 28 28 33 28 27 15

GFSGBSN_250_spd_132.txt.gz
Wind_Speed
9 11 11 10 10 11 13 15 14 14 13 13 12 13 13 12 11 11 11 11 10 10 10 9 10 10 8 6 6 6 9 14 21 24 29 33 34 32 34 31 29 27 24 18 21 14 14
9 10 11 12 12 11 12 13 14 16 18 18 18 18 18 19 18 18 19 17 16 16 15 16 17 17 16 10 12 10 9 10 14 19 23 27 33 35 34 35 33 29 24 23 22 27 22
9 9 11 12 12 13 14 15 17 18 19 19 20 21 22 23 23 23 24 24 23 23 23 21 21 21 19 19 19 17 14 13 13 15 17 25 29 33 36 36 34 33 30 25 24 25 22
9 10 12 13 14 14 15 16 17 20 21 22 23 25 26 26 26 27 28 28 29 28 28 27 26 25 24 24 22 23 20 18 18 16 16 18 22 29 34 36 36 35 34 29 19 14 21
9 10 11 13 14 16 17 19 21 22 23 24 25 25 25 26 26 27 29 30 31 32 32 32 31 31 31 30 29 27 26 25 22 20 18 19 20 21 31 35 35 33 38 39 31 16 14
9 10 11 12 13 14 16 18 19 22 23 25 26 27 27 26 28 29 28 27 27 28 28 30 31 33 34 34 34 32 31 30 28 25 23 21 21 25 27 29 33 36 38 42 43 39 23
6 6 6 7 9 11 14 17 18 20 22 23 25 27 29 29 29 29 30 30 29 29 30 29 30 30 31 31 35 37 36 34 33 32 27 24 26 25 25 24 27 35 36 40 43 44 42
5 6 8 10 12 14 15 16 17 19 21 23 25 27 29 30 30 30 29 30 32 31 29 28 24 26 27 29 32 34 37 38 39 35 34 32 27 27 24 25 27 29 31 37 41 43 43
5 6 7 9 12 15 17 19 20 21 23 24 26 29 31 33 34 33 33 33 33 33 32 28 27 28 28 28 31 33 36 38 39 41 39 37 32 30 29 27 27 28 30 30 35 43 42
9 9 9 11 15 18 20 20 22 25 26 27 29 31 34 35 37 38 38 36 35 36 37 34 31 29 29 27 30 32 35 38 39 41 40 39 39 35 33 30 28 30 28 27 30 39 43
14 16 16 16 18 22 24 24 25 29 29 32 31 35 37 37 37 38 41 38 36 38 39 41 29 28 28 25 27 27 31 38 39 39 41 41 41 39 38 37 35 30 28 31 35 35 39
18 19 19 19 22 28 29 30 32 35 37 38 38 40 43 43 40 43 44 41 39 38 38 42 34 29 27 26 25 25 22 28 37 41 43 44 44 45 44 40 41 36 35 35 34 35 37
18 24 25 26 29 32 32 34 35 39 43 42 42 46 49 47 46 52 49 47 43 45 38 41 40 30 27 27 23 21 20 22 26 34 41 44 43 42 41 40 40 39 39 40 38 37 36
25 28 29 32 35 36 36 37 41 44 45 49 49 51 50 52 53 57 49 42 42 52 47 38 36 38 31 27 24 22 17 17 18 25 30 37 43 43 42 41 42 40 39 41 41 41 40
29 31 33 35 37 39 42 43 45 48 50 56 53 56 58 56 58 58 48 41 49 57 54 40 37 39 35 30 26 26 16 11 13 17 22 29 39 44 43 41 42 40 41 40 43 44 44
35 36 39 41 42 44 46 49 52 54 54 56 58 59 60 62 64 56 46 44 53 61 58 48 41 35 38 32 26 31 23 17 14 12 13 18 24 31 35 38 39 39 38 40 41 40 43
40 43 45 46 48 50 52 54 56 56 55 59 63 63 64 66 65 54 45 47 55 62 57 51 45 41 41 37 31 33 30 25 22 18 18 18 18 20 24 26 28 29 33 36 36 39 42
46 49 50 52 54 56 56 56 58 61 61 65 67 64 66 67 60 52 47 47 55 61 58 50 50 44 41 41 35 30 35 33 30 27 25 21 19 22 27 29 31 34 34 35 36 36 36
51 53 56 59 61 62 64 65 67 67 69 68 67 68 62 66 63 50 43 42 50 56 58 53 52 48 46 43 38 32 32 41 37 34 30 26 20 21 24 23 26 31 35 39 42 44 43
57 59 61 63 64 66 67 69 70 70 70 71 72 70 70 62 58 54 41 41 47 52 52 51 53 51 50 47 43 35 36 37 40 37 32 31 26 27 28 25 24 27 29 29 27 26 27
61 62 65 68 71 72 73 73 72 72 74 76 75 72 69 60 55 50 39 39 45 52 53 51 51 53 51 49 45 39 37 38 38 40 35 33 32 30 27 26 24 28 30 29 30 31 33
68 71 73 75 76 77 76 73 75 76 76 76 73 72 67 61 53 45 38 37 41 43 45 45 50 56 52 49 48 45 42 41 38 39 38 35 33 32 29 28 26 26 30 33 33 35 36
74 73 73 74 75 77 75 76 77 77 75 76 77 73 67 59 50 39 33 34 36 40 42 43 52 57 54 53 51 49 44 42 39 36 35 35 35 34 30 26 28 30 30 31 33 29 31
73 73 73 75 77 78 80 78 79 77 77 78 80 70 65 55 44 35 32 33 35 36 42 46 50 55 57 54 52 51 47 43 42 42 38 35 34 32 30 27 29 28 29 33 30 30 32
69 72 76 80 81 82 83 81 79 79 82 78 71 62 59 50 37 31 33 34 36 37 41 47 50 57 61 55 53 53 51 47 46 41 42 41 34 31 29 29 31 30 29 31 33 33 36
74 79 82 85 86 85 82 81 81 82 80 70 60 55 52 45 29 32 34 32 36 37 40 43 51 59 61 57 53 53 54 51 51 45 44 40 36 34 32 29 28 25 30 32 34 33 34
84 87 89 89 90 86 85 85 80 76 67 58 54 52 48 38 28 34 32 33 36 38 41 41 48 53 61 60 58 56 55 52 51 45 43 40 39 37 33 30 28 27 26 29 28 31 35
89 91 93 92 90 86 81 73 66 59 55 53 52 48 43 30 31 33 31 32 34 37 38 38 43 49 60 60 60 60 55 52 48 46 43 41 40 38 35 33 29 26 25 30 31 30 35
94 94 93 89 82 74 64 54 53 51 52 52 49 44 35 29 33 32 31 32 33 36 36 35 41 44 51 57 58 58 55 49 49 50 42 40 40 39 39 33 28 26 30 31 30 31 37

GFSGBSN_250_spd_135.txt.gz
Wind_Speed
10 9 10 9 9 9 10 11 11 11 11 11 11 12 12 11 11 10 11 11 12 11 11 11 11 9 8 9 10 9 11 15 20 24 28 33 37 36 34 32 31 27 28 24 21 18 14
10 9 10 10 10 10 10 11 11 11 12 13 15 16 17 17 18 18 18 19 19 19 18 18 18 17 15 15 16 13 13 12 13 17 24 29 34 36 35 34 34 33 29 30 27 21 18
9 8 9 9 10 11 11 12 13 14 15 16 16 17 18 19 21 23 24 24 24 25 25 25 24 25 23 20 21 19 18 17 16 14 19 25 28 32 35 35 35 36 31 29 26 26 24
8 8 8 8 9 10 11 13 14 15 16 16 17 18 19 20 23 25 26 27 28 28 29 30 30 29 30 28 27 27 24 22 21 17 18 21 21 29 33 33 35 33 35 33 29 25 22
9 8 8 8 9 10 11 13 15 16 17 19 20 21 22 23 22 21 23 26 27 29 30 32 33 33 33 33 31 33 31 29 26 24 22 21 20 25 31 31 34 32 32 33 33 25 22
8 8 8 8 7 8 10 12 12 14 15 15 16 17 18 19 20 21 23 24 26 27 27 27 30 30 29 32 34 35 37 35 32 30 28 24 24 26 26 28 31 34 34 34 34 32 21
5 4 3 4 5 7 8 8 9 10 11 12 14 14 15 15 17 19 20 23 25 27 28 28 29 30 30 30 30 33 35 39 38 35 33 32 29 28 23 25 27 30 34 36 36 38 37
4 2 1 2 4 5 7 8 9 10 12 14 15 17 20 21 20 22 23 23 26 26 27 29 29 29 27 25 25 30 33 37 39 38 39 38 34 30 26 25 27 28 30 35 37 39 43
1 2 3 3 4 6 9 12 14 15 16 18 17 20 20 24 25 25 29 30 29 31 28 29 31 31 31 28 27 28 31 36 38 40 42 40 38 36 31 29 27 29 30 31 33 37 39
3 6 8 10 10 10 12 14 16 16 17 20 21 24 27 27 30 31 30 30 30 35 37 34 31 33 34 34 30 30 32 35 38 40 42 41 42 40 36 32 30 30 31 30 31 36 39
8 9 12 14 16 16 15 18 17 19 21 23 26 29 27 29 32 33 34 36 32 39 39 41 38 33 36 34 29 31 30 33 35 41 43 42 43 43 41 40 36 32 30 31 31 35 36
13 12 12 14 16 18 21 22 24 26 27 28 31 35 36 38 35 35 38 40 39 43 44 43 44 39 35 35 31 32 29 28 27 34 42 42 41 43 45 42 40 35 33 32 34 33 32
19 19 20 21 23 24 25 28 31 33 35 36 38 41 43 43 37 42 44 44 45 45 48 44 43 44 40 36 33 33 28 27 26 27 35 40 45 44 43 42 43 40 39 39 35 32 30
25 27 28 30 31 32 33 36 38 38 39 41 43 45 47 45 44 48 48 49 48 52 50 46 47 43 45 41 35 34 29 27 27 26 27 34 42 47 47 48 47 44 43 43 40 38 35
29 30 32 34 35 37 39 41 41 42 44 46 47 47 49 50 51 53 52 50 55 56 53 49 49 50 47 46 38 34 32 27 25 23 25 28 35 41 47 49 49 47 46 44 42 43 40
34 35 36 39 40 42 45 46 47 48 50 52 53 53 55 56 56 57 55 53 59 59 55 49 48 52 51 48 41 36 33 30 26 20 18 22 26 35 42 47 47 47 44 45 44 42 41
37 38 41 42 45 47 48 51 54 54 54 56 57 60 60 60 58 57 58 57 62 60 56 49 46 49 55 50 45 37 34 31 31 23 19 17 19 24 32 41 44 43 43 43 40 41 42
41 43 44 46 48 50 53 55 56 58 59 63 63 65 65 64 60 61 57 59 60 58 54 49 45 44 53 52 46 38 37 34 37 31 26 21 18 17 19 26 33 37 38 38 38 40 41
46 47 49 51 52 54 57 61 63 66 67 67 65 62 62 63 65 63 58 58 59 56 53 47 43 42 50 53 48 42 43 40 42 39 33 26 25 22 19 19 23 26 29 30 31 32 34
52 53 56 57 59 62 64 67 68 68 67 65 66 65 66 68 67 63 62 64 59 54 51 44 43 44 47 54 52 45 47 44 40 44 40 35 33 29 25 23 24 25 27 32 36 39 40
59 61 63 65 68 68 70 71 69 67 65 67 70 71 71 69 67 67 67 63 55 51 47 40 41 41 49 57 57 51 48 48 44 43 48 43 40 37 33 28 24 26 28 28 30 32 33
65 67 68 68 70 70 71 70 68 66 69 72 75 75 74 69 65 67 67 55 48 48 42 36 40 39 47 59 58 54 51 51 49 45 45 44 43 42 40 33 30 30 28 28 29 33 32
68 71 72 72 71 70 70 70 70 71 75 78 79 77 73 70 69 68 59 49 44 42 35 37 39 40 44 54 59 58 54 55 51 44 44 45 45 45 41 36 33 32 33 32 30 30 34
72 70 69 68 69 69 70 73 76 79 82 81 82 77 74 73 67 60 48 45 42 39 36 38 38 41 47 50 60 62 59 58 55 50 46 46 44 43 41 38 36 35 33 32 31 32 35
66 63 65 67 70 73 76 79 83 86 87 86 82 74 70 64 56 44 44 41 41 36 37 39 38 41 47 52 60 65 62 60 56 53 51 50 45 42 39 37 34 33 32 28 30 34 34
64 67 69 74 77 80 82 86 89 88 85 81 72 62 54 49 41 40 41 38 36 37 37 39 36 41 45 51 60 65 62 58 57 55 53 53 50 42 40 37 32 33 28 30 31 30 29
70 74 78 79 82 86 87 93 87 78 71 64 56 46 42 40 36 41 38 35 35 36 37 38 37 38 43 45 52 64 64 60 57 57 57 56 51 44 43 39 35 33 29 29 31 31 29
77 80 82 83 88 89 91 87 74 63 57 51 44 41 40 39 34 39 35 33 38 38 38 37 36 36 40 45 47 59 64 62 60 57 58 56 49 43 42 40 38 36 33 31 31 29 30
83 83 86 89 92 95 81 71 61 56 49 42 39 39 41 40 34 38 32 36 37 37 36 35 32 36 39 43 48 50 63 62 61 59 57 54 48 44 43 42 40 39 34 34 31 31 32

GFSGBSN_250_spd_138.txt.gz
Wind_Speed
7 7 7 9 8 7 8 8 9 8 8 8 9 9 10 11 11 11 12 12 13 13 13 12 11 10 12 13 12 11 10 10 14 21 25 30 33 36 37 34 32 28 27 25 21 19 18
7 8 7 9 10 9 9 9 10 10 10 10 11 13 14 15 16 16 18 19 20 20 20 21 21 19 18 19 16 13 13 12 12 14 20 26 27 32 36 37 33 32 29 28 27 23 22
8 9 8 9 9 10 9 10 10 10 12 12 13 14 15 16 17 19 21 23 25 26 26 26 26 26 26 27 24 23 19 16 16 14 17 19 22 27 32 35 34 31 33 30 30 31 27
9 9 9 9 9 9 10 10 11 11 12 13 13 15 16 17 18 19 21 22 26 28 29 29 30 30 30 31 31 31 28 24 21 19 19 18 17 22 28 31 34 33 30 32 32 29 29
10 10 9 9 9 9 10 10 11 11 11 11 12 12 13 14 14 15 17 20 22 23 24 27 29 30 31 31 33 35 34 32 28 26 24 21 19 21 22 24 30 33 32 31 33 32 29
9 9 9 8 9 9 8 7 7 7 7 7 8 8 6 6 8 10 13 15 17 18 20 23 27 28 28 29 29 30 34 35 36 33 30 26 25 24 21 20 23 29 33 33 34 36 34
8 8 6 5 5 5 2 1 1 2 3 5 6 8 9 11 12 14 17 20 22 22 21 20 22 24 28 30 30 31 31 33 34 36 35 32 31 29 20 20 25 25 32 37 34 35 37
5 6 7 5 3 2 2 3 5 6 6 8 9 10 12 15 13 16 19 20 25 24 25 30 30 26 25 28 31 29 29 30 33 34 36 35 37 29 27 25 25 27 28 32 38 37 35
5 7 6 6 5 4 4 5 7 9 10 12 13 13 14 18 20 19 21 24 27 26 31 33 32 33 32 29 30 32 31 29 31 34 36 36 37 35 33 31 28 27 29 30 32 38 38
3 5 8 10 13 14 13 11 11 13 14 16 18 20 20 21 21 22 26 28 30 30 34 34 35 38 37 36 32 33 36 34 32 35 36 37 38 38 36 35 34 33 30 31 31 33 36
10 12 14 14 15 16 18 17 19 19 19 22 24 27 26 27 27 30 32 35 34 33 36 38 40 41 41 42 38 36 36 35 34 34 35 37 39 37 38 40 37 37 34 32 32 32 31
16 17 18 17 17 18 20 22 24 25 27 27 31 33 31 33 35 37 37 36 36 37 41 42 43 43 44 42 42 40 38 35 35 34 31 34 39 41 40 38 41 39 38 34 31 31 33
20 22 22 24 26 28 28 29 31 32 33 33 35 36 38 39 41 42 40 42 41 44 47 45 44 42 46 47 44 44 41 36 36 36 34 32 36 42 41 39 40 42 40 39 36 34 33
26 26 27 28 30 31 34 34 33 35 37 38 39 41 45 47 45 45 46 48 47 48 50 47 47 45 46 44 44 46 45 39 36 35 35 32 32 37 40 41 41 42 44 43 41 38 34
29 29 28 30 32 34 35 37 38 40 43 43 44 47 49 49 50 52 53 53 55 52 49 48 47 44 47 46 45 44 47 42 38 36 35 32 28 31 36 41 42 44 45 47 44 40 40
31 32 33 34 35 37 39 40 40 42 44 46 46 48 53 55 56 58 58 56 55 52 52 52 46 45 46 44 45 44 46 44 39 38 33 31 27 31 33 37 43 46 46 46 45 44 43
39 36 36 36 36 38 40 42 43 45 47 51 53 54 58 61 61 60 58 54 56 55 57 52 46 45 47 44 44 43 44 45 39 38 34 32 27 27 27 34 38 44 47 48 47 46 45
43 41 41 42 43 45 46 48 50 52 55 57 59 62 64 64 62 59 58 59 62 59 59 55 50 48 49 43 43 43 45 47 43 41 37 33 28 22 21 25 33 38 45 47 46 45 45
44 45 47 48 50 52 53 56 58 60 62 62 63 65 66 65 62 57 60 63 66 64 59 56 56 52 47 43 42 44 47 50 46 44 40 37 31 25 17 17 22 30 36 41 42 41 41
52 54 55 56 57 60 61 62 64 66 67 68 66 65 66 63 63 63 64 67 68 65 61 57 57 50 45 44 41 45 52 53 50 47 44 41 37 31 24 20 18 19 23 28 32 34 34
59 62 64 63 66 67 67 67 68 68 67 66 66 64 63 64 67 70 71 72 71 67 63 61 58 47 42 42 40 47 55 57 54 49 48 45 44 38 30 25 22 20 20 22 26 30 32
63 64 67 68 69 68 68 69 67 65 64 63 63 65 67 69 69 75 78 79 74 69 65 59 53 44 41 42 41 48 58 59 56 54 52 48 50 44 38 34 31 27 25 24 22 25 27
69 70 70 69 66 65 66 65 63 61 64 67 70 72 75 80 79 81 80 76 72 62 59 52 45 41 39 40 43 51 59 62 59 55 54 51 50 51 45 39 37 34 31 27 27 27 28
69 67 67 67 66 66 64 64 65 67 70 73 76 79 83 85 84 77 68 63 59 53 51 43 41 37 37 38 44 53 59 66 64 58 57 55 52 52 52 45 41 41 35 30 29 29 30
67 68 68 68 65 66 68 69 71 74 76 79 81 85 87 88 73 58 55 52 46 43 42 39 38 34 31 41 47 54 59 66 63 59 57 57 53 48 47 51 47 43 37 35 33 33 33
70 69 69 68 68 70 70 74 77 80 83 82 85 87 86 68 55 49 42 36 35 37 39 35 33 33 35 41 47 52 61 62 64 60 60 60 57 50 46 46 46 44 40 37 35 35 29
75 75 75 75 75 75 78 79 83 82 83 86 87 80 63 55 47 37 33 33 35 36 37 33 31 36 38 40 46 49 59 62 61 62 62 64 57 52 46 44 44 42 39 36 34 33 28
72 72 74 74 77 78 79 81 83 85 87 86 77 60 53 49 38 37 38 35 36 36 35 30 33 38 40 42 43 44 51 60 66 63 62 62 59 52 46 43 44 42 39 37 35 33 30
75 77 77 79 80 82 85 86 87 88 86 74 58 52 47 44 35 37 37 35 33 36 32 28 34 36 39 41 43 47 51 55 65 65 61 58 54 56 50 45 44 42 41 39 38 34 34

GFSGBSN_250_spd_141.txt.gz
Wind_Speed
8 8 8 9 9 8 9 9 8 8 7 7 6 7 7 7 8 9 9 10 10 10 11 9 9 10 11 9 8 8 8 10 12 15 21 24 28 33 33 34 33 31 29 31 23 22 23
9 9 8 9 10 10 9 9 9 10 10 10 11 12 12 12 13 14 15 16 16 16 16 16 16 18 18 16 14 12 10 12 13 14 16 14 20 26 29 33 35 34 33 31 30 24 23
10 10 9 9 10 10 10 10 10 10 10 12 12 12 13 14 14 16 17 18 20 21 21 22 22 23 24 23 23 22 19 18 17 17 18 15 16 19 22 28 31 36 33 33 31 30 28
11 10 9 9 10 10 11 11 11 11 10 11 11 12 14 14 15 16 17 19 20 19 20 22 24 26 27 27 27 27 27 25 23 22 21 18 17 20 16 21 25 30 34 32 34 33 31
10 10 10 10 11 11 11 11 10 10 9 9 9 9 9 10 11 12 13 13 13 13 15 18 20 23 26 27 27 28 30 30 30 28 26 22 21 21 18 16 18 25 30 33 32 35 34
9 9 10 10 10 10 9 9 7 7 7 6 5 5 4 4 5 7 8 9 12 12 14 16 18 20 23 26 27 27 27 29 30 32 31 28 28 25 22 18 19 22 27 32 34 32 35
8 8 9 9 8 7 8 6 4 3 3 3 3 4 5 5 10 10 11 13 13 16 19 19 17 19 23 25 26 28 28 29 29 30 31 32 33 29 25 23 24 22 24 28 33 35 35
7 7 7 8 7 6 6 5 5 5 6 6 7 8 9 9 12 15 18 19 18 22 24 25 24 23 24 24 26 28 30 30 30 30 32 33 34 29 31 29 29 27 26 27 29 37 35
7 8 9 9 7 7 6 6 6 8 10 11 12 13 14 15 15 18 21 22 23 24 26 27 28 29 29 29 31 29 29 31 31 31 31 32 34 32 33 35 34 34 31 28 29 30 36
6 6 8 8 11 14 15 16 16 16 15 16 18 17 19 21 21 23 24 26 27 29 31 30 32 33 33 32 33 34 32 32 34 34 35 35 35 33 35 37 39 38 36 32 29 28 32
8 10 13 18 20 20 21 22 21 23 22 23 25 24 24 24 26 25 27 30 32 34 34 36 37 37 37 37 38 38 39 35 35 38 38 37 37 35 36 38 40 43 38 37 32 30 30
14 16 17 17 20 23 24 23 24 24 25 27 29 29 28 29 30 30 33 36 35 37 38 37 39 40 42 40 41 40 41 43 38 40 41 37 37 37 34 37 40 42 42 39 36 34 30
17 20 23 23 24 25 27 30 31 31 30 29 30 34 33 33 33 36 37 37 37 41 43 43 44 43 41 43 41 41 43 42 41 40 42 40 39 36 32 34 39 41 44 42 39 38 33
22 23 24 25 26 27 28 29 30 32 34 33 35 37 39 38 37 39 39 41 44 47 50 48 45 41 39 40 43 43 43 44 42 43 42 42 41 37 34 33 36 41 43 44 44 43 35
26 28 29 28 30 31 31 32 32 34 37 36 36 39 40 42 42 44 46 46 49 53 53 49 48 42 42 43 43 42 43 44 43 43 42 43 43 37 35 33 34 39 44 47 48 48 39
33 35 35 35 34 31 32 32 33 36 38 39 40 42 46 48 50 52 53 54 53 55 54 50 46 48 46 46 43 41 38 42 43 43 43 43 45 38 35 32 33 37 45 46 47 49 44
34 36 37 39 39 38 39 39 40 41 43 46 47 49 53 55 57 58 57 57 57 55 55 50 49 51 50 49 43 42 44 45 44 42 43 45 45 40 35 31 31 35 41 46 47 47 46
37 38 40 42 45 46 47 49 50 52 53 54 55 58 60 61 62 63 62 61 59 55 53 53 53 53 54 52 48 44 47 49 45 41 44 46 46 41 36 30 29 33 39 43 47 47 46
44 47 49 51 53 55 55 56 58 59 59 60 64 64 65 65 65 65 64 61 58 56 56 58 60 59 59 59 54 50 50 49 44 42 46 48 48 42 37 29 29 32 38 43 46 47 47
52 56 58 59 59 60 61 61 63 64 66 66 66 67 66 66 64 63 60 58 57 57 58 61 64 63 63 64 59 53 55 48 44 44 47 49 49 43 39 29 25 27 31 38 42 45 46
61 60 60 63 64 64 64 65 66 68 68 65 65 63 63 62 60 59 58 61 63 64 65 67 69 70 68 63 60 56 54 48 45 45 49 51 51 46 42 33 28 22 24 30 35 39 43
62 62 61 61 61 61 62 63 63 63 63 62 63 62 61 59 60 62 65 69 70 72 72 75 79 74 67 61 57 52 49 48 44 47 52 55 53 50 45 38 32 27 26 27 28 30 32
64 60 60 60 61 63 63 63 63 62 61 61 60 61 63 64 65 67 70 75 80 78 79 78 65 59 54 53 49 47 44 45 45 48 54 57 55 52 47 43 36 34 33 30 29 29 28
62 62 63 66 66 68 68 68 68 65 64 64 63 64 65 69 72 72 76 77 78 83 73 57 50 47 46 42 43 41 42 45 47 52 57 62 60 57 52 47 42 39 35 32 30 28 26
67 69 70 72 70 69 70 71 71 69 69 68 69 68 72 74 77 76 74 77 82 66 55 49 42 38 38 37 38 38 42 47 52 56 58 63 62 57 53 51 49 46 42 37 33 29 27
70 72 74 74 72 73 72 72 71 70 70 70 70 74 75 78 78 76 77 77 62 51 45 39 34 35 36 35 35 38 43 49 54 57 59 63 61 59 57 52 52 50 46 42 39 36 29
72 76 76 75 74 73 71 73 74 75 76 75 78 79 81 82 81 78 72 56 48 41 34 30 28 32 34 33 35 41 47 50 56 59 61 61 61 61 60 53 52 52 47 42 39 36 33
80 84 81 77 75 78 79 81 79 79 80 80 79 80 78 78 68 59 50 44 40 37 35 33 32 34 35 32 37 47 49 48 54 59 61 61 60 59 58 54 52 50 50 49 45 40 36
88 89 80 78 80 81 77 74 71 71 72 69 67 69 65 59 48 43 41 39 35 37 37 34 31 33 33 32 43 47 46 47 50 57 62 60 58 59 60 57 49 48 47 45 43 40 39